[[{"header":{"parameterUnit":"m.s-1","parameterCategory":1,"la1":31.0,"la2":29.5877,"lo1":-88.7671,"lo2":-86.6584,"dy":0.0162,"dx":0.0185,"nx":115,"ny":88,"refTime":"2023-05-24T06:00:00:Z","depth":0,"parameterNumber":2,"parameterNumberName":"U-component_of_WINDS"},"data":[0.0,0.0,0.0,0.0,0.0,0.0,0.0,0.0,0.0,0.0,0.0,0.0,0.0,0.0,0.0,0.0,0.0,0.0,0.0,0.0,0.0,0.0,0.0,0.0,0.0,0.0,0.0,0.0,0.0,0.0,0.0,0.0,0.0,0.0,0.0,0.0,0.0,0.0,0.0,0.0,0.0,0.0,0.0,0.0,0.0,0.0,0.0,0.0,0.0,0.0,0.0,0.0,0.0,0.0,0.0,0.0,0.0,0.0,0.0,0.0,0.0,0.0,0.0,0.0,0.0,0.0,0.0,0.0,0.0,0.0,0.0,0.0,0.0,0.0,0.0,0.0,0.0,0.0,0.0,0.0,0.0,0.0,0.0,0.0,0.0,0.0,0.0,0.0,0.0,0.0,0.0,0.0,0.0,0.0,0.0,0.0,0.0,0.0,0.0,0.0,0.0,0.0,0.0,0.0,0.0,0.0,0.0,0.0,0.0,0.0,0.0,0.0,0.0,0.0,0.0,0.0,0.0,0.0,0.0,0.0,0.0,0.0,0.0,0.0,0.0,0.0,0.0,0.0,0.0,0.0,0.0,0.0,0.0,0.0,0.0,0.0,0.0,0.0,0.0,0.0,0.0,0.0,0.0,0.0,0.0,0.0,0.0,0.0,0.0,0.0,0.0,0.0,0.0,0.0,0.0,0.0,0.0,0.0,0.0,0.0,0.0,0.0,0.0,0.0,0.0,0.0,0.0,0.0,0.0,0.0,0.0,0.0,0.0,0.0,0.0,0.0,0.0,0.0,0.0,0.0,0.0,0.0,0.0,0.0,0.0,0.0,0.0,0.0,0.0,0.0,0.0,0.0,0.0,0.0,0.0,0.0,0.0,0.0,0.0,0.0,0.0,0.0,0.0,0.0,0.0,0.0,0.0,0.0,0.0,0.0,0.0,0.0,0.0,0.0,0.0,0.0,0.0,0.0,0.0,0.0,0.0,0.0,0.0,0.0,0.0,0.0,0.0,0.0,0.0,0.0,0.0,0.0,0.0,0.0,0.0,0.0,0.0,0.0,0.0,0.0,0.0,0.0,0.0,0.0,0.0,0.0,0.0,0.0,0.0,0.0,0.0,0.0,0.0,0.0,0.0,0.0,0.0,0.0,0.0,0.0,0.0,0.0,0.0,0.0,0.0,0.0,0.0,0.0,0.0,0.0,0.0,0.0,0.0,0.0,0.0,0.0,0.0,0.0,0.0,0.0,0.0,0.0,0.0,0.0,0.0,0.0,0.0,0.0,0.0,0.0,0.0,0.0,0.0,0.0,0.0,0.0,0.0,0.0,0.0,0.0,0.0,0.0,0.0,0.0,0.0,0.0,0.0,0.0,0.0,0.0,0.0,0.0,0.0,0.0,0.0,0.0,0.0,0.0,0.0,0.0,0.0,0.0,0.0,0.0,0.0,0.0,0.0,0.0,0.0,0.0,0.0,0.0,0.0,0.0,0.0,0.0,0.0,0.0,0.0,0.0,0.0,0.0,0.0,0.0,0.0,0.0,0.0,0.0,0.0,0.0,0.0,0.0,0.0,0.0,0.0,0.0,0.0,0.0,0.0,0.0,0.0,0.0,0.0,0.0,0.0,0.0,0.0,0.0,0.0,0.0,0.0,0.0,0.0,0.0,0.0,0.0,0.0,0.0,0.0,0.0,0.0,0.0,0.0,0.0,0.0,0.0,0.0,0.0,0.0,0.0,0.0,0.0,0.0,0.0,0.0,0.0,0.0,0.0,0.0,0.0,0.0,0.0,0.0,0.0,0.0,0.0,0.0,0.0,0.0,0.0,0.0,0.0,0.0,0.0,0.0,0.0,0.0,0.0,0.0,0.0,0.0,0.0,0.0,0.0,0.0,0.0,0.0,0.0,0.0,0.0,0.0,0.0,0.0,0.0,0.0,0.0,0.0,0.0,0.0,0.0,0.0,0.0,0.0,0.0,0.0,0.0,0.0,0.0,0.0,0.0,0.0,0.0,0.0,0.0,0.0,0.0,0.0,0.0,0.0,0.0,0.0,0.0,0.0,0.0,0.0,0.0,0.0,0.0,0.0,0.0,0.0,0.0,0.0,0.0,0.0,0.0,0.0,0.0,0.0,0.0,0.0,0.0,0.0,0.0,0.0,0.0,0.0,0.0,0.0,0.0,0.0,0.0,0.0,0.0,0.0,0.0,0.0,0.0,0.0,0.0,0.0,0.0,0.0,0.0,0.0,0.0,0.0,0.0,0.0,0.0,0.0,0.0,0.0,0.0,0.0,0.0,0.0,0.0,0.0,0.0,0.0,0.0,0.0,0.0,0.0,0.0,0.0,0.0,0.0,0.0,0.0,0.0,0.0,0.0,0.0,0.0,0.0,0.0,0.0,0.0,0.0,0.0,0.0,0.0,0.0,0.0,0.0,0.0,0.0,0.0,0.0,0.0,0.0,0.0,0.0,0.0,0.0,0.0,0.0,0.0,0.0,0.0,0.0,0.0,0.0,0.0,0.0,0.0,0.0,0.0,0.0,0.0,0.0,0.0,0.0,0.0,0.0,0.0,0.0,0.0,0.0,0.0,0.0,0.0,0.0,0.0,0.0,0.0,0.0,0.0,0.0,0.0,0.0,0.0,0.0,0.0,0.0,0.0,0.0,0.0,0.0,0.0,0.0,0.0,0.0,0.0,0.0,0.0,0.0,0.0,0.0,0.0,0.0,0.0,0.0,0.0,0.0,0.0,0.0,0.0,0.0,0.0,0.0,0.0,0.0,0.0,0.0,0.0,0.0,0.0,0.0,0.0,0.0,0.0,0.0,0.0,0.0,0.0,0.0,0.0,0.0,0.0,0.0,0.0,0.0,0.0,0.0,0.0,0.0,0.0,0.0,0.0,0.0,0.0,0.0,0.0,0.0,0.0,0.0,0.0,0.0,0.0,0.0,0.0,0.0,0.0,0.0,0.0,0.0,0.0,0.0,0.0,0.0,0.0,0.0,0.0,0.0,0.0,0.0,0.0,0.0,0.0,0.0,0.0,0.0,0.0,0.0,0.0,0.0,0.0,0.0,0.0,0.0,0.0,0.0,0.0,0.0,0.0,0.0,0.0,0.0,0.0,0.0,0.0,0.0,0.0,0.0,0.0,0.0,0.0,0.0,0.0,0.0,0.0,0.0,0.0,0.0,0.0,0.0,0.0,0.0,0.0,0.0,0.0,0.0,0.0,0.0,0.0,0.0,0.0,0.0,0.0,0.0,0.0,0.0,0.0,0.0,0.0,0.0,0.0,0.0,0.0,0.0,0.0,0.0,0.0,0.0,0.0,0.0,0.0,0.0,0.0,0.0,0.0,0.0,0.0,0.0,0.0,0.0,0.0,0.0,0.0,0.0,0.0,0.0,0.0,0.0,0.0,0.0,0.0,0.0,0.0,0.0,0.0,0.0,0.0,0.0,0.0,0.0,0.0,0.0,0.0,0.0,0.0,0.0,0.0,0.0,0.0,0.0,0.0,0.0,0.0,0.0,0.0,0.0,0.0,0.0,0.0,0.0,0.0,0.0,0.0,0.0,0.0,0.0,0.0,0.0,0.0,0.0,0.0,0.0,0.0,0.0,0.0,0.0,0.0,0.0,0.0,0.0,0.0,0.0,0.0,0.0,0.0,0.0,0.0,0.0,0.0,0.0,0.0,0.0,0.0,0.0,0.0,0.0,0.0,0.0,0.0,0.0,0.0,0.0,0.0,0.0,0.0,0.0,0.0,0.0,0.0,0.0,0.0,0.0,0.0,0.0,0.0,0.0,0.0,0.0,0.0,0.0,0.0,0.0,0.0,0.0,0.0,0.0,0.0,0.0,0.0,0.0,0.0,0.0,0.0,0.0,0.0,0.0,0.0,0.0,0.0,0.0,0.0,0.0,0.0,0.0,0.0,0.0,0.0,0.0,0.0,0.0,0.0,0.0,0.0,0.0,0.0,0.0,0.0,0.0,0.0,0.0,0.0,0.0,0.0,0.0,0.0,0.0,0.0,0.0,0.0,0.0,0.0,0.0,0.0,0.0,0.0,0.0,0.0,0.0,0.0,0.0,0.0,0.0,0.0,0.0,0.0,0.0,0.0,0.0,0.0,0.0,0.0,0.0,0.0,0.0,0.0,0.0,0.0,0.0,0.0,0.0,0.0,0.0,0.0,0.0,0.0,0.0,0.0,0.0,0.0,0.0,0.0,0.0,0.0,0.0,0.0,0.0,0.0,0.0,0.0,0.0,0.0,0.0,0.0,0.0,0.0,0.0,0.0,1.0356,0.0,0.0,0.0,0.0,0.0,0.0,0.0,0.0,0.0,0.0,0.0,0.0,0.0,0.0,0.0,0.0,0.0,0.0,0.0,0.0,0.0,0.0,0.0,0.0,0.0,0.0,0.0,0.0,0.0,0.0,0.0,0.0,0.0,0.0,0.0,0.0,0.0,0.0,0.0,0.0,0.0,0.0,0.0,0.0,0.0,0.0,0.0,0.0,0.0,0.0,0.0,0.0,0.0,0.0,0.0,0.0,0.0,0.0,0.0,0.0,0.0,0.0,0.0,0.0,0.0,0.0,0.0,0.0,0.0,0.0,0.0,0.0,0.0,0.0,0.0,0.0,0.0,0.0,0.0,0.0,0.0,0.0,0.0,0.0,0.0,0.0,0.0,0.0,0.0,0.0,0.0,0.0,0.0,0.0,0.0,0.0,0.0,0.0,0.0,0.0,0.0,0.0,0.0,0.0,0.0,0.0,0.0,0.0,0.0,0.0,1.0951,1.0889,1.057,1.0377,1.0343,0.0,0.0,0.0,0.0,0.0,0.0,0.0,0.0,0.0,0.0,0.0,0.0,0.0,0.0,0.0,0.0,0.0,0.0,0.0,0.0,0.0,0.0,0.0,0.0,0.0,0.0,0.0,0.0,0.0,0.0,0.0,0.0,0.0,0.0,0.0,0.0,0.0,0.0,0.0,0.0,0.0,0.0,0.0,0.0,0.0,0.0,0.0,0.0,0.0,0.0,0.0,0.0,0.0,0.0,0.0,0.0,0.0,0.0,0.0,0.0,0.0,0.0,0.0,0.0,0.0,0.0,0.0,0.0,0.0,0.0,0.0,0.0,0.0,0.0,0.0,0.0,0.0,0.0,0.0,0.0,0.0,0.0,0.0,0.0,0.0,0.0,0.0,0.0,0.0,0.0,0.0,0.0,0.0,0.0,0.0,0.0,0.0,0.0,0.0,0.0,0.0,0.0,0.0,0.0,0.0,0.0,0.0,0.0,0.0,0.0,0.0,0.0,1.11,1.0836,1.0723,0.0,0.0,0.0,0.0,0.0,0.0,0.0,0.0,0.0,0.0,0.0,0.0,0.0,0.0,0.0,0.0,0.0,0.0,0.0,0.0,0.0,0.0,0.0,0.0,0.0,0.0,0.0,0.0,0.0,0.0,0.0,0.0,0.0,0.0,0.0,0.0,0.0,0.0,0.0,0.0,0.0,0.0,0.0,0.0,0.0,0.0,0.0,0.0,0.0,0.0,0.0,0.0,0.0,0.0,0.0,0.0,0.0,0.0,0.0,0.0,0.0,0.0,0.0,0.0,0.0,0.0,0.0,0.0,0.0,0.0,0.0,0.0,0.0,0.0,0.0,0.0,0.0,0.0,0.0,0.0,0.0,0.0,0.0,0.0,0.0,0.0,0.0,0.0,0.0,0.0,0.0,0.0,0.0,0.0,0.0,0.0,0.0,0.0,0.0,0.0,0.0,0.0,0.0,0.0,0.0,0.0,0.0,0.0,0.0,0.0,1.2609,1.2481,1.2367,0.0,1.2038,0.0,0.0,0.0,0.0,0.0,0.0,0.0,0.0,0.0,0.0,0.0,0.0,0.0,0.0,0.0,0.0,0.0,0.0,0.0,0.0,0.0,0.0,0.0,0.0,0.0,0.0,0.0,0.0,0.0,0.0,0.0,0.0,0.0,0.0,0.0,0.0,0.0,0.0,0.0,0.0,0.0,0.0,0.0,0.0,0.0,0.0,0.0,0.0,0.0,0.0,0.0,0.0,0.0,0.0,0.0,0.0,0.0,0.0,0.0,0.0,0.0,0.0,0.0,0.0,0.0,0.0,0.0,0.0,0.0,0.0,0.0,0.0,0.0,0.0,0.0,0.0,0.0,0.0,0.0,0.0,0.0,0.0,0.0,0.0,0.0,0.0,0.0,0.0,0.0,0.0,0.0,0.0,0.0,0.0,0.0,0.0,0.0,0.0,0.0,0.0,0.0,0.0,0.0,0.0,0.0,0.0,0.0,0.0,0.0,0.0,1.3258,1.3092,1.2623,1.2342,0.0,0.0,0.0,0.0,0.0,0.0,0.0,0.0,0.0,0.0,0.0,0.0,0.0,0.0,0.0,0.0,0.0,0.0,0.0,0.0,0.0,0.0,0.0,0.0,0.0,0.0,0.0,0.0,0.0,0.0,0.0,0.0,0.0,0.0,0.0,0.0,0.0,0.0,0.0,0.0,0.0,0.0,0.0,0.0,0.0,0.0,0.0,0.0,0.0,0.0,0.0,0.0,0.0,0.0,0.0,0.0,0.0,0.0,0.0,0.0,0.0,0.0,0.0,0.0,0.0,0.0,0.0,0.0,0.0,0.0,0.0,0.0,0.0,0.0,0.0,0.0,0.0,0.0,0.0,0.0,0.0,0.0,0.0,0.0,0.0,0.0,0.0,0.0,0.0,0.0,0.0,0.0,0.0,0.0,0.0,0.0,0.0,0.0,0.0,0.0,0.0,0.0,0.0,0.0,0.0,0.0,0.0,0.0,0.0,0.0,1.421,1.3936,1.3732,1.3164,1.2832,1.2754,0.0,0.0,0.0,0.0,0.0,0.0,0.0,0.0,0.0,0.0,0.0,0.0,0.0,0.0,0.0,0.0,0.0,0.0,0.0,0.0,0.0,0.0,0.0,0.0,0.0,0.0,0.0,0.0,0.0,0.0,0.0,0.0,0.0,0.0,0.0,0.0,0.0,0.0,0.0,0.0,0.0,0.0,0.0,0.0,0.0,0.0,0.0,0.0,0.0,0.0,0.0,0.0,0.0,0.0,0.0,0.0,0.0,0.0,0.0,0.0,0.0,0.0,0.0,0.0,0.0,0.0,0.0,0.0,0.0,0.0,0.0,0.0,0.0,0.0,0.0,0.0,0.0,0.0,0.0,0.0,0.0,0.0,0.0,0.0,0.0,0.0,0.0,0.0,0.0,0.0,0.0,0.0,0.0,0.0,0.0,0.0,0.0,0.0,0.0,0.0,0.0,0.0,0.0,0.0,0.0,0.0,0.0,0.0,1.4978,1.489,1.4775,1.4625,1.4355,1.4187,0.0,0.0,0.0,0.0,0.0,0.0,0.0,0.0,0.0,0.0,0.0,0.0,0.0,0.0,0.0,0.0,0.0,0.0,0.0,0.0,0.0,0.0,0.0,0.0,0.0,0.0,0.0,0.0,0.0,0.0,0.0,0.0,0.0,0.0,0.0,0.0,0.0,0.0,0.0,0.0,0.0,0.0,0.0,0.0,0.0,0.0,0.0,0.0,0.0,0.0,0.0,0.0,0.0,0.0,0.0,0.0,0.0,0.0,0.0,0.0,0.0,0.0,0.0,0.0,0.0,0.0,0.0,0.0,0.0,0.0,0.0,0.0,0.0,0.0,0.0,0.0,0.0,0.0,0.0,0.0,0.0,0.0,0.0,0.0,0.0,0.0,0.0,0.0,0.0,0.0,0.0,0.0,0.0,0.0,0.0,0.0,0.0,0.0,0.0,0.0,0.0,0.0,0.0,0.0,0.0,0.0,0.0,0.0,0.0,1.514,1.5105,1.4983,1.4759,1.4562,1.4357,0.0,0.0,0.0,0.0,0.0,0.0,0.0,0.0,0.0,0.0,0.0,0.0,0.0,0.0,0.0,0.0,0.0,0.0,0.0,0.0,0.0,0.0,0.0,0.0,0.0,0.0,0.0,0.0,0.0,0.0,0.0,0.0,0.0,0.0,0.0,0.0,0.0,0.0,0.0,0.0,0.0,0.0,0.0,0.0,0.0,0.0,0.0,0.0,0.0,0.0,0.0,0.0,0.0,0.0,0.0,0.0,0.0,0.0,0.0,0.0,0.0,0.0,0.0,0.0,0.0,0.0,0.0,0.0,0.0,0.0,0.0,0.0,0.0,0.0,0.0,0.0,0.0,0.0,0.0,0.0,0.0,0.0,0.0,0.0,0.0,0.0,0.0,0.0,0.0,0.0,0.0,0.0,0.0,0.0,0.0,0.0,0.0,0.0,0.0,0.0,0.0,0.0,0.0,0.0,0.0,0.0,0.0,0.0,0.0,1.5234,0.0,1.5124,1.4862,1.4698,1.4521,0.0,0.0,0.0,0.0,0.0,0.0,0.0,0.0,0.0,0.0,0.0,0.0,0.0,0.0,0.0,0.0,0.0,0.0,0.0,0.0,0.0,0.0,0.0,0.0,0.0,0.0,0.0,0.0,0.0,0.0,0.0,0.0,0.0,0.0,0.0,0.0,0.0,0.0,0.0,0.0,0.0,0.0,0.0,0.0,0.0,0.0,0.0,0.0,0.0,0.0,0.0,0.0,0.0,0.0,0.0,0.0,0.0,0.0,0.0,0.0,0.0,0.0,0.0,0.0,0.0,0.0,0.0,0.0,0.0,0.0,0.0,0.0,0.0,0.0,0.0,0.0,0.0,0.0,0.0,0.0,0.0,0.0,0.0,0.0,0.0,0.0,0.0,0.0,0.0,0.0,0.0,0.0,0.0,0.0,0.0,0.0,0.0,0.0,0.0,0.0,0.0,0.0,0.0,0.0,0.0,0.0,0.0,0.0,1.541,1.5338,1.5367,1.5317,1.5027,1.493,1.4795,0.0,0.0,0.0,0.0,0.0,0.0,0.0,0.0,0.0,0.0,0.0,0.0,0.0,0.0,0.0,0.0,0.0,0.0,0.0,0.0,0.0,0.0,0.0,0.0,0.0,0.0,0.0,0.0,0.0,0.0,0.0,0.0,0.0,0.0,0.0,0.0,0.0,0.0,0.0,0.0,0.0,0.0,0.0,0.0,0.0,0.0,0.0,0.0,0.0,0.0,0.0,0.0,0.0,0.0,0.0,0.0,0.0,0.0,0.0,0.0,0.0,0.0,0.0,0.0,0.0,0.0,0.0,0.0,0.0,0.0,0.0,0.0,0.0,0.0,0.0,0.0,0.0,0.0,0.0,0.0,0.0,0.0,0.0,0.0,0.0,0.0,0.0,0.0,0.0,0.0,0.0,0.0,0.0,0.0,0.0,0.0,0.0,0.0,0.0,0.0,0.0,0.0,0.0,0.0,0.0,0.0,0.0,0.0,0.0,1.6816,1.6866,1.6815,1.6658,1.6023,1.5636,0.0,0.0,0.0,0.0,0.0,0.0,0.0,0.0,0.0,0.0,0.0,0.0,0.0,0.0,0.0,0.0,0.0,0.0,0.0,0.0,0.0,0.0,0.0,0.0,0.0,0.0,0.0,0.0,0.0,0.0,0.0,0.0,0.0,0.0,0.0,0.0,0.0,0.0,0.0,0.0,0.0,0.0,0.0,0.0,0.0,0.0,0.0,0.0,0.0,0.0,0.0,0.0,0.0,0.0,0.0,0.0,0.0,0.0,0.0,0.0,0.0,0.0,0.0,0.0,0.0,0.0,0.0,0.0,0.0,0.0,0.0,0.0,0.0,0.0,0.0,0.0,0.0,0.0,0.0,0.0,0.0,0.0,0.0,0.0,0.0,0.0,0.0,0.0,0.0,0.0,0.0,0.0,0.0,0.0,0.0,0.0,0.0,0.0,0.0,0.0,0.0,0.0,0.0,0.0,0.0,0.0,0.0,0.0,0.0,1.8668,1.8208,1.7914,1.7817,1.7253,1.6769,1.6399,0.0,0.0,0.0,0.0,0.0,0.0,0.0,0.0,0.0,0.0,0.0,0.0,0.0,0.0,0.0,0.0,0.0,0.0,0.0,0.0,0.0,0.0,0.0,0.0,0.0,0.0,0.0,0.0,0.0,0.0,0.0,0.0,0.0,0.0,0.0,0.0,0.0,0.0,0.0,0.0,0.0,0.0,0.0,0.0,0.0,0.0,0.0,0.0,0.0,0.0,0.0,0.0,0.0,0.0,0.0,0.0,0.0,0.0,0.0,0.0,0.0,0.0,0.0,0.0,0.0,0.0,0.0,0.0,0.0,0.0,0.0,0.0,0.0,0.0,0.0,0.0,0.0,0.0,0.0,0.0,0.0,0.0,0.0,0.0,0.0,0.0,0.0,0.0,0.0,0.0,0.0,0.0,0.0,0.0,0.0,0.0,0.0,0.0,0.0,0.0,0.0,0.0,0.0,0.0,0.0,0.0,0.0,0.0,2.0723,1.9488,1.88,1.8713,1.8554,1.8167,0.0,0.0,0.0,0.0,0.0,0.0,0.0,0.0,0.0,0.0,0.0,0.0,0.0,0.0,0.0,0.0,0.0,0.0,0.0,0.0,0.0,0.0,0.0,0.0,0.0,0.0,0.0,0.0,0.0,0.0,0.0,0.0,0.0,0.0,0.0,0.0,0.0,0.0,0.0,0.0,0.0,0.0,0.0,0.0,0.0,0.0,0.0,0.0,0.0,0.0,0.0,0.0,0.0,0.0,0.0,0.0,0.0,0.0,0.0,0.0,0.0,0.0,0.0,0.0,0.0,0.0,0.0,0.0,0.0,0.0,0.0,0.0,0.0,0.0,0.0,0.0,0.0,0.0,0.0,0.0,0.0,0.0,0.0,0.0,0.0,0.0,0.0,0.0,0.0,0.0,0.0,0.0,0.0,0.0,0.0,0.0,0.0,0.0,0.0,0.0,0.0,0.0,0.0,0.0,0.0,0.0,0.0,0.0,0.0,2.1258,2.151,2.1391,2.0854,1.9836,1.917,0.0,0.0,0.0,0.0,0.0,0.0,0.0,0.0,0.0,0.0,0.0,0.0,0.0,0.0,0.0,0.0,0.0,0.0,0.0,0.0,0.0,0.0,0.0,0.0,0.0,0.0,0.0,0.0,0.0,0.0,0.0,0.0,0.0,0.0,0.0,0.0,0.0,0.0,0.0,0.0,0.0,0.0,0.0,0.0,0.0,0.0,0.0,0.0,0.0,0.0,0.0,0.0,0.0,0.0,0.0,0.0,0.0,0.0,0.0,0.0,0.0,0.0,0.0,0.0,0.0,0.0,0.0,0.0,0.0,0.0,0.0,0.0,0.0,0.0,0.0,0.0,0.0,0.0,0.0,0.0,0.0,0.0,0.0,0.0,0.0,0.0,0.0,0.0,0.0,0.0,0.0,0.0,0.0,0.0,0.0,0.0,0.0,0.0,0.0,0.0,0.0,0.0,0.0,0.0,0.0,0.0,0.0,0.0,2.1113,2.1911,2.2653,2.286,2.2497,2.1202,2.0338,0.0,0.0,0.0,0.0,0.0,0.0,0.0,0.0,0.0,0.0,0.0,0.0,0.0,0.0,0.0,0.0,0.0,0.0,0.0,0.0,0.0,0.0,0.0,0.0,0.0,0.0,0.0,0.0,0.0,0.0,0.0,0.0,0.0,0.0,0.0,0.0,0.0,0.0,0.0,0.0,0.0,0.0,0.0,0.0,0.0,0.0,0.0,0.0,0.0,0.0,0.0,0.0,0.0,0.0,0.0,0.0,0.0,0.0,0.0,0.0,0.0,0.0,0.0,0.0,0.0,0.0,0.0,0.0,0.0,0.0,0.0,0.0,0.0,0.0,0.0,0.0,0.0,0.0,0.0,0.0,0.0,0.0,0.0,0.0,0.0,0.0,0.0,0.0,0.0,0.0,0.0,0.0,0.0,0.0,0.0,0.0,0.0,0.0,0.0,0.0,0.0,0.0,0.0,0.0,0.0,0.0,0.0,0.0,2.1765,2.2663,2.3365,2.3752,2.3784,2.2503,2.1475,0.0,0.0,0.0,0.0,0.0,0.0,0.0,0.0,0.0,0.0,0.0,0.0,0.0,0.0,0.0,0.0,0.0,0.0,0.0,0.0,0.0,0.0,0.0,0.0,0.0,0.0,0.0,0.0,0.0,0.0,0.0,0.0,0.0,0.0,0.0,0.0,0.0,0.0,0.0,0.0,0.0,0.0,0.0,0.0,0.0,0.0,0.0,0.0,0.0,0.0,0.0,0.0,0.0,0.0,0.0,0.0,0.0,0.0,0.0,0.0,0.0,0.0,0.0,0.0,0.0,0.0,0.0,0.0,0.0,0.0,0.0,0.0,0.0,0.0,0.0,0.0,0.0,0.0,0.0,0.0,0.0,0.0,0.0,0.0,0.0,0.0,0.0,0.0,0.0,0.0,0.0,0.0,0.0,0.0,0.0,0.0,0.0,0.0,0.0,0.0,0.0,0.0,0.0,0.0,0.0,0.0,0.0,0.0,2.2716,2.3886,2.4729,2.5146,2.516,2.3421,2.2128,0.0,0.0,0.0,0.0,0.0,0.0,0.0,0.0,0.0,0.0,0.0,0.0,0.0,0.0,0.0,0.0,0.0,0.0,0.0,0.0,0.0,0.0,0.0,0.0,0.0,0.0,0.0,0.0,0.0,0.0,0.0,0.0,0.0,0.0,0.0,0.0,0.0,0.0,0.0,0.0,0.0,0.0,0.0,0.0,0.0,0.0,0.0,0.0,1.844,0.0,0.0,0.0,0.0,0.0,0.0,0.0,0.0,0.0,0.0,0.0,0.0,0.0,0.0,0.0,0.0,0.0,0.0,0.0,0.0,0.0,0.0,0.0,0.0,0.0,0.0,0.0,0.0,0.0,0.0,0.0,0.0,0.0,0.0,0.0,0.0,0.0,0.0,0.0,0.0,0.0,0.0,0.0,0.0,0.0,0.0,0.0,0.0,0.0,0.0,0.0,0.0,0.0,0.0,0.0,0.0,0.0,0.0,0.0,2.3311,2.4667,2.5174,2.547,2.5552,2.4592,2.3397,0.0,0.0,0.0,0.0,0.0,0.0,0.0,0.0,0.0,0.0,0.0,0.0,0.0,0.0,0.0,0.0,0.0,0.0,0.0,0.0,0.0,0.0,0.0,0.0,0.0,0.0,0.0,0.0,0.0,0.0,0.0,0.0,0.0,0.0,0.0,0.0,0.0,0.0,0.0,0.0,0.0,0.0,0.0,0.0,0.0,0.0,0.0,0.0,0.0,0.0,0.0,0.0,0.0,0.0,0.0,0.0,0.0,0.0,0.0,0.0,0.0,0.0,0.0,0.0,0.0,0.0,0.0,0.0,0.0,0.0,0.0,0.0,0.0,0.0,0.0,0.0,0.0,0.0,0.0,0.0,0.0,0.0,0.0,0.0,0.0,0.0,0.0,0.0,0.0,0.0,0.0,0.0,0.0,0.0,0.0,0.0,0.0,0.0,0.0,0.0,0.0,0.0,0.0,0.0,0.0,0.0,0.0,2.2773,2.3862,2.5406,2.5507,2.5621,2.5837,2.5774,2.479,2.2829,0.0,0.0,0.0,0.0,0.0,0.0,0.0,0.0,0.0,0.0,0.0,0.0,0.0,0.0,0.0,0.0,0.0,0.0,0.0,0.0,0.0,0.0,0.0,0.0,0.0,0.0,0.0,0.0,0.0,0.0,0.0,0.0,0.0,0.0,0.0,0.0,0.0,0.0,1.913,1.9772,0.0,0.0,0.0,0.0,0.0,0.0,0.0,0.0,2.0361,0.0,0.0,0.0,0.0,0.0,0.0,0.0,0.0,0.0,0.0,0.0,0.0,0.0,0.0,0.0,0.0,0.0,0.0,0.0,0.0,0.0,0.0,0.0,0.0,0.0,0.0,0.0,0.0,0.0,0.0,0.0,0.0,0.0,0.0,0.0,0.0,0.0,0.0,0.0,0.0,0.0,0.0,0.0,0.0,0.0,0.0,0.0,0.0,0.0,0.0,0.0,0.0,0.0,0.0,0.0,0.0,2.2725,2.3498,2.4824,2.6649,2.6923,2.7011,2.6918,2.6492,2.5506,2.3915,0.0,0.0,0.0,0.0,0.0,0.0,0.0,0.0,0.0,0.0,0.0,0.0,0.0,0.0,0.0,0.0,0.0,0.0,0.0,0.0,0.0,0.0,0.0,0.0,0.0,0.0,0.0,0.0,0.0,0.0,0.0,0.0,0.0,0.0,0.0,0.0,0.0,0.0,0.0,2.0743,2.0763,0.0,0.0,0.0,0.0,0.0,0.0,0.0,0.0,2.2378,0.0,0.0,0.0,0.0,0.0,0.0,0.0,0.0,0.0,0.0,0.0,0.0,0.0,0.0,0.0,0.0,0.0,0.0,0.0,0.0,0.0,0.0,0.0,0.0,0.0,0.0,0.0,0.0,0.0,0.0,0.0,0.0,0.0,0.0,0.0,0.0,0.0,0.0,0.0,0.0,0.0,0.0,0.0,0.0,0.0,0.0,0.0,0.0,0.0,0.0,0.0,0.0,0.0,0.0,0.0,2.2902,2.4268,2.5635,2.6951,2.7191,2.7265,2.7178,2.6683,2.5671,0.0,0.0,0.0,0.0,0.0,0.0,0.0,0.0,0.0,0.0,0.0,0.0,0.0,0.0,0.0,0.0,0.0,0.0,0.0,0.0,0.0,0.0,0.0,0.0,0.0,0.0,0.0,0.0,0.0,0.0,0.0,0.0,0.0,0.0,0.0,0.0,0.0,0.0,0.0,0.0,2.1519,2.1926,2.1946,0.0,0.0,0.0,0.0,0.0,0.0,2.3417,2.3307,0.0,0.0,0.0,0.0,0.0,0.0,0.0,0.0,0.0,0.0,0.0,0.0,0.0,0.0,0.0,0.0,0.0,0.0,0.0,0.0,0.0,0.0,0.0,0.0,0.0,0.0,0.0,0.0,0.0,0.0,0.0,0.0,0.0,0.0,0.0,0.0,0.0,0.0,0.0,0.0,0.0,0.0,0.0,0.0,0.0,0.0,0.0,0.0,0.0,0.0,0.0,0.0,0.0,0.0,0.0,2.3134,2.4899,2.6218,2.6962,2.7135,2.7188,2.7141,2.6533,2.5561,0.0,0.0,0.0,0.0,0.0,0.0,0.0,0.0,0.0,0.0,0.0,0.0,0.0,0.0,0.0,0.0,0.0,0.0,0.0,0.0,0.0,0.0,0.0,0.0,0.0,0.0,0.0,0.0,0.0,0.0,0.0,0.0,0.0,0.0,0.0,0.0,0.0,0.0,0.0,0.0,0.0,2.3004,2.3278,2.2742,0.0,0.0,0.0,0.0,2.4156,2.445,0.0,0.0,0.0,0.0,0.0,0.0,0.0,0.0,0.0,0.0,0.0,0.0,0.0,0.0,0.0,0.0,0.0,0.0,0.0,0.0,0.0,0.0,0.0,0.0,0.0,0.0,0.0,0.0,0.0,0.0,0.0,0.0,0.0,0.0,0.0,0.0,0.0,0.0,0.0,0.0,0.0,0.0,0.0,0.0,0.0,0.0,0.0,0.0,0.0,0.0,0.0,0.0,0.0,0.0,0.0,0.0,2.3798,2.5222,2.6297,2.6968,2.7131,2.7136,2.7007,2.5992,2.5202,0.0,0.0,0.0,0.0,0.0,0.0,0.0,0.0,0.0,0.0,0.0,0.0,0.0,0.0,0.0,0.0,0.0,0.0,0.0,0.0,0.0,0.0,0.0,0.0,0.0,0.0,0.0,0.0,0.0,0.0,0.0,0.0,0.0,0.0,0.0,0.0,0.0,0.0,0.0,0.0,0.0,2.3357,2.4584,2.4133,2.3708,0.0,0.0,2.5561,2.5735,2.6309,0.0,0.0,0.0,0.0,0.0,0.0,0.0,0.0,0.0,0.0,0.0,0.0,0.0,0.0,0.0,0.0,0.0,0.0,0.0,0.0,0.0,0.0,0.0,0.0,0.0,0.0,0.0,0.0,0.0,0.0,0.0,0.0,0.0,0.0,0.0,0.0,0.0,0.0,0.0,0.0,0.0,0.0,0.0,0.0,0.0,0.0,0.0,0.0,0.0,0.0,0.0,0.0,0.0,0.0,0.0,2.3214,2.4048,2.5708,2.6701,2.6993,2.712,2.7144,2.7003,2.5894,2.4984,0.0,0.0,0.0,0.0,0.0,0.0,0.0,0.0,0.0,0.0,0.0,0.0,0.0,0.0,0.0,0.0,0.0,0.0,0.0,0.0,0.0,0.0,0.0,0.0,0.0,0.0,0.0,0.0,0.0,0.0,0.0,0.0,0.0,0.0,0.0,0.0,0.0,0.0,0.0,0.0,0.0,0.0,2.5439,2.5282,0.0,0.0,0.0,2.6009,2.6009,0.0,0.0,0.0,0.0,0.0,0.0,0.0,0.0,0.0,0.0,0.0,0.0,0.0,0.0,0.0,0.0,0.0,0.0,0.0,0.0,0.0,0.0,0.0,0.0,0.0,0.0,0.0,0.0,0.0,0.0,0.0,0.0,0.0,0.0,0.0,0.0,0.0,0.0,0.0,0.0,0.0,0.0,0.0,0.0,0.0,0.0,0.0,0.0,0.0,0.0,0.0,0.0,0.0,0.0,0.0,0.0,0.0,2.4601,2.6564,2.7586,2.7529,2.7689,2.7681,2.7502,2.6537,0.0,0.0,0.0,0.0,0.0,0.0,0.0,0.0,0.0,0.0,0.0,0.0,0.0,0.0,0.0,0.0,0.0,0.0,0.0,0.0,0.0,0.0,0.0,0.0,0.0,0.0,0.0,1.8138,0.0,0.0,0.0,0.0,0.0,0.0,0.0,0.0,0.0,0.0,0.0,0.0,0.0,0.0,2.5307,2.6151,2.6414,2.672,0.0,0.0,2.6577,2.6756,2.7815,2.7927,0.0,0.0,0.0,0.0,0.0,0.0,0.0,0.0,0.0,0.0,0.0,0.0,0.0,0.0,0.0,0.0,0.0,0.0,0.0,0.0,0.0,0.0,0.0,0.0,0.0,0.0,0.0,0.0,0.0,0.0,0.0,0.0,0.0,0.0,0.0,0.0,0.0,0.0,0.0,0.0,0.0,0.0,0.0,0.0,0.0,0.0,0.0,0.0,0.0,0.0,0.0,0.0,0.0,0.0,0.0,2.5908,2.8096,2.9124,2.8965,2.9146,2.9159,2.8951,2.8342,2.7244,0.0,0.0,0.0,0.0,0.0,0.0,0.0,0.0,0.0,0.0,0.0,0.0,0.0,0.0,0.0,0.0,0.0,0.0,0.0,0.0,0.0,0.0,0.0,0.0,0.0,0.0,0.0,0.0,0.0,0.0,0.0,0.0,0.0,0.0,0.0,0.0,0.0,0.0,0.0,0.0,0.0,2.5497,2.6846,2.7563,2.7968,0.0,0.0,2.8173,2.8783,2.9538,2.936,2.7283,0.0,0.0,0.0,0.0,0.0,0.0,0.0,0.0,0.0,0.0,0.0,0.0,0.0,0.0,0.0,0.0,0.0,0.0,0.0,0.0,0.0,0.0,0.0,0.0,0.0,0.0,0.0,0.0,0.0,0.0,0.0,0.0,0.0,0.0,0.0,0.0,0.0,0.0,0.0,0.0,0.0,0.0,0.0,0.0,0.0,0.0,0.0,0.0,0.0,0.0,0.0,0.0,0.0,2.5132,2.6251,2.8312,2.9314,2.9114,2.9175,2.914,2.8975,2.8342,2.7522,0.0,0.0,0.0,0.0,0.0,0.0,0.0,0.0,0.0,0.0,0.0,0.0,0.0,0.0,0.0,0.0,0.0,0.0,0.0,0.0,0.0,0.0,0.0,0.0,0.0,0.0,0.0,0.0,2.3067,2.3246,2.2732,0.0,0.0,0.0,0.0,0.0,0.0,0.0,0.0,0.0,0.0,2.6261,2.8078,2.8557,0.0,0.0,2.9386,2.9327,2.913,2.9341,2.8973,2.7367,2.6124,0.0,0.0,0.0,0.0,0.0,0.0,0.0,0.0,0.0,0.0,0.0,0.0,0.0,0.0,0.0,0.0,0.0,0.0,0.0,0.0,0.0,0.0,0.0,0.0,0.0,0.0,0.0,0.0,0.0,0.0,0.0,0.0,0.0,0.0,0.0,0.0,0.0,0.0,0.0,0.0,0.0,0.0,0.0,0.0,0.0,0.0,0.0,0.0,0.0,0.0,0.0,0.0,2.5505,2.6686,2.8895,2.9907,2.9706,2.9774,2.9716,2.9468,2.9057,2.8401,0.0,0.0,0.0,0.0,0.0,0.0,0.0,0.0,0.0,0.0,0.0,0.0,0.0,0.0,0.0,0.0,0.0,0.0,0.0,0.0,0.0,0.0,0.0,0.0,0.0,0.0,0.0,0.0,2.3738,2.3677,2.2259,0.0,0.0,0.0,0.0,0.0,0.0,0.0,0.0,0.0,0.0,2.7446,2.8903,2.9294,2.9536,2.9832,2.9708,2.9459,2.914,2.893,2.8541,2.7815,0.0,0.0,0.0,0.0,0.0,0.0,0.0,0.0,0.0,0.0,0.0,0.0,0.0,0.0,0.0,0.0,0.0,0.0,0.0,0.0,0.0,0.0,0.0,0.0,0.0,0.0,0.0,0.0,0.0,0.0,1.6001,0.0,0.0,0.0,0.0,0.0,0.0,0.0,0.0,0.0,0.0,0.0,0.0,0.0,0.0,0.0,0.0,0.0,0.0,0.0,0.0,0.0,0.0,2.6163,2.7374,3.0038,3.1305,3.105,3.1298,3.1174,3.0748,3.0925,3.0272,2.8665,0.0,0.0,0.0,0.0,0.0,0.0,0.0,0.0,0.0,0.0,0.0,0.0,0.0,0.0,0.0,0.0,0.0,0.0,0.0,0.0,0.0,0.0,0.0,0.0,0.0,0.0,2.144,2.2304,2.2596,0.0,0.0,0.0,0.0,0.0,0.0,0.0,0.0,0.0,0.0,2.7746,2.9019,2.9082,2.9706,2.9886,2.9272,2.8632,2.8379,2.9035,2.8557,2.8331,0.0,0.0,0.0,0.0,0.0,0.0,0.0,0.0,0.0,0.0,0.0,0.0,0.0,0.0,0.0,0.0,0.0,0.0,0.0,0.0,0.0,0.0,0.0,0.0,0.0,0.0,0.0,1.8839,1.8656,0.0,0.0,0.0,0.0,0.0,0.0,0.0,0.0,0.0,0.0,0.0,2.6056,2.6156,0.0,0.0,0.0,0.0,0.0,0.0,0.0,0.0,0.0,0.0,0.0,0.0,2.617,2.7387,3.0,3.1234,3.0918,3.0977,3.0896,3.068,3.0724,3.0119,2.8731,0.0,0.0,0.0,0.0,0.0,0.0,0.0,0.0,0.0,0.0,0.0,0.0,0.0,0.0,0.0,0.0,0.0,0.0,0.0,0.0,0.0,0.0,0.0,0.0,0.0,2.2502,0.0,0.0,0.0,0.0,0.0,0.0,0.0,0.0,0.0,0.0,0.0,2.6646,2.731,2.762,2.8093,2.8966,2.8932,2.919,0.0,0.0,0.0,0.0,0.0,0.0,0.0,0.0,0.0,0.0,0.0,0.0,0.0,0.0,2.6588,2.5243,2.5395,2.5728,2.5774,0.0,0.0,0.0,0.0,0.0,0.0,0.0,0.0,0.0,0.0,0.0,0.0,0.0,0.0,2.079,0.0,2.0464,0.0,0.0,0.0,0.0,0.0,0.0,0.0,0.0,2.6273,2.7355,2.8058,2.8141,2.8162,0.0,2.7488,2.6153,0.0,0.0,0.0,0.0,0.0,0.0,0.0,0.0,2.6119,2.7355,2.9878,3.1087,3.0814,3.0873,3.0806,3.0605,3.0612,3.0212,2.9384,2.8507,2.7294,0.0,0.0,0.0,0.0,0.0,0.0,0.0,0.0,0.0,0.0,0.0,0.0,0.0,0.0,0.0,0.0,0.0,0.0,0.0,0.0,0.0,0.0,0.0,2.3081,0.0,0.0,0.0,0.0,0.0,0.0,0.0,0.0,0.0,2.4484,2.6425,2.7946,2.836,2.8471,2.855,2.8634,0.0,0.0,0.0,0.0,0.0,0.0,0.0,2.8116,2.8163,2.8357,2.8515,2.8531,2.837,2.8305,2.8556,0.0,0.0,2.736,2.7462,2.7783,2.7799,2.7866,2.7921,2.7947,2.7991,2.8157,0.0,0.0,0.0,0.0,0.0,0.0,0.0,0.0,2.2526,2.2186,0.0,2.279,0.0,0.0,0.0,0.0,0.0,2.4243,0.0,0.0,3.0063,3.11,3.0633,3.0602,3.0624,3.0562,2.9157,2.8376,2.8131,2.6846,0.0,0.0,0.0,0.0,0.0,0.0,2.6075,2.7403,2.9839,3.0992,3.0784,3.0984,3.0925,3.0627,3.0612,3.0598,3.0554,2.9406,2.8731,2.8672,2.688,0.0,0.0,0.0,0.0,0.0,0.0,0.0,0.0,0.0,0.0,0.0,0.0,0.0,0.0,0.0,0.0,0.0,0.0,0.0,0.0,2.2786,0.0,0.0,0.0,0.0,0.0,0.0,0.0,0.0,0.0,0.0,2.5711,2.7708,2.9056,2.9006,0.0,0.0,0.0,0.0,3.0325,2.8292,2.8069,2.8146,2.8197,2.8171,2.8609,2.9892,0.0,0.0,3.1155,2.9746,2.8875,2.9465,2.9822,2.9798,2.9265,2.9239,2.9274,2.9298,2.9424,2.9431,2.9448,2.9615,2.9618,2.5457,0.0,0.0,0.0,0.0,2.2879,2.4148,2.5949,2.6347,2.6394,2.6194,2.5974,0.0,0.0,0.0,0.0,0.0,0.0,2.7374,2.8744,2.9976,3.0963,3.1726,3.1755,3.1787,3.1852,3.1441,3.111,3.0874,3.0475,2.8407,2.4807,0.0,0.0,0.0,0.0,2.6931,2.857,3.0117,3.0828,3.065,3.0709,3.0687,3.0612,3.0612,3.0612,3.0598,3.0241,2.9646,2.8752,2.8164,0.0,0.0,0.0,0.0,0.0,0.0,0.0,0.0,0.0,0.0,0.0,0.0,0.0,0.0,0.0,0.0,0.0,0.0,0.0,2.398,2.4313,2.3991,0.0,0.0,0.0,0.0,0.0,0.0,0.0,0.0,0.0,2.7257,2.8067,2.877,0.0,0.0,2.8201,2.7522,2.8171,2.872,2.8759,2.8787,0.0,0.0,2.9225,2.9115,2.9195,3.0181,3.099,3.0968,3.0937,3.0987,3.117,3.1272,3.1279,3.1177,3.138,3.165,3.2009,3.214,3.2152,3.2165,3.2184,3.2143,2.848,2.5991,2.4512,2.4388,2.5252,2.5633,2.6853,2.8587,2.8834,2.8822,2.8689,2.8675,2.8036,2.6876,2.6032,0.0,0.0,0.0,2.9049,3.0323,3.078,3.1433,3.2167,3.2261,3.233,3.2382,3.2287,3.2157,3.1974,3.1596,2.9987,2.7243,0.0,0.0,2.6028,2.6727,2.7741,2.9069,3.0178,3.0665,3.0612,3.0612,3.0612,3.0612,3.0612,3.0612,3.0612,3.0612,3.0241,2.9493,2.9196,2.8252,0.0,0.0,0.0,0.0,0.0,0.0,0.0,0.0,0.0,0.0,0.0,2.1899,0.0,0.0,0.0,0.0,2.4545,2.5035,2.5793,2.5457,0.0,0.0,0.0,0.0,0.0,0.0,0.0,2.3453,2.5053,2.6507,2.7425,2.7748,2.819,2.9011,2.8436,2.7711,2.7068,0.0,2.8662,2.8862,2.8976,2.9223,2.9771,2.9745,2.9682,2.9815,3.0513,3.1061,3.1113,3.1331,3.1465,3.1436,3.1313,3.1241,3.1429,3.1708,3.2082,3.2624,3.2755,3.2755,3.2733,3.274,3.2733,3.1137,2.9941,2.776,2.7455,2.84,2.8443,2.9234,3.0507,3.026,2.9935,2.9706,3.0785,3.0208,2.8445,2.8323,0.0,2.8928,2.9664,3.0627,3.1817,3.1959,3.2014,3.2028,3.2132,3.2223,3.2201,3.1959,3.184,3.1774,3.0945,3.0185,2.9606,2.9044,2.8106,2.6955,2.7733,2.8525,2.9253,3.0148,3.0612,3.0612,3.0612,3.0612,3.0612,3.0612,3.0612,3.0612,3.0612,3.0612,3.0583,3.0009,2.9385,2.868,0.0,0.0,0.0,0.0,0.0,0.0,0.0,0.0,0.0,0.0,0.0,0.0,0.0,0.0,0.0,2.6476,0.0,2.8012,2.6323,0.0,0.0,0.0,2.3104,2.3595,2.3818,2.4187,2.4766,0.0,0.0,2.6842,2.7096,2.7541,2.856,2.8771,2.8311,2.6826,2.8471,2.9561,2.8765,2.889,2.924,2.9711,2.9873,3.0256,3.1079,3.1403,3.1389,3.1367,3.1131,3.0871,3.0929,3.0507,3.0398,3.0841,3.1019,3.1109,3.1885,3.1948,3.1922,3.1964,3.1971,3.1977,3.1939,3.1349,3.087,3.0522,3.0348,3.0446,3.098,3.1729,3.1484,3.1428,3.1552,3.1713,3.131,3.0478,3.0458,3.0187,2.9717,2.9913,3.0108,3.033,3.0458,3.051,3.0525,3.0562,3.0615,3.0704,3.054,3.0434,3.0352,3.0609,3.0323,2.9576,2.9878,2.9652,2.8923,2.8872,2.943,3.0608,3.0608,3.0612,3.0612,3.0612,3.0612,3.0612,3.0612,3.0612,3.0612,3.0612,3.0612,3.059,3.0452,2.9849,2.8752,2.7351,0.0,0.0,0.0,0.0,0.0,0.0,0.0,0.0,0.0,2.2401,2.1959,0.0,2.5055,0.0,2.7721,2.8663,2.7875,2.7256,0.0,0.0,2.5121,2.4812,2.4936,2.5698,2.6151,2.5943,2.676,2.7444,2.7648,2.7785,2.8045,2.8556,2.8436,2.8125,2.7804,2.8742,2.9407,2.8987,2.9682,3.0222,2.9798,3.0063,3.0599,3.1278,3.1396,3.1402,3.141,3.1344,3.1255,3.1255,3.1172,3.1237,3.1543,3.1634,3.1801,3.2204,3.2109,3.1893,3.1893,3.1901,3.1901,3.2018,3.1248,3.1393,3.1025,3.0389,3.1139,3.1583,3.1744,3.169,3.1538,3.1298,3.1225,3.105,3.0785,3.0711,3.0405,2.9925,2.9827,2.9729,2.9675,2.9843,2.9898,2.9919,2.9973,3.0027,3.0111,2.9974,2.9859,2.9842,3.0365,3.0392,2.9924,3.0436,3.0512,3.0171,2.9704,3.0063,3.1295,3.1401,3.1446,3.1454,3.1438,3.1178,3.0619,3.0307,2.9885,2.9327,2.9043,2.8905,2.8898,2.8898,2.86,2.7888,2.6626,2.5147,0.0,0.0,0.0,0.0,0.0,0.0,0.0,0.0,0.0,0.0,0.0,2.5859,2.6229,2.7826,2.8506,2.7693,2.741,2.709,2.6659,2.6501,2.6537,2.6782,2.7342,2.7614,2.7349,2.7919,2.8298,2.8225,2.8274,2.8384,2.857,2.8435,2.8336,2.8358,2.8792,2.9172,2.9497,2.9949,3.0227,2.9956,3.0362,3.0795,3.1079,3.1171,3.1171,3.1171,3.1171,3.1171,3.1163,3.118,3.1288,3.1588,3.1547,3.158,3.186,3.1847,3.1821,3.2109,3.2184,3.2184,3.1781,3.0629,3.0785,3.0382,2.9729,3.108,3.1445,3.1167,3.1314,3.0925,3.0143,3.0158,3.0148,3.0099,2.9935,2.972,2.9506,2.9337,2.9239,2.9239,2.9456,2.9549,2.9543,2.9742,2.9825,2.9839,2.9754,2.9719,2.9748,3.0167,3.0319,3.0233,3.061,3.0755,3.0666,3.01,3.0389,3.1552,3.1963,3.2214,3.2288,3.2103,3.1489,3.0413,2.9667,2.8791,2.7726,2.7086,2.6779,2.68,2.6886,2.6952,2.701,2.5852,2.4947,0.0,2.3185,0.0,0.0,0.0,0.0,0.0,0.0,0.0,0.0,2.6193,2.6356,2.6811,2.7483,2.783,2.7656,2.7375,2.7416,2.791,2.789,2.8023,2.8527,2.8595,2.8595,2.8595,2.8595,2.8595,2.8581,2.8649,2.8725,2.8758,2.8866,2.8929,2.885,2.8844,2.9164,3.0235,2.9959,2.9965,3.0412,3.0764,3.0992,3.1061,3.1158,3.1061,3.1144,3.1122,3.1094,3.1094,3.1149,3.1249,3.1514,3.136,3.1315,3.1724,3.1843,3.197,3.2263,3.235,3.2441,3.1785,3.1161,3.119,3.0874,3.0359,3.0621,3.0785,3.0874,3.074,3.0382,2.989,3.0004,2.9689,2.9107,2.9144,2.8728,2.7932,2.7894,2.7883,2.7886,2.8083,2.8181,2.8216,2.8707,2.8943,2.8953,2.9251,2.94,2.9422,3.0031,2.9957,2.9289,2.9865,2.9949,2.9535,0.0,0.0,0.0,3.0729,3.0666,3.1203,3.0074,2.9358,2.9207,2.814,0.0,2.7524,2.6959,2.6694,2.6821,2.7266,0.0,0.0,0.0,0.0,0.0,0.0,0.0,0.0,0.0,0.0,0.0,2.5941,2.5659,2.574,2.6286,2.6944,2.7609,2.7823,2.8027,2.8356,2.8343,2.835,2.8458,2.844,2.8478,2.8595,2.8595,2.8595,2.8595,2.8595,2.8608,2.8649,2.9002,2.9331,2.935,2.974,3.003,3.0038,2.9618,2.9622,3.0245,3.031,3.0473,3.1029,3.1194,3.1423,3.1796,3.196,3.1937,3.1909,3.1909,3.1941,3.1909,3.1946,3.2039,3.2357,3.2402,3.2386,3.2849,3.3103,3.3067,3.2231,3.2035,3.2108,3.1309,0.0,3.0821,3.0501,0.0,3.0011,3.0065,3.0141,3.0049,2.9743,2.9298,2.9038,2.8776,2.8532,2.8452,2.8181,2.7794,2.7595,2.7672,2.7946,2.8056,2.8264,2.8553,2.8864,2.9,2.9013,2.9205,2.9292,2.9336,2.9914,2.9921,2.9404,2.9941,3.0004,2.9647,2.9539,3.0036,3.1094,3.1019,3.1161,3.1497,3.0788,3.0126,2.9556,0.0,0.0,0.0,0.0,0.0,0.0,0.0,0.0,0.0,0.0,0.0,2.7724,2.71,2.6881,2.7206,2.7214,2.7567,2.8346,2.8075,2.7384,2.6378,2.7154,2.7844,2.8206,2.8242,2.8341,2.8562,2.8595,2.8595,2.8595,2.8595,2.8595,2.8595,2.8595,2.8595,2.8636,2.8853,2.9045,2.9051,2.958,2.9925,2.9952,3.0201,3.0532,3.0739,3.0323,3.0174,3.0766,3.1124,3.1391,3.1653,3.1743,3.1807,3.2119,3.2187,3.2187,3.2187,3.2187,3.2187,3.2187,3.2187,3.2314,3.2601,3.2574,3.2556,3.2904,3.3002,3.2914,3.2375,3.256,3.2832,3.0791,3.0402,3.0394,3.0093,2.9635,2.9518,2.9347,2.9144,0.0,0.0,0.0,2.8023,2.7932,2.8159,2.8014,2.8044,2.8131,2.7924,2.8098,2.8568,2.8555,2.8821,2.9279,2.9401,2.9427,2.9431,2.9554,2.9593,2.9606,3.0049,3.0161,3.0012,3.0251,3.0282,3.0037,2.9876,3.0101,3.0702,3.1313,3.1707,3.1825,3.1568,3.0939,2.9931,2.9792,2.9343,2.8509,2.8453,2.8525,2.8709,2.8796,2.8913,2.9021,2.9138,2.9,2.8587,2.8536,2.8783,2.9327,2.9384,2.9644,3.0305,3.0081,2.9196,2.7499,2.8167,2.8659,2.8595,2.8595,2.8595,2.8595,2.8595,2.8595,2.8595,2.8595,2.8636,2.8731,2.8744,2.8826,2.8948,2.9382,2.967,2.9675,3.0166,3.0559,3.0581,3.0717,3.0866,3.1268,3.107,3.0943,3.1391,3.1793,3.2146,3.2187,3.216,3.2187,3.2196,3.2187,3.2187,3.2187,3.2187,3.2187,3.2187,3.2187,3.2314,3.253,3.2399,3.2305,3.2556,3.2363,3.2182,3.2417,3.2889,3.3199,3.0791,3.0732,3.0717,3.0515,3.0138,2.9562,2.8741,2.7858,2.8409,2.8287,2.7676,2.7759,2.7739,2.7641,2.8292,2.8503,2.8397,2.8826,2.9096,2.9183,2.9161,2.9223,2.9318,2.9766,2.9992,3.004,3.0525,3.077,3.0783,3.0826,3.0775,3.0581,3.0466,3.0206,2.9866,2.9821,2.985,2.995,2.9891,3.0175,3.077,2.9526,2.8816,2.8691,2.7804,2.7601,2.8292,2.7848,2.7873,2.866,2.9196,2.974,3.0307,3.0814,3.1336,3.1786,3.1821,3.1865,3.1931,3.196,3.1755,3.1268,3.1168,3.0478,2.8989,2.8947,2.8916,2.8657,2.8646,2.8595,2.8595,2.8641,2.8644,2.8649,2.8622,2.8785,2.927,2.933,2.9495,2.9904,3.0215,3.0231,3.0212,3.0698,3.1076,3.1228,3.1464,3.1929,3.1956,3.201,3.197,3.2051,3.2132,3.2187,3.2187,3.2187,3.2187,3.2187,3.2187,3.2187,3.2187,3.2187,3.2187,3.2187,3.215,3.2169,3.2237,3.2232,3.2123,3.2155,3.1928,3.1736,3.1525,3.1599,3.1964,3.0962,3.0843,3.1194,3.1295,3.1166,3.0553,2.9811,2.9086,2.8978,2.858,2.8032,2.8082,2.8291,2.8589,2.8917,2.9013,2.9013,2.9219,2.9466,2.9714,2.9727,2.9893,3.0234,3.0486,3.0594,3.0598,3.0865,3.1005,3.1005,3.1005,3.0892,3.0688,3.04,3.0097,2.9821,2.9779,2.9779,2.9779,2.97,2.9836,3.0149,2.9475,2.9145,2.9206,2.9022,2.9205,2.9697,2.9848,3.0105,3.052,3.0824,3.1263,3.197,3.2271,3.261,3.3011,3.3043,3.2875,3.2526,3.2128,3.1764,3.141,3.0742,3.0224,2.9865,2.9818,2.9752,2.9591,2.9299,2.9223,2.9513,2.9282,2.9215,2.9544,2.9577,2.9568,2.9507,2.9509,2.9465,2.9438,2.9674,2.9858,2.9862,3.0385,3.0914,3.1219,3.1783,3.2169,3.2169,3.2178,3.2178,3.2187,3.2187,3.2187,3.2187,3.2187,3.2187,3.2187,3.2187,3.2187,3.2187,3.22,3.2191,3.2159,3.195,3.1685,3.167,3.1357,3.1218,3.1162,3.1093,3.088,3.0752,3.0705,3.1043,3.1553,3.1417,3.1955,3.2122,3.1966,3.1527,3.1049,3.0515,2.985,2.9311,2.8978,2.8734,2.8922,2.942,2.9467,2.9542,2.9626,2.9664,2.9924,3.0288,3.0292,3.0555,3.096,3.0968,3.0958,3.0986,3.0949,3.0949,3.0983,3.0949,3.084,3.0609,3.0324,3.0065,2.9879,2.9821,2.9779,2.9792,2.9917,2.993,2.9801,2.9779,2.9779,2.9827,3.0343,3.0739,3.0923,3.1517,3.191,3.2096,3.2105,3.2367,3.2911,3.2972,3.3095,3.3384,3.3262,3.3044,3.2659,3.1928,3.1533,3.1601,3.0509,3.0033,3.0497,3.0466,3.0402,3.0325,2.981,2.9662,2.9953,2.96,2.9522,3.0107,3.005,2.9855,2.972,2.9591,2.9381,2.8997,2.933,2.963,2.9688,3.001,3.0459,3.0942,3.1459,3.174,3.1772,3.1758,3.1772,3.1827,3.1986,3.2178,3.2187,3.2028,3.1955,3.1977,3.1808,3.1772,3.1863,3.2049,3.217,3.2141,3.1938,3.1679,3.1419,3.1076,3.0865,3.0894,3.0781,3.0504,3.0409,3.0379,3.0349,3.2923,3.3092,3.3236,3.2817,3.211,3.2105,3.176,3.1138,3.0528,3.0452,3.0525,2.9654,2.9275,2.9388,2.9836,3.004,3.0098,3.0604,3.0839,3.0878,3.0927,3.0944,3.0986,3.0821,3.083,3.0949,3.0811,3.0827,3.0958,3.083,3.0638,3.0444,3.0387,3.0289,3.0091,2.9923,2.9804,2.9804,3.0284,3.0294,2.9817,2.9779,2.9779,2.9779,2.9879,3.0212,3.0833,3.0979,3.1337,3.2024,3.2046,3.211,3.2182,3.2214,3.2496,3.3138,3.261,3.2485,3.2975,3.2283,3.187,3.218,3.1276,3.0779,3.1008,3.0598,3.0338,3.028,2.9851,2.9575,2.9531,2.9048,2.9002,2.961,2.9238,2.9092,2.9951,2.9778,2.9581,3.0115,2.9967,3.0212,3.0031,3.0136,3.0279,3.0346,3.0564,3.0709,3.068,3.068,3.0661,3.0775,3.1398,3.2041,3.2019,3.1653,3.1402,3.1287,3.0872,3.095,3.1363,3.1836,3.2097,3.2074,3.2271,3.2205,3.1905,3.1752,3.1615,3.1223,3.0989,3.0784,3.0499,3.0363,3.0226,3.4208,3.3781,3.4189,3.4255,3.3969,3.3533,3.3168,3.284,3.1838,3.1486,3.1492,3.068,3.0261,3.015,3.0487,3.0628,3.065,3.0891,3.1005,3.1005,3.1005,3.1005,3.0986,3.0792,3.0755,3.0798,3.0736,3.0726,3.0811,3.0858,3.0723,3.0473,3.0708,3.0826,3.0748,3.0748,3.0826,3.0988,3.104,3.0982,3.0753,3.0422,3.0271,3.0244,2.9967,2.9914,3.0203,3.026,3.0403,3.0712,3.0731,3.0953,3.1369,3.1397,3.1733,3.2443,3.2155,3.206,3.2344,3.1669,3.1341,3.1517,3.0585,3.0193,3.0601,3.012,2.9913,3.0212,2.9799,2.9551,2.9835,2.9392,2.9292,2.9796,2.9709,2.9631,2.9732,2.9577,2.9416,2.9287,2.9233,2.9265,2.9282,2.9555,2.9736,2.9822,3.0021,3.0235,3.0282,3.0301,3.0301,3.0368,3.0784,3.1022,3.1101,3.0887,3.0819,3.1002,3.0942,3.0971,3.1435,3.1736,3.1966,3.1937,3.1989,3.1891,3.1392,3.1046,3.084,3.0869,3.0792,3.0408,3.0232,3.0211,3.0062,3.5783,3.5073,3.5202,3.5426,3.5651,3.4869,3.4593,3.4495,3.3269,3.2554,3.2272,3.1768,3.1226,3.0764,3.0902,3.1005,3.0996,3.093,3.0911,3.0911,3.0911,3.0911,3.0892,3.0792,3.0717,3.0773,3.0713,3.0679,3.0673,3.1056,3.1,3.0762,3.1176,3.1474,3.1523,3.1476,3.1508,3.1757,3.168,3.1612,3.1562,3.1238,3.0974,3.0799,3.0435,3.0241,3.0241,3.0251,3.0241,3.0253,3.0115,3.0255,3.0767,3.0669,3.0865,3.1405,3.1539,3.1558,3.1535,3.0852,3.0513,3.0613,2.9762,2.9396,2.9813,2.9494,2.9457,2.99,2.9503,2.9372,2.988,2.9503,2.9438,2.9957,2.9928,2.9649,2.9455,2.9282,2.8969,2.858,2.862,2.85,2.857,2.8895,2.9157,2.9216,2.9494,2.9803,2.9813,2.9765,2.9802,3.0005,3.0033,3.022,3.0426,3.0416,3.0552,3.0812,3.0928,3.0896,3.1557,3.1716,3.1871,3.1843,3.1535,3.1405,3.1431,3.0924,3.0592,3.0561,3.0538,3.0572,3.0716,3.0587,3.0574,3.7783,3.7277,3.6299,3.6128,3.6477,3.5881,3.58,3.5856,3.4691,3.3705,3.2943,3.2801,3.2055,3.0773,3.0911,3.0983,3.0986,3.0811,3.0736,3.0726,3.0704,3.0717,3.0707,3.0698,3.077,3.0883,3.0764,3.0635,3.0528,3.1302,3.1555,3.1231,3.1782,3.2167,3.2257,3.1828,3.1577,3.1932,3.2106,3.2177,3.2167,3.2129,3.1876,3.1472,3.1321,3.1256,3.1281,3.1308,3.1306,3.1308,3.0821,3.0612,3.0612,3.0193,3.0,3.0081,3.0602,3.0936,3.0812,2.9912,2.9545,3.0024,2.9253,2.8806,2.9331,2.8941,2.8895,2.9389,2.8932,2.8855,2.9282,2.8981,2.8855,2.9311,2.8951,2.8912,2.9331,2.8882,2.859,2.851,2.85,2.85,2.85,2.851,2.861,2.862,2.863,2.8699,2.8776,2.8697,2.8911,2.9272,2.949,2.9751,3.0718,3.0547,3.0478,3.0759,3.0754,3.0483,3.0971,3.1437,3.1663,3.1914,3.2035,3.1987,3.1758,3.1596,3.1499,3.1429,3.1381,3.1404,3.1247,3.1512,3.1453,3.8734,3.7992,3.7375,3.7047,3.689,3.6592,3.6298,3.5929,3.5259,3.4476,3.3596,3.2671,3.1919,3.1381,3.0838,3.0757,3.0968,3.0802,3.0698,3.0688,3.0562,3.0571,3.0666,3.0581,3.0539,3.0619,3.0666,3.085,3.1132,3.1603,3.1867,3.2052,3.2531,3.2916,3.3083,3.2988,3.2923,3.3001,3.2995,3.2914,3.2786,3.2765,3.2665,3.2462,3.1773,3.1406,3.1406,3.1406,3.1406,3.1406,3.1198,3.111,3.1085,3.0932,3.0809,3.0803,3.0628,3.0511,3.0405,2.9519,2.903,2.9231,2.8833,2.8592,2.8746,2.8627,2.8598,2.8727,2.8669,2.864,2.8717,2.8608,2.858,2.8727,2.8649,2.8578,2.8714,2.8618,2.85,2.85,2.85,2.85,2.85,2.85,2.85,2.85,2.85,2.85,2.85,2.85,2.8717,2.9137,2.9326,2.9687,3.0793,3.0484,3.0285,3.0655,3.0807,3.1002,3.1363,3.1524,3.1742,3.1761,3.2081,3.2086,3.168,3.168,3.1705,3.1705,3.1705,3.1705,3.1705,3.1705,3.1705,3.9431,3.8829,3.8409,3.8016,3.7642,3.7443,3.6981,3.636,3.5819,3.508,3.4166,3.3152,3.251,3.2037,3.1357,3.1101,3.1189,3.0761,3.0537,3.0571,3.04,3.0397,3.0562,3.0543,3.0489,3.0562,3.0822,3.1129,3.1468,3.2058,3.2488,3.2695,3.3224,3.3609,3.3811,3.3767,3.3736,3.3755,3.3598,3.3398,3.324,3.3249,3.3229,3.3021,3.2399,3.1998,3.1959,3.1959,3.1949,3.1934,3.1763,3.1585,3.1434,3.1406,3.1406,3.1348,3.0948,3.0645,3.0578,2.9956,2.9517,2.9434,2.9088,2.8843,2.8761,2.8609,2.8512,2.85,2.85,2.85,2.85,2.85,2.85,2.85,2.85,2.85,2.85,2.851,2.85,2.85,2.85,2.85,2.85,2.85,2.85,2.85,2.85,2.85,2.85,2.8691,2.8955,2.9459,2.9783,3.0263,3.1022,3.0999,3.0812,3.1106,3.1168,3.1391,3.1513,3.1645,3.1705,3.1705,3.1705,3.1705,3.1705,3.1705,3.1705,3.1705,3.1705,3.1705,3.1705,3.1705,3.175,3.9876,3.9821,3.9421,3.9011,3.8689,3.8358,3.794,3.7282,3.6562,3.5634,3.4679,3.4536,3.373,3.2837,3.23,3.2096,3.1657,3.0716,3.0302,3.0406,3.0209,3.0219,3.0397,3.0562,3.0711,3.0764,3.1232,3.1425,3.1495,3.2731,3.3388,3.3415,3.3815,3.4129,3.4361,3.3974,3.3863,3.3971,3.3821,3.3609,3.3462,3.3566,3.3481,3.3208,3.3203,3.3176,3.3057,3.3013,3.2952,3.2927,3.2491,3.1953,3.1635,3.1547,3.1484,3.1547,3.1424,3.1399,3.1366,3.1111,3.0754,3.0565,3.0019,2.9504,2.9325,2.8939,2.8645,2.8609,2.8595,2.8558,2.8524,2.85,2.85,2.85,2.85,2.85,2.85,2.85,2.85,2.85,2.85,2.85,2.85,2.85,2.85,2.85,2.85,2.8548,2.8645,2.8933,2.9471,3.0024,3.0371,3.0791,3.1273,3.1681,3.1657,3.1657,3.1596,3.1657,3.1633,3.1705,3.1705,3.1705,3.1705,3.1705,3.1705,3.1705,3.1705,3.1705,3.1705,3.1705,3.1705,3.1739,3.1838,4.0461,4.0009,3.9825,3.9604,3.9312,3.8854,3.8315,3.7768,3.7244,3.6329,3.523,3.4737,3.4058,3.3262,3.2617,3.2281,3.2119,3.1136,3.0567,3.0394,3.0065,3.0001,3.0209,3.041,3.0752,3.1203,3.1418,3.1903,3.2584,3.3275,3.3737,3.4027,3.4202,3.4345,3.4387,3.4251,3.4181,3.4081,3.4023,3.386,3.363,3.3668,3.363,3.3524,3.3439,3.3418,3.3492,3.3261,3.3124,3.309,3.2927,3.2727,3.2589,3.2575,3.2562,3.2514,3.2152,3.1964,3.188,3.1452,3.1123,3.0927,3.0478,3.0165,3.0049,2.9758,2.941,2.9124,2.9051,2.8931,2.8597,2.85,2.8512,2.85,2.85,2.85,2.85,2.85,2.85,2.85,2.85,2.85,2.85,2.85,2.85,2.85,2.85,2.8575,2.8959,2.9184,2.9699,3.0468,3.0815,3.1116,3.1488,3.1705,3.1705,3.1705,3.1705,3.1705,3.1705,3.1705,3.1705,3.1705,3.1705,3.1705,3.1705,3.1705,3.1705,3.1705,3.1705,3.1705,3.1705,3.1783,3.1893,4.0879,4.0486,4.0325,4.002,3.9656,3.9246,3.8719,3.8092,3.7524,3.6753,3.5842,3.5077,3.4539,3.3973,3.3094,3.2742,3.2704,3.1507,3.0992,3.0928,3.0113,2.9924,3.011,3.0304,3.0727,3.1361,3.1686,3.2312,3.3219,3.3681,3.4071,3.4358,3.4387,3.4387,3.4387,3.4387,3.434,3.4215,3.4202,3.4087,3.3909,3.3906,3.3871,3.3736,3.3675,3.3685,3.3681,3.3377,3.3219,3.3197,3.3145,3.3113,3.3113,3.3088,3.3113,3.3038,3.2778,3.2541,3.248,3.2147,3.1776,3.1636,3.1232,3.0868,3.0683,3.0442,3.0008,2.9685,2.9591,2.9388,2.8921,2.8801,2.8717,2.8512,2.85,2.85,2.85,2.85,2.85,2.85,2.85,2.85,2.85,2.85,2.85,2.85,2.8512,2.8683,2.9172,2.9483,3.012,3.0708,3.1092,3.1369,3.1621,3.1705,3.1705,3.1705,3.1705,3.1705,3.1705,3.1705,3.1705,3.1705,3.1705,3.1705,3.1705,3.1705,3.1705,3.1705,3.1705,3.1761,3.1794,3.1871,3.2016,4.118,4.1247,4.0884,4.0396,3.988,3.9679,3.9109,3.8327,3.7575,3.7019,3.6492,3.5664,3.5195,3.4882,3.3834,3.3442,3.3308,3.2019,3.1654,3.1745,3.091,3.018,3.0136,3.04,3.0849,3.1394,3.2124,3.2784,3.3441,3.4014,3.4387,3.4397,3.4387,3.4387,3.4387,3.4387,3.4387,3.4366,3.4377,3.4285,3.4126,3.4275,3.4189,3.3808,3.3949,3.3971,3.381,3.3556,3.3386,3.3356,3.3176,3.3113,3.3113,3.3113,3.3113,3.3113,3.309,3.3052,3.3088,3.293,3.2819,3.2576,3.2132,3.1769,3.1359,3.094,3.0533,3.023,3.0164,2.9928,2.9484,2.934,2.9112,2.8657,2.8548,2.8512,2.85,2.85,2.85,2.85,2.85,2.85,2.85,2.85,2.85,2.8524,2.8561,2.8919,2.9364,2.9855,3.0349,3.0865,3.1369,3.1501,3.1705,3.1705,3.1705,3.1705,3.1705,3.1705,3.1705,3.1705,3.1705,3.1705,3.1705,3.1705,3.1705,3.1705,3.1705,3.1705,3.1738,3.1816,3.1904,3.2014,3.2212,4.1801,4.1231,4.1174,4.0896,4.0419,3.9967,3.9454,3.8913,3.8264,3.7473,3.6746,3.6179,3.5647,3.5175,3.4581,3.4272,3.3891,3.3034,3.2652,3.2782,3.2006,3.0925,3.0391,3.0719,3.127,3.189,3.2728,3.3511,3.3908,3.4225,3.4387,3.4387,3.4387,3.4387,3.4387,3.4387,3.4387,3.4387,3.4387,3.4387,3.433,3.4364,3.4356,3.4251,3.4149,3.4149,3.4157,3.3829,3.3462,3.3197,3.3145,3.3113,3.3124,3.3113,3.3113,3.3113,3.3113,3.3113,3.3113,3.3113,3.3058,3.2982,3.2646,3.2447,3.2327,3.1846,3.1393,3.102,3.0778,3.0478,3.0045,2.9878,2.9625,2.915,2.8777,2.8536,2.85,2.85,2.85,2.85,2.85,2.85,2.85,2.85,2.85,2.8558,2.8835,2.9232,2.9711,3.024,3.0744,3.1224,3.1633,3.1669,3.1705,3.1705,3.1705,3.1705,3.1705,3.1705,3.1705,3.1705,3.1705,3.1705,3.1705,3.1705,3.1705,3.1705,3.1705,3.1705,3.1827,3.1926,3.208,3.2212,3.2452,4.208,4.1671,4.1315,4.1071,4.0818,4.0118,3.9695,3.9385,3.864,3.7989,3.7319,3.6654,3.6077,3.5487,3.5085,3.4702,3.4315,3.3569,3.3393,3.3563,3.2902,3.1773,3.0864,3.095,3.143,3.2151,3.3024,3.3698,3.4155,3.4345,3.4387,3.4387,3.4387,3.4387,3.4387,3.4387,3.4387,3.4387,3.4387,3.4387,3.4387,3.4387,3.4387,3.4377,3.4275,3.4275,3.4222,3.3905,3.3577,3.3366,3.3219,3.3145,3.3208,3.3145,3.3113,3.3113,3.3113,3.3113,3.3113,3.3113,3.3113,3.3092,3.2941,3.2833,3.2678,3.2407,3.2092,3.1774,3.1585,3.1262,3.0793,3.0451,3.0068,2.9661,2.915,2.8753,2.8539,2.85,2.85,2.85,2.85,2.85,2.85,2.85,2.85,2.8597,2.8945,2.9436,2.9976,3.0564,3.108,3.1489,3.1705,3.1705,3.1705,3.1705,3.1705,3.1705,3.1705,3.1705,3.1705,3.1705,3.1705,3.1705,3.1705,3.1705,3.1705,3.1705,3.1705,3.1761,3.1904,3.207,3.2224,3.243,3.268,4.2159,4.229,4.1466,4.1163,4.1065,4.0325,3.999,3.977,3.9015,3.8432,3.803,3.7215,3.6515,3.5944,3.5405,3.4928,3.4467,3.3802,3.3868,3.3894,3.3474,3.2493,3.1724,3.1416,3.1701,3.229,3.2944,3.3659,3.4181,3.4356,3.4387,3.4387,3.4387,3.4387,3.4387,3.4387,3.4387,3.4387,3.4387,3.4387,3.4387,3.4387,3.4387,3.4387,3.4377,3.4306,3.416,3.3926,3.3744,3.3765,3.3345,3.3197,3.3315,3.3176,3.3111,3.3113,3.3113,3.3113,3.3113,3.3113,3.3113,3.3102,3.3102,3.3016,3.2799,3.2667,3.2536,3.2344,3.2397,3.205,3.1637,3.0961,3.0503,3.0201,2.973,2.9184,2.8799,2.8582,2.85,2.85,2.85,2.85,2.85,2.85,2.85,2.8582,2.9027,2.9663,3.0215,3.0767,3.1212,3.1609,3.1705,3.1705,3.1705,3.1705,3.1705,3.1705,3.1705,3.1705,3.1705,3.1705,3.1705,3.1705,3.1705,3.1705,3.1705,3.1705,3.1705,3.1805,3.1937,3.2136,3.2333,3.2604,3.2874,4.263,4.2008,4.2081,4.1729,4.1214,4.0978,4.0557,3.999,3.9738,3.9079,3.8334,3.7671,3.7072,3.6484,3.5689,3.5134,3.497,3.4421,3.4289,3.423,3.3581,3.3549,3.3325,3.2865,3.2502,3.2798,3.3485,3.3978,3.4168,3.4314,3.4387,3.4387,3.4387,3.4387,3.4387,3.4387,3.4387,3.4387,3.4387,3.4387,3.4387,3.4387,3.4387,3.4387,3.4387,3.4377,3.4304,3.4139,3.4097,3.401,3.3545,3.3167,3.3208,3.3156,3.3113,3.3113,3.3113,3.3113,3.3113,3.3113,3.3113,3.3113,3.3113,3.3081,3.3027,3.282,3.2712,3.2604,3.2484,3.2368,3.2153,3.1483,3.11,3.0846,3.0346,2.9902,2.9641,2.9003,2.8597,2.8536,2.8524,2.85,2.85,2.85,2.8536,2.8631,2.9146,2.9843,3.0383,3.0887,3.1297,3.1634,3.1705,3.1705,3.1705,3.1705,3.1705,3.1705,3.1705,3.1705,3.1705,3.1705,3.1705,3.1705,3.1705,3.1705,3.1705,3.1705,3.1705,3.1849,3.1992,3.2235,3.2475,3.2766,3.2961,4.2878,4.2503,4.2368,4.1971,4.1463,4.1209,4.0819,4.033,4.0007,3.9609,3.9005,3.8304,3.7618,3.7072,3.6275,3.5792,3.5447,3.5004,3.4627,3.4382,3.3934,3.4009,3.4325,3.4168,3.3824,3.3519,3.3684,3.3953,3.4118,3.4296,3.4387,3.4387,3.4387,3.4387,3.4387,3.4387,3.4387,3.4387,3.4387,3.4387,3.4387,3.4387,3.4387,3.4387,3.4387,3.4387,3.4377,3.4202,3.417,3.4065,3.3622,3.3292,3.3326,3.3197,3.3124,3.3113,3.3113,3.3113,3.3113,3.3113,3.3113,3.3113,3.3113,3.3113,3.3092,3.2962,3.2907,3.2887,3.2801,3.2703,3.2537,3.2253,3.1881,3.1501,3.1005,3.0586,3.0332,2.9532,2.8873,2.8801,2.8669,2.8548,2.85,2.85,2.8512,2.8573,2.9003,2.9687,3.0203,3.0707,3.1226,3.1549,3.1658,3.1705,3.1705,3.1705,3.1705,3.1705,3.1705,3.1705,3.1705,3.1705,3.1705,3.1705,3.1705,3.1705,3.1705,3.1705,3.1761,3.1915,3.2091,3.2332,3.2595,3.2842,3.3006,4.3087,4.3114,4.2572,4.2136,4.1751,4.1316,4.0995,4.0716,4.0185,3.9944,3.9813,3.8911,3.8318,3.7655,3.7072,3.6492,3.5888,3.5397,3.4912,3.4595,3.4374,3.4462,3.4665,3.4868,3.496,3.451,3.4277,3.4202,3.416,3.4296,3.4387,3.4387,3.4387,3.4387,3.4387,3.4387,3.4387,3.4387,3.4387,3.4387,3.4387,3.4387,3.4387,3.4387,3.4387,3.4387,3.4366,3.4264,3.4181,3.4118,3.3728,3.363,3.3611,3.3358,3.3135,3.3145,3.3133,3.3113,3.3113,3.3113,3.3113,3.3113,3.3113,3.2961,3.2864,3.2918,3.2907,3.2874,3.281,3.2973,3.2776,3.2595,3.2424,3.2123,3.1661,3.1337,3.0991,3.0216,2.9701,2.9196,2.8955,2.8787,2.8585,2.85,2.85,2.8585,2.9015,2.9472,3.0,3.054,3.1069,3.1525,3.1658,3.1705,3.1705,3.1705,3.1705,3.1705,3.1705,3.1705,3.1705,3.1705,3.1705,3.1705,3.1705,3.1705,3.1705,3.1705,3.1805,3.1981,3.2179,3.241,3.266,3.2919,3.3027,4.337,4.2943,4.3004,4.2745,4.2246,4.1796,4.1384,4.1076,4.068,4.026,3.9855,3.9706,3.9052,3.8306,3.7685,3.6905,3.6063,3.5503,3.5169,3.4928,3.4666,3.4639,3.5169,3.5289,3.5557,3.5886,3.5445,3.4793,3.4322,3.4285,3.4387,3.4387,3.4387,3.4387,3.4387,3.4387,3.4387,3.4387,3.4387,3.4387,3.4387,3.4387,3.4387,3.4387,3.4387,3.4387,3.4387,3.4366,3.4356,3.4324,3.4107,3.4026,3.3907,3.3475,3.3251,3.3249,3.3165,3.3092,3.2961,3.3081,3.3102,3.3113,3.3016,3.2602,3.2329,3.2548,3.2635,3.2494,3.2722,3.3081,3.3015,3.2853,3.2702,3.2513,3.2322,3.2104,3.1906,3.1336,3.0403,2.9711,2.9357,2.8955,2.8691,2.85,2.85,2.8573,2.8859,2.9328,2.9843,3.0395,3.0949,3.1357,3.1693,3.1705,3.1705,3.1705,3.1705,3.1705,3.1705,3.1705,3.1705,3.1705,3.1705,3.1705,3.1705,3.1705,3.1705,3.1705,3.1816,3.1983,3.2213,3.2464,3.268,3.2896,3.3049,4.3656,4.3228,4.3205,4.284,4.2305,4.2081,4.1621,4.1105,4.0925,4.0633,4.0291,4.0011,3.9678,3.9046,3.8276,3.7354,3.643,3.5792,3.5447,3.5146,3.4708,3.4638,3.5262,3.5354,3.5753,3.6111,3.6041,3.5609,3.4767,3.4478,3.447,3.4387,3.4387,3.4387,3.4387,3.4387,3.4387,3.4387,3.4387,3.4387,3.4387,3.4387,3.4387,3.4387,3.4387,3.4387,3.4387,3.4387,3.4387,3.4356,3.4212,3.4191,3.4065,3.3791,3.3398,3.3377,3.3219,3.283,3.2613,3.2689,3.2896,3.2362,3.2351,3.2143,3.1845,3.2011,3.2275,3.2516,3.2624,3.3113,3.3092,3.2972,3.2864,3.2712,3.2615,3.2517,3.2359,3.2029,3.1248,3.0271,2.9673,2.9176,2.8621,2.85,2.85,2.8619,2.8763,2.9172,2.9665,3.006,3.054,3.114,3.1477,3.1657,3.1669,3.1705,3.1705,3.1705,3.1705,3.1705,3.1705,3.1705,3.1705,3.1705,3.1705,3.1705,3.1705,3.1717,3.1838,3.1983,3.2224,3.2464,3.268,3.2874,3.3027,4.3861,4.3418,4.3304,4.2873,4.2328,4.2221,4.1858,4.1287,4.1053,4.089,4.071,4.0254,4.0005,3.9658,3.8802,3.7778,3.696,3.6399,3.5832,3.535,3.4847,3.4673,3.4812,3.5324,3.5784,3.5947,3.6496,3.6438,3.568,3.507,3.4727,3.4665,3.4582,3.4387,3.4387,3.4387,3.4387,3.4387,3.4387,3.4387,3.4387,3.4387,3.4387,3.4387,3.4387,3.4387,3.4387,3.4387,3.4387,3.4356,3.4285,3.4243,3.4293,3.3987,3.3704,3.3537,3.3315,3.2709,3.2492,3.2592,3.283,3.2306,3.1779,3.1547,3.1281,3.1325,3.1669,3.2559,3.3059,3.3102,3.3113,3.3102,3.2993,3.2874,3.2799,3.2745,3.2626,3.236,3.1974,3.1063,3.015,2.946,2.8939,2.85,2.85,2.85,2.8655,2.8941,2.9374,2.9436,2.9928,3.072,3.1224,3.1489,3.1621,3.1705,3.1705,3.1705,3.1705,3.1705,3.1705,3.1705,3.1705,3.1705,3.1705,3.1705,3.1705,3.1738,3.1882,3.2036,3.2246,3.2497,3.2799,3.295,3.307,4.386,4.326,4.3415,4.3101,4.2544,4.2302,4.2162,4.1964,4.1333,4.0984,4.0931,4.0698,4.0297,3.9697,3.8819,3.8264,3.7778,3.6974,3.6266,3.58,3.534,3.4864,3.4647,3.5307,3.5622,3.5831,3.6483,3.6811,3.6513,3.5908,3.5558,3.5437,3.4858,3.4439,3.4582,3.4449,3.4387,3.4387,3.4387,3.4387,3.4387,3.4387,3.4387,3.4387,3.4387,3.4387,3.4387,3.4387,3.4387,3.4387,3.4366,3.4366,3.4356,3.4191,3.4076,3.3897,3.3643,3.3315,3.3032,3.3056,3.3015,3.2514,3.1966,3.1236,3.0632,3.052,3.0913,3.168,3.2536,3.3081,3.3113,3.3113,3.3068,3.3049,3.3006,3.3016,3.2952,3.2745,3.2335,3.1667,3.0688,2.9972,2.9367,2.8891,2.85,2.85,2.8561,2.8835,2.9076,2.9184,2.9388,3.0192,3.0792,3.1092,3.1381,3.15,3.1645,3.1657,3.1705,3.1705,3.1705,3.1705,3.1705,3.1705,3.1705,3.1705,3.1705,3.1794,3.1937,3.2091,3.2268,3.2616,3.2982,3.3081,3.3102,4.4076,4.3394,4.3452,4.3155,4.2626,4.2585,4.2438,4.2162,4.1853,4.1422,4.1071,4.0989,4.0592,3.9857,3.9096,3.8615,3.8123,3.7222,3.6608,3.629,3.5832,3.5317,3.5039,3.523,3.5465,3.5724,3.6201,3.6954,3.7005,3.6818,3.6379,3.6261,3.5585,3.5175,3.4981,3.4613,3.4449,3.4387,3.4387,3.4387,3.4387,3.4387,3.4387,3.4387,3.4387,3.4387,3.4387,3.4387,3.4387,3.4387,3.4387,3.4387,3.4387,3.4314,3.4275,3.4243,3.3992,3.3492,3.2902,3.3108,3.3056,3.2437,3.1569,3.0385,2.9738,2.9897,3.0554,3.1536,3.2514,3.3015,3.3102,3.3113,3.3113,3.3113,3.3113,3.3113,3.3092,3.3015,3.2669,3.1965,3.1232,3.0464,2.9644,2.8963,2.857,2.85,2.85,2.8643,2.8895,2.91,2.934,2.9713,3.0216,3.0612,3.0936,3.1176,3.144,3.1536,3.1694,3.1694,3.1705,3.1705,3.1705,3.1705,3.1705,3.1705,3.1705,3.1749,3.1837,3.2058,3.229,3.2595,3.2898,3.307,3.3092,4.4262,4.3654,4.3485,4.3133,4.2684,4.2791,4.2653,4.2398,4.2213,4.1771,4.1242,4.1042,4.0664,4.0183,3.9636,3.9099,3.849,3.7533,3.6975,3.6654,3.6281,3.5753,3.5331,3.5241,3.5258,3.5412,3.577,3.6411,3.7063,3.7345,3.723,3.717,3.6385,3.5886,3.5548,3.5135,3.4758,3.4387,3.4387,3.4387,3.4387,3.4387,3.4387,3.4387,3.4387,3.4397,3.4397,3.4494,3.4515,3.4387,3.4504,3.4515,3.4408,3.4377,3.4366,3.4335,3.4202,3.385,3.3382,3.3288,3.3115,3.239,3.109,2.992,2.876,2.9325,3.0226,3.1047,3.2033,3.2657,3.3049,3.3113,3.3113,3.3113,3.3113,3.3113,3.3102,3.3025,3.2855,3.2285,3.1547,3.0737,2.9911,2.9062,2.8643,2.8536,2.85,2.85,2.8681,2.8921,2.915,2.9424,2.9675,3.0108,3.0504,3.0804,3.1092,3.1357,3.1525,3.167,3.1658,3.1693,3.1705,3.1705,3.1728,3.1705,3.1705,3.1716,3.176,3.2003,3.2246,3.2464,3.2714,3.293,3.3092,4.4336,4.3998,4.3454,4.3096,4.283,4.2684,4.2709,4.2716,4.2383,4.1941,4.1393,4.0908,4.074,4.0486,4.0114,3.9609,3.9078,3.846,3.7628,3.6998,3.6585,3.6117,3.5648,3.5314,3.5072,3.4852,3.5256,3.5761,3.6346,3.7346,3.7691,3.7974,3.7185,3.6421,3.5953,3.5645,3.5114,3.4696,3.4491,3.4387,3.4387,3.4387,3.4387,3.4387,3.4387,3.4397,3.4418,3.4587,3.4639,3.4439,3.4608,3.4652,3.4504,3.446,3.446,3.4387,3.4356,3.4147,3.3987,3.3723,3.3564,3.2984,3.1709,2.9738,2.8151,2.848,2.9303,3.0441,3.1591,3.2371,3.2853,3.3113,3.3092,3.2885,3.2831,3.2909,3.2939,3.3058,3.2853,3.2487,3.1787,3.0871,3.0057,2.9169,2.8673,2.8532,2.85,2.85,2.85,2.8693,2.8885,2.9089,2.9232,2.9593,3.0062,3.0361,3.0588,3.0948,3.1224,3.1429,3.1574,3.1633,3.1705,3.175,3.1761,3.1739,3.1705,3.1727,3.1793,3.1992,3.2202,3.2388,3.266,3.293,3.3049,4.4266,4.4042,4.3488,4.3023,4.2663,4.2616,4.2653,4.2709,4.2652,4.2251,4.161,4.1428,4.1111,4.0752,4.0539,3.9958,3.9209,3.8557,3.7875,3.7425,3.7082,3.6739,3.6227,3.5697,3.539,3.4981,3.5125,3.5399,3.5929,3.6709,3.7528,3.7752,3.7691,3.7648,3.714,3.6175,3.5487,3.5111,3.4665,3.4397,3.4387,3.4387,3.4387,3.4387,3.4387,3.4387,3.4408,3.4504,3.4567,3.465,3.4756,3.4714,3.4652,3.4629,3.4556,3.4429,3.4397,3.4387,3.4366,3.401,3.3426,3.2051,3.1145,2.9988,2.8058,2.8852,2.9658,3.0599,3.1492,3.2405,3.2928,3.307,3.2961,3.2602,3.2494,3.2592,3.2788,3.295,3.288,3.2523,3.1712,3.0811,3.0033,2.9251,2.8851,2.853,2.852,2.85,2.85,2.85,2.8693,2.8801,2.8919,2.9088,2.9532,2.9819,3.0083,3.0456,3.0863,3.1116,3.1333,3.1622,3.1693,3.176,3.1805,3.1772,3.1761,3.1738,3.1827,3.1948,3.2102,3.2266,3.2561,3.2909,3.3016,4.4257,4.4121,4.3478,4.3,4.2656,4.2585,4.2581,4.2629,4.2738,4.2373,4.1647,4.174,4.1373,4.0813,4.0826,4.0324,3.9568,3.8988,3.84,3.7992,3.7682,3.7321,3.6731,3.6133,3.5577,3.521,3.4848,3.4939,3.5357,3.5821,3.6576,3.7355,3.7984,3.8081,3.7753,3.6643,3.5619,3.5172,3.4796,3.4397,3.4387,3.4387,3.4387,3.4387,3.4387,3.4387,3.4429,3.4535,3.4652,3.4756,3.4839,3.4849,3.4808,3.4756,3.4663,3.4504,3.4387,3.4387,3.4356,3.4136,3.3243,3.1754,3.1267,2.9954,2.8899,2.9037,2.9291,3.052,3.1591,3.2481,3.2819,3.2851,3.2765,3.2471,3.2209,3.2275,3.2646,3.2862,3.2753,3.2521,3.167,3.0875,3.0359,2.9635,2.9009,2.867,2.851,2.85,2.85,2.85,2.8524,2.8585,2.8609,2.8777,2.8981,2.9352,2.9699,2.988,3.0287,3.0698,3.0985,3.1297,3.1609,3.1738,3.1783,3.1794,3.1772,3.1727,3.1782,3.1859,3.2014,3.2168,3.2528,3.2831,3.2973,4.4303,4.438,4.3439,4.3023,4.2935,4.2627,4.2526,4.2562,4.2634,4.2269,4.1679,4.1758,4.1294,4.0758,4.1065,4.0696,3.9912,3.9723,3.9236,3.8372,3.8105,3.7592,3.6906,3.6259,3.5809,3.5201,3.4843,3.4727,3.4798,3.5324,3.5922,3.6681,3.755,3.8281,3.8069,3.6594,3.5366,3.4634,3.4602,3.4533,3.4387,3.4387,3.4387,3.4387,3.4387,3.4387,3.4429,3.4556,3.4683,3.4787,3.4962,3.4952,3.4818,3.4828,3.4691,3.4429,3.4397,3.4387,3.4387,3.4387,3.326,3.1731,3.1223,3.0113,2.8734,2.8419,2.8956,3.0542,3.1024,3.1767,3.2185,3.2588,3.2612,3.2351,3.2077,3.2098,3.2481,3.2873,3.2798,3.2531,3.1768,3.1034,3.0627,3.0069,2.9315,2.8852,2.8596,2.8532,2.8604,2.856,2.859,2.856,2.856,2.8573,2.8789,2.9053,2.9316,2.9448,2.9701,3.011,3.0481,3.0756,3.1115,3.1545,3.1641,3.1555,3.163,3.1705,3.176,3.1816,3.1926,3.2125,3.2474,3.2756,3.2896,4.421,4.4369,4.3671,4.3294,4.3069,4.2625,4.2421,4.2465,4.2613,4.2486,4.2146,4.2396,4.1903,4.1328,4.1271,4.1082,4.0058,3.9889,3.9378,3.8446,3.8355,3.7877,3.7223,3.6639,3.6164,3.5664,3.5193,3.4721,3.4511,3.4988,3.5409,3.6086,3.7276,3.843,3.8607,3.782,3.6942,3.6132,3.5595,3.5043,3.4501,3.4429,3.4429,3.4418,3.4387,3.4387,3.4387,3.4522,3.4629,3.4797,3.4993,3.4993,3.4869,3.4893,3.4794,3.4501,3.4387,3.4387,3.4186,3.3858,3.2916,3.184,3.0912,2.9977,2.8594,2.8944,2.9761,3.0677,3.1258,3.2118,3.2923,3.3063,3.2957,3.2241,3.1989,3.2111,3.2405,3.283,3.2943,3.2497,3.1862,3.1421,3.1002,3.0748,3.0084,2.9663,2.9469,2.906,2.8994,2.8812,2.8727,2.8667,2.8627,2.855,2.8619,2.8926,2.8978,2.9018,2.9216,2.952,2.9868,3.0215,3.0664,3.1116,3.1216,3.1304,3.1556,3.1761,3.1716,3.1761,3.186,3.2038,3.2344,3.2627,3.2831,4.4098,4.426,4.3759,4.337,4.3082,4.2682,4.2444,4.2371,4.264,4.256,4.2363,4.2752,4.2338,4.1592,4.1526,4.1471,4.0325,4.0218,3.9914,3.8927,3.8661,3.8296,3.7746,3.7058,3.6531,3.6101,3.5672,3.5193,3.4777,3.4842,3.5257,3.5994,3.6934,3.7891,3.8379,3.8248,3.763,3.685,3.6217,3.5726,3.5182,3.4868,3.4727,3.4512,3.4387,3.4387,3.4387,3.4439,3.4525,3.4766,3.4931,3.4993,3.4921,3.4921,3.4846,3.4543,3.4387,3.4387,3.4207,3.3066,3.2255,3.1677,3.0744,2.9726,2.8944,2.9233,3.0136,3.1046,3.1865,3.2717,3.3407,3.3471,3.2794,3.2077,3.2011,3.212,3.2187,3.259,3.3063,3.2591,3.2233,3.1812,3.145,3.1264,3.0921,3.0641,3.0384,2.9947,2.9514,2.9326,2.9095,2.8948,2.8874,2.8812,2.8781,2.8847,2.8833,2.8632,2.8875,2.9189,2.9376,2.9759,3.0237,3.0687,3.0902,3.1173,3.1624,3.1805,3.1727,3.1727,3.1782,3.1981,3.2236,3.2453,3.2681,4.4006,4.4095,4.362,4.3264,4.3018,4.277,4.2539,4.2295,4.2502,4.2464,4.2272,4.2682,4.233,4.1673,4.1659,4.1417,4.1036,4.0746,4.0262,3.9804,3.9219,3.8756,3.8055,3.7267,3.6815,3.6531,3.6172,3.5697,3.5267,3.511,3.5391,3.5727,3.6198,3.7107,3.7751,3.8153,3.774,3.731,3.7034,3.6488,3.5906,3.5716,3.5413,3.5091,3.4799,3.4672,3.4613,3.4533,3.4553,3.4732,3.4973,3.4942,3.4942,3.5003,3.4774,3.4543,3.4397,3.4366,3.3932,3.257,3.1928,3.1499,3.0722,2.9783,2.9313,2.944,3.035,3.1268,3.2093,3.3018,3.3757,3.3106,3.2447,3.2164,3.2021,3.2022,3.1967,3.234,3.2927,3.2862,3.2541,3.2198,3.1897,3.1686,3.1745,3.1687,3.1406,3.1037,3.06,3.0124,2.9827,2.9354,2.9266,2.9138,2.9081,2.9008,2.8924,2.8806,2.8808,2.9053,2.9201,2.9321,2.9661,3.0103,3.0606,3.1017,3.1374,3.1615,3.1716,3.1727,3.1749,3.1882,3.2103,3.2235,3.2453,4.3993,4.4068,4.3586,4.3385,4.3304,4.2906,4.2446,4.2086,4.2412,4.2542,4.2479,4.2421,4.2254,4.1967,4.1449,4.1197,4.1013,4.0758,4.0272,3.9833,3.9447,3.8817,3.8192,3.7572,3.7104,3.6793,3.6507,3.6196,3.5721,3.5439,3.509,3.5112,3.576,3.6431,3.71,3.7833,3.7863,3.7897,3.7771,3.7309,3.6801,3.6576,3.6271,3.6002,3.5406,3.5274,3.5165,3.4634,3.4543,3.4546,3.4908,3.4993,3.4828,3.4973,3.4897,3.447,3.4335,3.4144,3.3367,3.2277,3.1588,3.1411,3.0722,2.9806,2.9348,2.9726,3.062,3.1455,3.2452,3.3413,3.3905,3.3471,3.2738,3.2336,3.2325,3.2468,3.2426,3.2557,3.3077,3.305,3.274,3.2677,3.2374,3.2413,3.2482,3.2564,3.243,3.2033,3.1601,3.1106,3.0575,3.0064,2.973,2.9626,2.9283,2.915,2.9086,2.9023,2.9025,2.8954,2.8956,2.9076,2.9195,2.9579,3.0165,3.0636,3.1043,3.1273,3.1525,3.1693,3.1727,3.1838,3.1948,3.2103,3.2268,4.4037,4.4072,4.3674,4.345,4.3304,4.2868,4.2401,4.2099,4.2231,4.2402,4.2562,4.2449,4.2338,4.2244,4.1621,4.1208,4.1157,4.0704,4.0319,4.011,3.9565,3.9089,3.8507,3.7987,3.7528,3.7194,3.6938,3.6739,3.6196,3.5745,3.5386,3.5446,3.5783,3.6085,3.6708,3.7498,3.8041,3.8278,3.8361,3.8102,3.7753,3.7395,3.7247,3.6865,3.6195,3.586,3.5629,3.4889,3.4468,3.446,3.4846,3.4993,3.4839,3.4911,3.4825,3.4449,3.4377,3.3913,3.3154,3.2192,3.1731,3.1378,3.0789,3.0056,3.0215,3.071,3.1189,3.1798,3.2841,3.3742,3.3968,3.4023,3.3264,3.2551,3.2812,3.3084,3.3065,3.2989,3.3056,3.3102,3.3075,3.3075,3.3063,3.3113,3.3101,3.2975,3.2887,3.2706,3.2315,3.1889,3.1337,3.0815,3.0421,3.0137,2.9764,2.9411,2.9312,2.9268,2.9226,2.9128,2.8919,2.8883,2.9048,2.938,2.9794,3.0263,3.0743,3.1057,3.1322,3.1525,3.1705,3.1772,3.186,3.1959,3.2135,4.4102,4.414,4.3744,4.3439,4.3173,4.2796,4.2469,4.2221,4.2023,4.2107,4.2475,4.2512,4.2477,4.2318,4.1751,4.1394,4.1186,4.077,4.0467,4.0431,3.9878,3.9365,3.8978,3.8521,3.7927,3.7632,3.7383,3.7059,3.6654,3.6227,3.5991,3.6164,3.5973,3.6125,3.6586,3.7365,3.789,3.812,3.8647,3.8815,3.8473,3.8178,3.7919,3.7247,3.658,3.599,3.5679,3.5124,3.446,3.4598,3.4777,3.4983,3.4931,3.4859,3.4691,3.4504,3.4397,3.3655,3.2993,3.2179,3.1853,3.1456,3.0912,3.08,3.1212,3.1709,3.2114,3.2072,3.2939,3.3837,3.422,3.4181,3.3649,3.3209,3.323,3.3115,3.2826,3.2925,3.3174,3.3188,3.3113,3.3113,3.3113,3.3113,3.3113,3.3113,3.3101,3.304,3.2878,3.2482,3.2045,3.1493,3.1031,3.0623,3.0258,2.9922,2.9625,2.9531,2.946,2.9302,2.9096,2.8995,2.8894,2.9161,2.9434,2.9986,3.0443,3.0804,3.1202,3.1562,3.1705,3.1705,3.1772,3.186,3.1981,4.3868,4.3934,4.3596,4.3458,4.3418,4.2853,4.2588,4.2513,4.1927,4.1827,4.2028,4.2101,4.2195,4.2254,4.1805,4.1461,4.1203,4.0884,4.0585,4.0279,3.9891,3.9662,3.9312,3.8712,3.824,3.7999,3.7704,3.7308,3.6854,3.6562,3.6313,3.6102,3.6134,3.6466,3.6377,3.7199,3.7948,3.7994,3.8686,3.9193,3.9055,3.9074,3.8912,3.8496,3.7985,3.7078,3.6566,3.5806,3.5053,3.4667,3.4918,3.5034,3.5034,3.5024,3.4805,3.4501,3.4377,3.3581,3.2776,3.2364,3.2289,3.2093,3.1884,3.2201,3.2517,3.2841,3.2895,3.269,3.295,3.3837,3.4356,3.423,3.4094,3.3837,3.3602,3.3136,3.2652,3.2946,3.3283,3.3229,3.3145,3.3113,3.3113,3.3113,3.3113,3.3113,3.3113,3.3101,3.3088,3.284,3.2568,3.2054,3.1526,3.1107,3.0736,3.0299,2.9949,2.9749,2.965,2.946,2.9253,2.8988,2.8786,2.8819,2.9063,2.9579,3.0107,3.0624,3.1032,3.1417,3.1705,3.1705,3.1705,3.1783,3.1871,4.3947,4.3971,4.3613,4.3502,4.3466,4.2886,4.2645,4.2542,4.1917,4.167,4.1805,4.1964,4.2114,4.214,4.1796,4.1562,4.1305,4.0913,4.0748,4.044,4.0068,3.9808,3.9401,3.9038,3.8821,3.8569,3.8107,3.7638,3.715,3.7044,3.6861,3.6639,3.683,3.6807,3.6583,3.7589,3.8158,3.7947,3.8807,3.9233,3.9415,3.9397,3.9397,3.9165,3.8621,3.781,3.6957,3.6132,3.5284,3.4791,3.4877,3.5144,3.5154,3.5113,3.4931,3.466,3.4335,3.3774,3.2852,3.2559,3.2776,3.2593,3.2561,3.2766,3.2916,3.3186,3.3303,3.3175,3.356,3.4377,3.4387,3.4304,3.4262,3.4092,3.4039,3.3797,3.3416,3.3343,3.343,3.3336,3.3219,3.3113,3.3113,3.3113,3.3113,3.3113,3.3113,3.3113,3.3113,3.3113,3.2876,3.2614,3.2074,3.1549,3.1122,3.0645,3.0161,2.9995,2.9817,2.9584,2.9342,2.8919,2.8656,2.8763,2.8891,2.9112,2.9651,3.0204,3.0708,3.1104,3.1429,3.1705,3.1705,3.1705,3.1783,4.4056,4.4041,4.366,4.354,4.3465,4.2891,4.2631,4.2555,4.1917,4.1604,4.1687,4.2077,4.2098,4.1938,4.1973,4.1788,4.1547,4.1214,4.1007,4.0766,4.0512,4.0173,3.9891,3.9649,3.9302,3.889,3.8451,3.8035,3.7617,3.7478,3.7375,3.7495,3.7515,3.7476,3.7662,3.8154,3.8618,3.8576,3.8998,3.9382,3.9451,3.9397,3.9397,3.9137,3.8714,3.7938,3.7126,3.629,3.5467,3.5107,3.5018,3.5164,3.5246,3.5175,3.4993,3.4766,3.4504,3.3858,3.3184,3.3122,3.31,3.3036,3.3089,3.3239,3.3433,3.3518,3.3634,3.3848,3.4241,3.4366,3.4387,3.4387,3.4356,3.4335,3.4335,3.4314,3.3989,3.3694,3.359,3.3462,3.3304,3.3178,3.3124,3.3124,3.3124,3.3124,3.3113,3.3113,3.3113,3.3113,3.3002,3.2876,3.2587,3.2085,3.1484,3.0909,3.0369,3.008,2.9878,2.9664,2.9527,2.9515,2.9286,2.8805,2.8944,2.911,2.9292,2.9737,3.024,3.0768,3.1116,3.1441,3.1705,3.1705,3.1705,4.3788,4.3531,4.3529,4.3501,4.3423,4.2867,4.2596,4.2502,4.1901,4.1604,4.1735,4.2037,4.2084,4.1686,4.2269,4.2197,4.1658,4.1424,4.1146,4.0843,4.0742,4.0476,4.0192,3.9948,3.9506,3.9112,3.8746,3.8315,3.8085,3.7772,3.7516,3.7553,3.8064,3.7995,3.7728,3.8447,3.9353,3.924,3.9487,3.9985,3.9595,3.9505,3.9406,3.9307,3.9247,3.8649,3.7976,3.7107,3.6399,3.5846,3.5474,3.5436,3.5318,3.5216,3.5024,3.4839,3.4577,3.4029,3.3581,3.3753,3.3742,3.3326,3.3496,3.4008,3.4102,3.4092,3.4165,3.4176,3.4418,3.4387,3.4387,3.4387,3.4377,3.4377,3.4377,3.4296,3.4097,3.3949,3.3833,3.3632,3.342,3.3293,3.3176,3.3165,3.3156,3.3145,3.3113,3.3113,3.3113,3.3113,3.3113,3.3025,3.2927,3.2298,3.1585,3.106,3.0548,3.0234,3.0107,3.0179,3.0307,3.0513,3.0214,2.95,2.9181,2.922,2.9412,2.9484,2.9904,3.0419,3.078,3.1116,3.1441,3.1645,3.1597]},{"header":{"parameterUnit":"m.s-1","parameterCategory":1,"la1":31.0,"la2":29.5877,"lo1":-88.7671,"lo2":-86.6584,"dy":0.0162,"dx":0.0185,"nx":115,"ny":88,"refTime":"2023-05-24T06:00:00:Z","depth":0,"parameterNumber":3,"parameterNumberName":"V-component_of_WINDS"},"data":[0.0,0.0,0.0,0.0,0.0,0.0,0.0,0.0,0.0,0.0,0.0,0.0,0.0,0.0,0.0,0.0,0.0,0.0,0.0,0.0,0.0,0.0,0.0,0.0,0.0,0.0,0.0,0.0,0.0,0.0,0.0,0.0,0.0,0.0,0.0,0.0,0.0,0.0,0.0,0.0,0.0,0.0,0.0,0.0,0.0,0.0,0.0,0.0,0.0,0.0,0.0,0.0,0.0,0.0,0.0,0.0,0.0,0.0,0.0,0.0,0.0,0.0,0.0,0.0,0.0,0.0,0.0,0.0,0.0,0.0,0.0,0.0,0.0,0.0,0.0,0.0,0.0,0.0,0.0,0.0,0.0,0.0,0.0,0.0,0.0,0.0,0.0,0.0,0.0,0.0,0.0,0.0,0.0,0.0,0.0,0.0,0.0,0.0,0.0,0.0,0.0,0.0,0.0,0.0,0.0,0.0,0.0,0.0,0.0,0.0,0.0,0.0,0.0,0.0,0.0,0.0,0.0,0.0,0.0,0.0,0.0,0.0,0.0,0.0,0.0,0.0,0.0,0.0,0.0,0.0,0.0,0.0,0.0,0.0,0.0,0.0,0.0,0.0,0.0,0.0,0.0,0.0,0.0,0.0,0.0,0.0,0.0,0.0,0.0,0.0,0.0,0.0,0.0,0.0,0.0,0.0,0.0,0.0,0.0,0.0,0.0,0.0,0.0,0.0,0.0,0.0,0.0,0.0,0.0,0.0,0.0,0.0,0.0,0.0,0.0,0.0,0.0,0.0,0.0,0.0,0.0,0.0,0.0,0.0,0.0,0.0,0.0,0.0,0.0,0.0,0.0,0.0,0.0,0.0,0.0,0.0,0.0,0.0,0.0,0.0,0.0,0.0,0.0,0.0,0.0,0.0,0.0,0.0,0.0,0.0,0.0,0.0,0.0,0.0,0.0,0.0,0.0,0.0,0.0,0.0,0.0,0.0,0.0,0.0,0.0,0.0,0.0,0.0,0.0,0.0,0.0,0.0,0.0,0.0,0.0,0.0,0.0,0.0,0.0,0.0,0.0,0.0,0.0,0.0,0.0,0.0,0.0,0.0,0.0,0.0,0.0,0.0,0.0,0.0,0.0,0.0,0.0,0.0,0.0,0.0,0.0,0.0,0.0,0.0,0.0,0.0,0.0,0.0,0.0,0.0,0.0,0.0,0.0,0.0,0.0,0.0,0.0,0.0,0.0,0.0,0.0,0.0,0.0,0.0,0.0,0.0,0.0,0.0,0.0,0.0,0.0,0.0,0.0,0.0,0.0,0.0,0.0,0.0,0.0,0.0,0.0,0.0,0.0,0.0,0.0,0.0,0.0,0.0,0.0,0.0,0.0,0.0,0.0,0.0,0.0,0.0,0.0,0.0,0.0,0.0,0.0,0.0,0.0,0.0,0.0,0.0,0.0,0.0,0.0,0.0,0.0,0.0,0.0,0.0,0.0,0.0,0.0,0.0,0.0,0.0,0.0,0.0,0.0,0.0,0.0,0.0,0.0,0.0,0.0,0.0,0.0,0.0,0.0,0.0,0.0,0.0,0.0,0.0,0.0,0.0,0.0,0.0,0.0,0.0,0.0,0.0,0.0,0.0,0.0,0.0,0.0,0.0,0.0,0.0,0.0,0.0,0.0,0.0,0.0,0.0,0.0,0.0,0.0,0.0,0.0,0.0,0.0,0.0,0.0,0.0,0.0,0.0,0.0,0.0,0.0,0.0,0.0,0.0,0.0,0.0,0.0,0.0,0.0,0.0,0.0,0.0,0.0,0.0,0.0,0.0,0.0,0.0,0.0,0.0,0.0,0.0,0.0,0.0,0.0,0.0,0.0,0.0,0.0,0.0,0.0,0.0,0.0,0.0,0.0,0.0,0.0,0.0,0.0,0.0,0.0,0.0,0.0,0.0,0.0,0.0,0.0,0.0,0.0,0.0,0.0,0.0,0.0,0.0,0.0,0.0,0.0,0.0,0.0,0.0,0.0,0.0,0.0,0.0,0.0,0.0,0.0,0.0,0.0,0.0,0.0,0.0,0.0,0.0,0.0,0.0,0.0,0.0,0.0,0.0,0.0,0.0,0.0,0.0,0.0,0.0,0.0,0.0,0.0,0.0,0.0,0.0,0.0,0.0,0.0,0.0,0.0,0.0,0.0,0.0,0.0,0.0,0.0,0.0,0.0,0.0,0.0,0.0,0.0,0.0,0.0,0.0,0.0,0.0,0.0,0.0,0.0,0.0,0.0,0.0,0.0,0.0,0.0,0.0,0.0,0.0,0.0,0.0,0.0,0.0,0.0,0.0,0.0,0.0,0.0,0.0,0.0,0.0,0.0,0.0,0.0,0.0,0.0,0.0,0.0,0.0,0.0,0.0,0.0,0.0,0.0,0.0,0.0,0.0,0.0,0.0,0.0,0.0,0.0,0.0,0.0,0.0,0.0,0.0,0.0,0.0,0.0,0.0,0.0,0.0,0.0,0.0,0.0,0.0,0.0,0.0,0.0,0.0,0.0,0.0,0.0,0.0,0.0,0.0,0.0,0.0,0.0,0.0,0.0,0.0,0.0,0.0,0.0,0.0,0.0,0.0,0.0,0.0,0.0,0.0,0.0,0.0,0.0,0.0,0.0,0.0,0.0,0.0,0.0,0.0,0.0,0.0,0.0,0.0,0.0,0.0,0.0,0.0,0.0,0.0,0.0,0.0,0.0,0.0,0.0,0.0,0.0,0.0,0.0,0.0,0.0,0.0,0.0,0.0,0.0,0.0,0.0,0.0,0.0,0.0,0.0,0.0,0.0,0.0,0.0,0.0,0.0,0.0,0.0,0.0,0.0,0.0,0.0,0.0,0.0,0.0,0.0,0.0,0.0,0.0,0.0,0.0,0.0,0.0,0.0,0.0,0.0,0.0,0.0,0.0,0.0,0.0,0.0,0.0,0.0,0.0,0.0,0.0,0.0,0.0,0.0,0.0,0.0,0.0,0.0,0.0,0.0,0.0,0.0,0.0,0.0,0.0,0.0,0.0,0.0,0.0,0.0,0.0,0.0,0.0,0.0,0.0,0.0,0.0,0.0,0.0,0.0,0.0,0.0,0.0,0.0,0.0,0.0,0.0,0.0,0.0,0.0,0.0,0.0,0.0,0.0,0.0,0.0,0.0,0.0,0.0,0.0,0.0,0.0,0.0,0.0,0.0,0.0,0.0,0.0,0.0,0.0,0.0,0.0,0.0,0.0,0.0,0.0,0.0,0.0,0.0,0.0,0.0,0.0,0.0,0.0,0.0,0.0,0.0,0.0,0.0,0.0,0.0,0.0,0.0,0.0,0.0,0.0,0.0,0.0,0.0,0.0,0.0,0.0,0.0,0.0,0.0,0.0,0.0,0.0,0.0,0.0,0.0,0.0,0.0,0.0,0.0,0.0,0.0,0.0,0.0,0.0,0.0,0.0,0.0,0.0,0.0,0.0,0.0,0.0,0.0,0.0,0.0,0.0,0.0,0.0,0.0,0.0,0.0,0.0,0.0,0.0,0.0,0.0,0.0,0.0,0.0,0.0,0.0,0.0,0.0,0.0,0.0,0.0,0.0,0.0,0.0,0.0,0.0,0.0,0.0,0.0,0.0,0.0,0.0,0.0,0.0,0.0,0.0,0.0,0.0,0.0,0.0,0.0,0.0,0.0,0.0,0.0,0.0,0.0,0.0,0.0,0.0,0.0,0.0,0.0,0.0,0.0,0.0,0.0,0.0,0.0,0.0,0.0,0.0,0.0,0.0,0.0,0.0,0.0,0.0,0.0,0.0,0.0,0.0,0.0,0.0,0.0,0.0,0.0,0.0,0.0,0.0,0.0,0.0,0.0,0.0,0.0,0.0,0.0,0.0,0.0,0.0,0.0,0.0,0.0,0.0,0.0,0.0,0.0,0.0,0.0,0.0,0.0,0.0,0.0,0.0,0.0,0.0,0.0,0.0,0.0,0.0,0.0,0.0,0.0,0.0,0.0,0.0,0.0,0.0,0.0,0.0,0.0,0.0,0.0,0.0,0.0,0.0,0.0,0.0,0.0,0.0,0.0,0.0,0.0,0.0,0.0,0.0,0.0,0.0,0.0,0.0,0.0,0.0,0.0,0.0,0.0,0.0,0.0,0.0,0.0,0.0,0.0,0.0,0.0,0.0,0.0,0.0,0.0,0.0,0.0,0.0,0.0,0.0,0.0,0.0,0.0,0.0,0.0,0.0,0.0,0.0,0.0,0.0,0.0,0.0,1.1438,0.0,0.0,0.0,0.0,0.0,0.0,0.0,0.0,0.0,0.0,0.0,0.0,0.0,0.0,0.0,0.0,0.0,0.0,0.0,0.0,0.0,0.0,0.0,0.0,0.0,0.0,0.0,0.0,0.0,0.0,0.0,0.0,0.0,0.0,0.0,0.0,0.0,0.0,0.0,0.0,0.0,0.0,0.0,0.0,0.0,0.0,0.0,0.0,0.0,0.0,0.0,0.0,0.0,0.0,0.0,0.0,0.0,0.0,0.0,0.0,0.0,0.0,0.0,0.0,0.0,0.0,0.0,0.0,0.0,0.0,0.0,0.0,0.0,0.0,0.0,0.0,0.0,0.0,0.0,0.0,0.0,0.0,0.0,0.0,0.0,0.0,0.0,0.0,0.0,0.0,0.0,0.0,0.0,0.0,0.0,0.0,0.0,0.0,0.0,0.0,0.0,0.0,0.0,0.0,0.0,0.0,0.0,0.0,0.0,0.0,1.182,1.1903,1.1586,1.1418,1.145,0.0,0.0,0.0,0.0,0.0,0.0,0.0,0.0,0.0,0.0,0.0,0.0,0.0,0.0,0.0,0.0,0.0,0.0,0.0,0.0,0.0,0.0,0.0,0.0,0.0,0.0,0.0,0.0,0.0,0.0,0.0,0.0,0.0,0.0,0.0,0.0,0.0,0.0,0.0,0.0,0.0,0.0,0.0,0.0,0.0,0.0,0.0,0.0,0.0,0.0,0.0,0.0,0.0,0.0,0.0,0.0,0.0,0.0,0.0,0.0,0.0,0.0,0.0,0.0,0.0,0.0,0.0,0.0,0.0,0.0,0.0,0.0,0.0,0.0,0.0,0.0,0.0,0.0,0.0,0.0,0.0,0.0,0.0,0.0,0.0,0.0,0.0,0.0,0.0,0.0,0.0,0.0,0.0,0.0,0.0,0.0,0.0,0.0,0.0,0.0,0.0,0.0,0.0,0.0,0.0,0.0,0.0,0.0,0.0,0.0,0.0,0.0,1.2001,1.1793,1.1896,0.0,0.0,0.0,0.0,0.0,0.0,0.0,0.0,0.0,0.0,0.0,0.0,0.0,0.0,0.0,0.0,0.0,0.0,0.0,0.0,0.0,0.0,0.0,0.0,0.0,0.0,0.0,0.0,0.0,0.0,0.0,0.0,0.0,0.0,0.0,0.0,0.0,0.0,0.0,0.0,0.0,0.0,0.0,0.0,0.0,0.0,0.0,0.0,0.0,0.0,0.0,0.0,0.0,0.0,0.0,0.0,0.0,0.0,0.0,0.0,0.0,0.0,0.0,0.0,0.0,0.0,0.0,0.0,0.0,0.0,0.0,0.0,0.0,0.0,0.0,0.0,0.0,0.0,0.0,0.0,0.0,0.0,0.0,0.0,0.0,0.0,0.0,0.0,0.0,0.0,0.0,0.0,0.0,0.0,0.0,0.0,0.0,0.0,0.0,0.0,0.0,0.0,0.0,0.0,0.0,0.0,0.0,0.0,0.0,0.0,1.2692,1.2763,1.2765,0.0,1.3129,0.0,0.0,0.0,0.0,0.0,0.0,0.0,0.0,0.0,0.0,0.0,0.0,0.0,0.0,0.0,0.0,0.0,0.0,0.0,0.0,0.0,0.0,0.0,0.0,0.0,0.0,0.0,0.0,0.0,0.0,0.0,0.0,0.0,0.0,0.0,0.0,0.0,0.0,0.0,0.0,0.0,0.0,0.0,0.0,0.0,0.0,0.0,0.0,0.0,0.0,0.0,0.0,0.0,0.0,0.0,0.0,0.0,0.0,0.0,0.0,0.0,0.0,0.0,0.0,0.0,0.0,0.0,0.0,0.0,0.0,0.0,0.0,0.0,0.0,0.0,0.0,0.0,0.0,0.0,0.0,0.0,0.0,0.0,0.0,0.0,0.0,0.0,0.0,0.0,0.0,0.0,0.0,0.0,0.0,0.0,0.0,0.0,0.0,0.0,0.0,0.0,0.0,0.0,0.0,0.0,0.0,0.0,0.0,0.0,0.0,1.3287,1.3395,1.3143,1.3113,0.0,0.0,0.0,0.0,0.0,0.0,0.0,0.0,0.0,0.0,0.0,0.0,0.0,0.0,0.0,0.0,0.0,0.0,0.0,0.0,0.0,0.0,0.0,0.0,0.0,0.0,0.0,0.0,0.0,0.0,0.0,0.0,0.0,0.0,0.0,0.0,0.0,0.0,0.0,0.0,0.0,0.0,0.0,0.0,0.0,0.0,0.0,0.0,0.0,0.0,0.0,0.0,0.0,0.0,0.0,0.0,0.0,0.0,0.0,0.0,0.0,0.0,0.0,0.0,0.0,0.0,0.0,0.0,0.0,0.0,0.0,0.0,0.0,0.0,0.0,0.0,0.0,0.0,0.0,0.0,0.0,0.0,0.0,0.0,0.0,0.0,0.0,0.0,0.0,0.0,0.0,0.0,0.0,0.0,0.0,0.0,0.0,0.0,0.0,0.0,0.0,0.0,0.0,0.0,0.0,0.0,0.0,0.0,0.0,0.0,1.4018,1.3823,1.3944,1.3706,1.3618,1.3744,0.0,0.0,0.0,0.0,0.0,0.0,0.0,0.0,0.0,0.0,0.0,0.0,0.0,0.0,0.0,0.0,0.0,0.0,0.0,0.0,0.0,0.0,0.0,0.0,0.0,0.0,0.0,0.0,0.0,0.0,0.0,0.0,0.0,0.0,0.0,0.0,0.0,0.0,0.0,0.0,0.0,0.0,0.0,0.0,0.0,0.0,0.0,0.0,0.0,0.0,0.0,0.0,0.0,0.0,0.0,0.0,0.0,0.0,0.0,0.0,0.0,0.0,0.0,0.0,0.0,0.0,0.0,0.0,0.0,0.0,0.0,0.0,0.0,0.0,0.0,0.0,0.0,0.0,0.0,0.0,0.0,0.0,0.0,0.0,0.0,0.0,0.0,0.0,0.0,0.0,0.0,0.0,0.0,0.0,0.0,0.0,0.0,0.0,0.0,0.0,0.0,0.0,0.0,0.0,0.0,0.0,0.0,0.0,1.4036,1.413,1.4222,1.4348,1.4591,1.4755,0.0,0.0,0.0,0.0,0.0,0.0,0.0,0.0,0.0,0.0,0.0,0.0,0.0,0.0,0.0,0.0,0.0,0.0,0.0,0.0,0.0,0.0,0.0,0.0,0.0,0.0,0.0,0.0,0.0,0.0,0.0,0.0,0.0,0.0,0.0,0.0,0.0,0.0,0.0,0.0,0.0,0.0,0.0,0.0,0.0,0.0,0.0,0.0,0.0,0.0,0.0,0.0,0.0,0.0,0.0,0.0,0.0,0.0,0.0,0.0,0.0,0.0,0.0,0.0,0.0,0.0,0.0,0.0,0.0,0.0,0.0,0.0,0.0,0.0,0.0,0.0,0.0,0.0,0.0,0.0,0.0,0.0,0.0,0.0,0.0,0.0,0.0,0.0,0.0,0.0,0.0,0.0,0.0,0.0,0.0,0.0,0.0,0.0,0.0,0.0,0.0,0.0,0.0,0.0,0.0,0.0,0.0,0.0,0.0,1.3949,1.3986,1.4117,1.4323,1.4523,1.4698,0.0,0.0,0.0,0.0,0.0,0.0,0.0,0.0,0.0,0.0,0.0,0.0,0.0,0.0,0.0,0.0,0.0,0.0,0.0,0.0,0.0,0.0,0.0,0.0,0.0,0.0,0.0,0.0,0.0,0.0,0.0,0.0,0.0,0.0,0.0,0.0,0.0,0.0,0.0,0.0,0.0,0.0,0.0,0.0,0.0,0.0,0.0,0.0,0.0,0.0,0.0,0.0,0.0,0.0,0.0,0.0,0.0,0.0,0.0,0.0,0.0,0.0,0.0,0.0,0.0,0.0,0.0,0.0,0.0,0.0,0.0,0.0,0.0,0.0,0.0,0.0,0.0,0.0,0.0,0.0,0.0,0.0,0.0,0.0,0.0,0.0,0.0,0.0,0.0,0.0,0.0,0.0,0.0,0.0,0.0,0.0,0.0,0.0,0.0,0.0,0.0,0.0,0.0,0.0,0.0,0.0,0.0,0.0,0.0,1.3875,0.0,1.3965,1.4188,1.4357,1.4537,0.0,0.0,0.0,0.0,0.0,0.0,0.0,0.0,0.0,0.0,0.0,0.0,0.0,0.0,0.0,0.0,0.0,0.0,0.0,0.0,0.0,0.0,0.0,0.0,0.0,0.0,0.0,0.0,0.0,0.0,0.0,0.0,0.0,0.0,0.0,0.0,0.0,0.0,0.0,0.0,0.0,0.0,0.0,0.0,0.0,0.0,0.0,0.0,0.0,0.0,0.0,0.0,0.0,0.0,0.0,0.0,0.0,0.0,0.0,0.0,0.0,0.0,0.0,0.0,0.0,0.0,0.0,0.0,0.0,0.0,0.0,0.0,0.0,0.0,0.0,0.0,0.0,0.0,0.0,0.0,0.0,0.0,0.0,0.0,0.0,0.0,0.0,0.0,0.0,0.0,0.0,0.0,0.0,0.0,0.0,0.0,0.0,0.0,0.0,0.0,0.0,0.0,0.0,0.0,0.0,0.0,0.0,0.0,1.3709,1.3818,1.3844,1.3928,1.4013,1.423,1.4342,0.0,0.0,0.0,0.0,0.0,0.0,0.0,0.0,0.0,0.0,0.0,0.0,0.0,0.0,0.0,0.0,0.0,0.0,0.0,0.0,0.0,0.0,0.0,0.0,0.0,0.0,0.0,0.0,0.0,0.0,0.0,0.0,0.0,0.0,0.0,0.0,0.0,0.0,0.0,0.0,0.0,0.0,0.0,0.0,0.0,0.0,0.0,0.0,0.0,0.0,0.0,0.0,0.0,0.0,0.0,0.0,0.0,0.0,0.0,0.0,0.0,0.0,0.0,0.0,0.0,0.0,0.0,0.0,0.0,0.0,0.0,0.0,0.0,0.0,0.0,0.0,0.0,0.0,0.0,0.0,0.0,0.0,0.0,0.0,0.0,0.0,0.0,0.0,0.0,0.0,0.0,0.0,0.0,0.0,0.0,0.0,0.0,0.0,0.0,0.0,0.0,0.0,0.0,0.0,0.0,0.0,0.0,0.0,0.0,1.4772,1.4685,1.4714,1.4892,1.4691,1.4677,0.0,0.0,0.0,0.0,0.0,0.0,0.0,0.0,0.0,0.0,0.0,0.0,0.0,0.0,0.0,0.0,0.0,0.0,0.0,0.0,0.0,0.0,0.0,0.0,0.0,0.0,0.0,0.0,0.0,0.0,0.0,0.0,0.0,0.0,0.0,0.0,0.0,0.0,0.0,0.0,0.0,0.0,0.0,0.0,0.0,0.0,0.0,0.0,0.0,0.0,0.0,0.0,0.0,0.0,0.0,0.0,0.0,0.0,0.0,0.0,0.0,0.0,0.0,0.0,0.0,0.0,0.0,0.0,0.0,0.0,0.0,0.0,0.0,0.0,0.0,0.0,0.0,0.0,0.0,0.0,0.0,0.0,0.0,0.0,0.0,0.0,0.0,0.0,0.0,0.0,0.0,0.0,0.0,0.0,0.0,0.0,0.0,0.0,0.0,0.0,0.0,0.0,0.0,0.0,0.0,0.0,0.0,0.0,0.0,1.6005,1.5551,1.5384,1.5556,1.534,1.5206,1.5176,0.0,0.0,0.0,0.0,0.0,0.0,0.0,0.0,0.0,0.0,0.0,0.0,0.0,0.0,0.0,0.0,0.0,0.0,0.0,0.0,0.0,0.0,0.0,0.0,0.0,0.0,0.0,0.0,0.0,0.0,0.0,0.0,0.0,0.0,0.0,0.0,0.0,0.0,0.0,0.0,0.0,0.0,0.0,0.0,0.0,0.0,0.0,0.0,0.0,0.0,0.0,0.0,0.0,0.0,0.0,0.0,0.0,0.0,0.0,0.0,0.0,0.0,0.0,0.0,0.0,0.0,0.0,0.0,0.0,0.0,0.0,0.0,0.0,0.0,0.0,0.0,0.0,0.0,0.0,0.0,0.0,0.0,0.0,0.0,0.0,0.0,0.0,0.0,0.0,0.0,0.0,0.0,0.0,0.0,0.0,0.0,0.0,0.0,0.0,0.0,0.0,0.0,0.0,0.0,0.0,0.0,0.0,0.0,1.7447,1.6488,1.6031,1.6133,1.6137,1.5897,0.0,0.0,0.0,0.0,0.0,0.0,0.0,0.0,0.0,0.0,0.0,0.0,0.0,0.0,0.0,0.0,0.0,0.0,0.0,0.0,0.0,0.0,0.0,0.0,0.0,0.0,0.0,0.0,0.0,0.0,0.0,0.0,0.0,0.0,0.0,0.0,0.0,0.0,0.0,0.0,0.0,0.0,0.0,0.0,0.0,0.0,0.0,0.0,0.0,0.0,0.0,0.0,0.0,0.0,0.0,0.0,0.0,0.0,0.0,0.0,0.0,0.0,0.0,0.0,0.0,0.0,0.0,0.0,0.0,0.0,0.0,0.0,0.0,0.0,0.0,0.0,0.0,0.0,0.0,0.0,0.0,0.0,0.0,0.0,0.0,0.0,0.0,0.0,0.0,0.0,0.0,0.0,0.0,0.0,0.0,0.0,0.0,0.0,0.0,0.0,0.0,0.0,0.0,0.0,0.0,0.0,0.0,0.0,0.0,1.8116,1.815,1.7989,1.7625,1.6923,1.65,0.0,0.0,0.0,0.0,0.0,0.0,0.0,0.0,0.0,0.0,0.0,0.0,0.0,0.0,0.0,0.0,0.0,0.0,0.0,0.0,0.0,0.0,0.0,0.0,0.0,0.0,0.0,0.0,0.0,0.0,0.0,0.0,0.0,0.0,0.0,0.0,0.0,0.0,0.0,0.0,0.0,0.0,0.0,0.0,0.0,0.0,0.0,0.0,0.0,0.0,0.0,0.0,0.0,0.0,0.0,0.0,0.0,0.0,0.0,0.0,0.0,0.0,0.0,0.0,0.0,0.0,0.0,0.0,0.0,0.0,0.0,0.0,0.0,0.0,0.0,0.0,0.0,0.0,0.0,0.0,0.0,0.0,0.0,0.0,0.0,0.0,0.0,0.0,0.0,0.0,0.0,0.0,0.0,0.0,0.0,0.0,0.0,0.0,0.0,0.0,0.0,0.0,0.0,0.0,0.0,0.0,0.0,0.0,1.8313,1.8734,1.9188,1.9246,1.8888,1.7879,1.7237,0.0,0.0,0.0,0.0,0.0,0.0,0.0,0.0,0.0,0.0,0.0,0.0,0.0,0.0,0.0,0.0,0.0,0.0,0.0,0.0,0.0,0.0,0.0,0.0,0.0,0.0,0.0,0.0,0.0,0.0,0.0,0.0,0.0,0.0,0.0,0.0,0.0,0.0,0.0,0.0,0.0,0.0,0.0,0.0,0.0,0.0,0.0,0.0,0.0,0.0,0.0,0.0,0.0,0.0,0.0,0.0,0.0,0.0,0.0,0.0,0.0,0.0,0.0,0.0,0.0,0.0,0.0,0.0,0.0,0.0,0.0,0.0,0.0,0.0,0.0,0.0,0.0,0.0,0.0,0.0,0.0,0.0,0.0,0.0,0.0,0.0,0.0,0.0,0.0,0.0,0.0,0.0,0.0,0.0,0.0,0.0,0.0,0.0,0.0,0.0,0.0,0.0,0.0,0.0,0.0,0.0,0.0,0.0,1.8993,1.9388,1.9889,2.0097,1.9968,1.8882,1.804,0.0,0.0,0.0,0.0,0.0,0.0,0.0,0.0,0.0,0.0,0.0,0.0,0.0,0.0,0.0,0.0,0.0,0.0,0.0,0.0,0.0,0.0,0.0,0.0,0.0,0.0,0.0,0.0,0.0,0.0,0.0,0.0,0.0,0.0,0.0,0.0,0.0,0.0,0.0,0.0,0.0,0.0,0.0,0.0,0.0,0.0,0.0,0.0,0.0,0.0,0.0,0.0,0.0,0.0,0.0,0.0,0.0,0.0,0.0,0.0,0.0,0.0,0.0,0.0,0.0,0.0,0.0,0.0,0.0,0.0,0.0,0.0,0.0,0.0,0.0,0.0,0.0,0.0,0.0,0.0,0.0,0.0,0.0,0.0,0.0,0.0,0.0,0.0,0.0,0.0,0.0,0.0,0.0,0.0,0.0,0.0,0.0,0.0,0.0,0.0,0.0,0.0,0.0,0.0,0.0,0.0,0.0,0.0,1.9714,2.0661,2.1028,2.117,2.1123,1.9641,1.8629,0.0,0.0,0.0,0.0,0.0,0.0,0.0,0.0,0.0,0.0,0.0,0.0,0.0,0.0,0.0,0.0,0.0,0.0,0.0,0.0,0.0,0.0,0.0,0.0,0.0,0.0,0.0,0.0,0.0,0.0,0.0,0.0,0.0,0.0,0.0,0.0,0.0,0.0,0.0,0.0,0.0,0.0,0.0,0.0,0.0,0.0,0.0,0.0,1.2927,0.0,0.0,0.0,0.0,0.0,0.0,0.0,0.0,0.0,0.0,0.0,0.0,0.0,0.0,0.0,0.0,0.0,0.0,0.0,0.0,0.0,0.0,0.0,0.0,0.0,0.0,0.0,0.0,0.0,0.0,0.0,0.0,0.0,0.0,0.0,0.0,0.0,0.0,0.0,0.0,0.0,0.0,0.0,0.0,0.0,0.0,0.0,0.0,0.0,0.0,0.0,0.0,0.0,0.0,0.0,0.0,0.0,0.0,0.0,2.0488,2.143,2.162,2.1634,2.1476,2.0646,1.973,0.0,0.0,0.0,0.0,0.0,0.0,0.0,0.0,0.0,0.0,0.0,0.0,0.0,0.0,0.0,0.0,0.0,0.0,0.0,0.0,0.0,0.0,0.0,0.0,0.0,0.0,0.0,0.0,0.0,0.0,0.0,0.0,0.0,0.0,0.0,0.0,0.0,0.0,0.0,0.0,0.0,0.0,0.0,0.0,0.0,0.0,0.0,0.0,0.0,0.0,0.0,0.0,0.0,0.0,0.0,0.0,0.0,0.0,0.0,0.0,0.0,0.0,0.0,0.0,0.0,0.0,0.0,0.0,0.0,0.0,0.0,0.0,0.0,0.0,0.0,0.0,0.0,0.0,0.0,0.0,0.0,0.0,0.0,0.0,0.0,0.0,0.0,0.0,0.0,0.0,0.0,0.0,0.0,0.0,0.0,0.0,0.0,0.0,0.0,0.0,0.0,0.0,0.0,0.0,0.0,0.0,0.0,2.0505,2.1251,2.2158,2.2161,2.2028,2.1836,2.1699,2.0986,1.9584,0.0,0.0,0.0,0.0,0.0,0.0,0.0,0.0,0.0,0.0,0.0,0.0,0.0,0.0,0.0,0.0,0.0,0.0,0.0,0.0,0.0,0.0,0.0,0.0,0.0,0.0,0.0,0.0,0.0,0.0,0.0,0.0,0.0,0.0,0.0,0.0,0.0,0.0,1.3473,1.3885,0.0,0.0,0.0,0.0,0.0,0.0,0.0,0.0,1.4574,0.0,0.0,0.0,0.0,0.0,0.0,0.0,0.0,0.0,0.0,0.0,0.0,0.0,0.0,0.0,0.0,0.0,0.0,0.0,0.0,0.0,0.0,0.0,0.0,0.0,0.0,0.0,0.0,0.0,0.0,0.0,0.0,0.0,0.0,0.0,0.0,0.0,0.0,0.0,0.0,0.0,0.0,0.0,0.0,0.0,0.0,0.0,0.0,0.0,0.0,0.0,0.0,0.0,0.0,0.0,0.0,2.0529,2.0984,2.1962,2.3525,2.3301,2.3198,2.3246,2.2664,2.1893,2.0984,0.0,0.0,0.0,0.0,0.0,0.0,0.0,0.0,0.0,0.0,0.0,0.0,0.0,0.0,0.0,0.0,0.0,0.0,0.0,0.0,0.0,0.0,0.0,0.0,0.0,0.0,0.0,0.0,0.0,0.0,0.0,0.0,0.0,0.0,0.0,0.0,0.0,0.0,0.0,1.4677,1.475,0.0,0.0,0.0,0.0,0.0,0.0,0.0,0.0,1.6184,0.0,0.0,0.0,0.0,0.0,0.0,0.0,0.0,0.0,0.0,0.0,0.0,0.0,0.0,0.0,0.0,0.0,0.0,0.0,0.0,0.0,0.0,0.0,0.0,0.0,0.0,0.0,0.0,0.0,0.0,0.0,0.0,0.0,0.0,0.0,0.0,0.0,0.0,0.0,0.0,0.0,0.0,0.0,0.0,0.0,0.0,0.0,0.0,0.0,0.0,0.0,0.0,0.0,0.0,0.0,2.0096,2.1529,2.2843,2.3949,2.3676,2.3532,2.3573,2.289,2.212,0.0,0.0,0.0,0.0,0.0,0.0,0.0,0.0,0.0,0.0,0.0,0.0,0.0,0.0,0.0,0.0,0.0,0.0,0.0,0.0,0.0,0.0,0.0,0.0,0.0,0.0,0.0,0.0,0.0,0.0,0.0,0.0,0.0,0.0,0.0,0.0,0.0,0.0,0.0,0.0,1.5438,1.5776,1.5781,0.0,0.0,0.0,0.0,0.0,0.0,1.7014,1.6933,0.0,0.0,0.0,0.0,0.0,0.0,0.0,0.0,0.0,0.0,0.0,0.0,0.0,0.0,0.0,0.0,0.0,0.0,0.0,0.0,0.0,0.0,0.0,0.0,0.0,0.0,0.0,0.0,0.0,0.0,0.0,0.0,0.0,0.0,0.0,0.0,0.0,0.0,0.0,0.0,0.0,0.0,0.0,0.0,0.0,0.0,0.0,0.0,0.0,0.0,0.0,0.0,0.0,0.0,0.0,1.9978,2.2053,2.3451,2.4025,2.3771,2.3621,2.3645,2.2825,2.2098,0.0,0.0,0.0,0.0,0.0,0.0,0.0,0.0,0.0,0.0,0.0,0.0,0.0,0.0,0.0,0.0,0.0,0.0,0.0,0.0,0.0,0.0,0.0,0.0,0.0,0.0,0.0,0.0,0.0,0.0,0.0,0.0,0.0,0.0,0.0,0.0,0.0,0.0,0.0,0.0,0.0,1.6685,1.6873,1.6514,0.0,0.0,0.0,0.0,1.7591,1.7785,0.0,0.0,0.0,0.0,0.0,0.0,0.0,0.0,0.0,0.0,0.0,0.0,0.0,0.0,0.0,0.0,0.0,0.0,0.0,0.0,0.0,0.0,0.0,0.0,0.0,0.0,0.0,0.0,0.0,0.0,0.0,0.0,0.0,0.0,0.0,0.0,0.0,0.0,0.0,0.0,0.0,0.0,0.0,0.0,0.0,0.0,0.0,0.0,0.0,0.0,0.0,0.0,0.0,0.0,0.0,0.0,2.1264,2.2425,2.3304,2.3872,2.3715,2.368,2.3828,2.2644,2.2065,0.0,0.0,0.0,0.0,0.0,0.0,0.0,0.0,0.0,0.0,0.0,0.0,0.0,0.0,0.0,0.0,0.0,0.0,0.0,0.0,0.0,0.0,0.0,0.0,0.0,0.0,0.0,0.0,0.0,0.0,0.0,0.0,0.0,0.0,0.0,0.0,0.0,0.0,0.0,0.0,0.0,1.6931,1.78,1.7524,1.7245,0.0,0.0,1.8582,1.8708,1.9114,0.0,0.0,0.0,0.0,0.0,0.0,0.0,0.0,0.0,0.0,0.0,0.0,0.0,0.0,0.0,0.0,0.0,0.0,0.0,0.0,0.0,0.0,0.0,0.0,0.0,0.0,0.0,0.0,0.0,0.0,0.0,0.0,0.0,0.0,0.0,0.0,0.0,0.0,0.0,0.0,0.0,0.0,0.0,0.0,0.0,0.0,0.0,0.0,0.0,0.0,0.0,0.0,0.0,0.0,0.0,2.0213,2.0802,2.2583,2.3584,2.3725,2.364,2.37,2.3891,2.2609,2.1898,0.0,0.0,0.0,0.0,0.0,0.0,0.0,0.0,0.0,0.0,0.0,0.0,0.0,0.0,0.0,0.0,0.0,0.0,0.0,0.0,0.0,0.0,0.0,0.0,0.0,0.0,0.0,0.0,0.0,0.0,0.0,0.0,0.0,0.0,0.0,0.0,0.0,0.0,0.0,0.0,0.0,0.0,1.8451,1.8368,0.0,0.0,0.0,1.8896,1.8896,0.0,0.0,0.0,0.0,0.0,0.0,0.0,0.0,0.0,0.0,0.0,0.0,0.0,0.0,0.0,0.0,0.0,0.0,0.0,0.0,0.0,0.0,0.0,0.0,0.0,0.0,0.0,0.0,0.0,0.0,0.0,0.0,0.0,0.0,0.0,0.0,0.0,0.0,0.0,0.0,0.0,0.0,0.0,0.0,0.0,0.0,0.0,0.0,0.0,0.0,0.0,0.0,0.0,0.0,0.0,0.0,0.0,2.0574,2.2939,2.4086,2.3943,2.3937,2.4036,2.4211,2.3119,0.0,0.0,0.0,0.0,0.0,0.0,0.0,0.0,0.0,0.0,0.0,0.0,0.0,0.0,0.0,0.0,0.0,0.0,0.0,0.0,0.0,0.0,0.0,0.0,0.0,0.0,0.0,1.3544,0.0,0.0,0.0,0.0,0.0,0.0,0.0,0.0,0.0,0.0,0.0,0.0,0.0,0.0,1.8334,1.9,1.9202,1.9413,0.0,0.0,1.931,1.9462,2.0197,2.0244,0.0,0.0,0.0,0.0,0.0,0.0,0.0,0.0,0.0,0.0,0.0,0.0,0.0,0.0,0.0,0.0,0.0,0.0,0.0,0.0,0.0,0.0,0.0,0.0,0.0,0.0,0.0,0.0,0.0,0.0,0.0,0.0,0.0,0.0,0.0,0.0,0.0,0.0,0.0,0.0,0.0,0.0,0.0,0.0,0.0,0.0,0.0,0.0,0.0,0.0,0.0,0.0,0.0,0.0,0.0,2.1476,2.3732,2.4874,2.482,2.4879,2.5014,2.5195,2.4556,2.3853,0.0,0.0,0.0,0.0,0.0,0.0,0.0,0.0,0.0,0.0,0.0,0.0,0.0,0.0,0.0,0.0,0.0,0.0,0.0,0.0,0.0,0.0,0.0,0.0,0.0,0.0,0.0,0.0,0.0,0.0,0.0,0.0,0.0,0.0,0.0,0.0,0.0,0.0,0.0,0.0,0.0,1.8471,1.9505,2.0014,2.032,0.0,0.0,2.0469,2.096,2.1448,2.1295,1.9834,0.0,0.0,0.0,0.0,0.0,0.0,0.0,0.0,0.0,0.0,0.0,0.0,0.0,0.0,0.0,0.0,0.0,0.0,0.0,0.0,0.0,0.0,0.0,0.0,0.0,0.0,0.0,0.0,0.0,0.0,0.0,0.0,0.0,0.0,0.0,0.0,0.0,0.0,0.0,0.0,0.0,0.0,0.0,0.0,0.0,0.0,0.0,0.0,0.0,0.0,0.0,0.0,0.0,2.1548,2.3149,2.4381,2.5133,2.5364,2.5264,2.5275,2.5494,2.4883,2.4336,0.0,0.0,0.0,0.0,0.0,0.0,0.0,0.0,0.0,0.0,0.0,0.0,0.0,0.0,0.0,0.0,0.0,0.0,0.0,0.0,0.0,0.0,0.0,0.0,0.0,0.0,0.0,0.0,1.7323,1.7637,1.7601,0.0,0.0,0.0,0.0,0.0,0.0,0.0,0.0,0.0,0.0,1.908,2.0435,2.0772,0.0,0.0,2.1326,2.1307,2.1213,2.1354,2.1063,1.9884,1.897,0.0,0.0,0.0,0.0,0.0,0.0,0.0,0.0,0.0,0.0,0.0,0.0,0.0,0.0,0.0,0.0,0.0,0.0,0.0,0.0,0.0,0.0,0.0,0.0,0.0,0.0,0.0,0.0,0.0,0.0,0.0,0.0,0.0,0.0,0.0,0.0,0.0,0.0,0.0,0.0,0.0,0.0,0.0,0.0,0.0,0.0,0.0,0.0,0.0,0.0,0.0,0.0,2.2013,2.4187,2.5021,2.5642,2.6023,2.5796,2.5803,2.6086,2.5637,2.5141,0.0,0.0,0.0,0.0,0.0,0.0,0.0,0.0,0.0,0.0,0.0,0.0,0.0,0.0,0.0,0.0,0.0,0.0,0.0,0.0,0.0,0.0,0.0,0.0,0.0,0.0,0.0,0.0,1.799,1.8199,1.7666,0.0,0.0,0.0,0.0,0.0,0.0,0.0,0.0,0.0,0.0,1.9975,2.106,2.132,2.1484,2.1675,2.1547,2.1391,2.1232,2.1055,2.076,2.0232,0.0,0.0,0.0,0.0,0.0,0.0,0.0,0.0,0.0,0.0,0.0,0.0,0.0,0.0,0.0,0.0,0.0,0.0,0.0,0.0,0.0,0.0,0.0,0.0,0.0,0.0,0.0,0.0,0.0,0.0,1.2921,0.0,0.0,0.0,0.0,0.0,0.0,0.0,0.0,0.0,0.0,0.0,0.0,0.0,0.0,0.0,0.0,0.0,0.0,0.0,0.0,0.0,0.0,2.2357,2.4179,2.5669,2.6561,2.6769,2.6569,2.6714,2.7204,2.7061,2.6562,2.5754,0.0,0.0,0.0,0.0,0.0,0.0,0.0,0.0,0.0,0.0,0.0,0.0,0.0,0.0,0.0,0.0,0.0,0.0,0.0,0.0,0.0,0.0,0.0,0.0,0.0,0.0,1.6685,1.7861,1.8555,0.0,0.0,0.0,0.0,0.0,0.0,0.0,0.0,0.0,0.0,2.0193,2.1132,2.1178,2.1583,2.1701,2.1316,2.0802,2.0618,2.1144,2.0772,2.0584,0.0,0.0,0.0,0.0,0.0,0.0,0.0,0.0,0.0,0.0,0.0,0.0,0.0,0.0,0.0,0.0,0.0,0.0,0.0,0.0,0.0,0.0,0.0,0.0,0.0,0.0,0.0,1.4843,1.4948,0.0,0.0,0.0,0.0,0.0,0.0,0.0,0.0,0.0,0.0,0.0,1.9457,1.9421,0.0,0.0,0.0,0.0,0.0,0.0,0.0,0.0,0.0,0.0,0.0,0.0,2.2228,2.3689,2.5623,2.6794,2.7129,2.7062,2.7154,2.7428,2.7377,2.6853,2.5827,0.0,0.0,0.0,0.0,0.0,0.0,0.0,0.0,0.0,0.0,0.0,0.0,0.0,0.0,0.0,0.0,0.0,0.0,0.0,0.0,0.0,0.0,0.0,0.0,0.0,1.7769,0.0,0.0,0.0,0.0,0.0,0.0,0.0,0.0,0.0,0.0,0.0,1.9348,1.983,2.0067,2.0446,2.1106,2.102,2.1196,0.0,0.0,0.0,0.0,0.0,0.0,0.0,0.0,0.0,0.0,0.0,0.0,0.0,0.0,1.9328,1.8256,1.8345,1.8585,1.8554,0.0,0.0,0.0,0.0,0.0,0.0,0.0,0.0,0.0,0.0,0.0,0.0,0.0,0.0,1.6344,0.0,1.6378,0.0,0.0,0.0,0.0,0.0,0.0,0.0,0.0,2.0206,2.0849,2.1215,2.117,2.1174,0.0,2.0997,2.033,0.0,0.0,0.0,0.0,0.0,0.0,0.0,0.0,2.2197,2.3428,2.5645,2.6964,2.7277,2.7239,2.7285,2.7481,2.7503,2.7159,2.6414,2.5667,2.4562,0.0,0.0,0.0,0.0,0.0,0.0,0.0,0.0,0.0,0.0,0.0,0.0,0.0,0.0,0.0,0.0,0.0,0.0,0.0,0.0,0.0,0.0,0.0,1.8826,0.0,0.0,0.0,0.0,0.0,0.0,0.0,0.0,0.0,1.82,1.9353,2.035,2.0711,2.0757,2.0814,2.1031,0.0,0.0,0.0,0.0,0.0,0.0,0.0,2.0416,2.045,2.0615,2.0729,2.0741,2.0862,2.1016,2.1202,0.0,0.0,2.0027,1.9986,2.0209,2.022,2.0095,1.9985,1.9981,1.9886,1.9888,0.0,0.0,0.0,0.0,0.0,0.0,0.0,0.0,1.758,1.7412,0.0,1.8097,0.0,0.0,0.0,0.0,0.0,1.9251,0.0,0.0,2.3382,2.4148,2.3572,2.3548,2.3552,2.3504,2.2703,2.237,2.2427,2.1594,0.0,0.0,0.0,0.0,0.0,0.0,2.2369,2.3521,2.581,2.7104,2.7281,2.7113,2.718,2.7486,2.7503,2.749,2.7451,2.6449,2.5827,2.5746,2.4176,0.0,0.0,0.0,0.0,0.0,0.0,0.0,0.0,0.0,0.0,0.0,0.0,0.0,0.0,0.0,0.0,0.0,0.0,0.0,0.0,1.9753,0.0,0.0,0.0,0.0,0.0,0.0,0.0,0.0,0.0,0.0,1.9397,2.0444,2.128,2.1414,0.0,0.0,0.0,0.0,2.2159,2.0935,2.0546,2.0473,2.0569,2.0538,2.0833,2.1792,0.0,0.0,2.2778,2.2415,2.2333,2.2815,2.3721,2.3782,2.1754,2.1427,2.1379,2.1347,2.1206,2.1029,2.1005,2.1039,2.0968,1.765,0.0,0.0,0.0,0.0,1.8016,1.8994,2.0273,2.0747,2.0877,2.072,2.0777,0.0,0.0,0.0,0.0,0.0,0.0,2.1653,2.266,2.3684,2.445,2.4997,2.4992,2.4919,2.4773,2.4537,2.458,2.4876,2.4623,2.3235,2.0815,0.0,0.0,0.0,0.0,2.3141,2.474,2.6383,2.729,2.7431,2.7394,2.739,2.7503,2.7503,2.7503,2.749,2.7185,2.662,2.5832,2.5318,0.0,0.0,0.0,0.0,0.0,0.0,0.0,0.0,0.0,0.0,0.0,0.0,0.0,0.0,0.0,0.0,0.0,0.0,0.0,2.0731,2.0973,2.0809,0.0,0.0,0.0,0.0,0.0,0.0,0.0,0.0,0.0,2.2909,2.2288,2.1989,0.0,0.0,2.164,2.1274,2.1325,2.1667,2.2419,2.1643,0.0,0.0,2.2615,2.2341,2.3002,2.3833,2.4417,2.4413,2.4609,2.4828,2.4975,2.5253,2.5245,2.4716,2.4202,2.3783,2.343,2.3284,2.3266,2.3249,2.3222,2.3179,2.0209,2.0283,1.9226,1.9194,1.9896,2.0264,2.1146,2.2385,2.2923,2.2939,2.2604,2.2873,2.2451,2.1462,2.0893,0.0,0.0,0.0,2.3249,2.4283,2.4524,2.4989,2.5573,2.5518,2.543,2.53,2.5453,2.5679,2.5907,2.5815,2.4788,2.2834,0.0,0.0,2.1852,2.2839,2.3996,2.5297,2.6669,2.7415,2.7503,2.7503,2.7503,2.7503,2.7503,2.7503,2.7503,2.7503,2.7185,2.6498,2.6274,2.5424,0.0,0.0,0.0,0.0,0.0,0.0,0.0,0.0,0.0,0.0,0.0,1.9783,0.0,0.0,0.0,0.0,2.204,2.243,2.2397,2.2572,0.0,0.0,0.0,0.0,0.0,0.0,0.0,2.2244,2.3222,2.4209,2.4884,2.4108,2.3589,2.3915,2.3415,2.2882,2.2587,0.0,2.3107,2.345,2.3152,2.3219,2.4189,2.4221,2.4237,2.466,2.5195,2.5605,2.5633,2.6044,2.6402,2.6436,2.6611,2.6697,2.6445,2.6109,2.5648,2.5019,2.488,2.488,2.4877,2.4868,2.4877,2.2935,2.4259,2.1983,2.1644,2.259,2.2599,2.3111,2.3956,2.4299,2.3985,2.33,2.4392,2.4082,2.2753,2.2936,0.0,2.4046,2.4413,2.5149,2.6068,2.5894,2.5795,2.5777,2.5616,2.5502,2.5499,2.5894,2.6072,2.6091,2.5866,2.5526,2.5091,2.4547,2.3689,2.263,2.3857,2.4851,2.5443,2.6791,2.7503,2.7503,2.7503,2.7503,2.7503,2.7503,2.7503,2.7503,2.7503,2.7503,2.7477,2.7035,2.6473,2.5795,0.0,0.0,0.0,0.0,0.0,0.0,0.0,0.0,0.0,0.0,0.0,0.0,0.0,0.0,0.0,2.4988,0.0,2.4755,2.4466,0.0,0.0,0.0,2.3217,2.3776,2.3883,2.4095,2.451,0.0,0.0,2.5878,2.5839,2.5766,2.5899,2.5665,2.5241,2.4555,2.5356,2.5654,2.4392,2.4907,2.5279,2.5027,2.5712,2.6461,2.6735,2.6717,2.6824,2.6849,2.7182,2.7448,2.7529,2.7909,2.8115,2.7511,2.7458,2.7147,2.6386,2.6001,2.5878,2.5826,2.5818,2.5779,2.4178,2.5685,2.4942,2.4565,2.4439,2.4286,2.4587,2.5182,2.5581,2.5464,2.5028,2.5453,2.5609,2.5603,2.5657,2.6155,2.6978,2.7082,2.7303,2.764,2.7499,2.7441,2.7425,2.7383,2.7265,2.7165,2.7378,2.7554,2.7615,2.7095,2.7094,2.7565,2.6976,2.5847,2.4296,2.4809,2.5597,2.6593,2.7184,2.7503,2.7503,2.7503,2.7503,2.7503,2.7503,2.7503,2.7503,2.7503,2.7503,2.7498,2.7389,2.6862,2.5832,2.4586,0.0,0.0,0.0,0.0,0.0,0.0,0.0,0.0,0.0,2.0538,2.0354,0.0,2.3047,0.0,2.5138,2.6366,2.6323,2.6321,0.0,0.0,2.5012,2.4907,2.5059,2.6008,2.6467,2.5985,2.6687,2.7384,2.7815,2.7679,2.7832,2.8509,2.7207,2.6084,2.5942,2.6193,2.6536,2.6591,2.658,2.6797,2.7469,2.8188,2.8816,2.9376,2.9422,2.9444,2.9435,2.9534,2.9628,2.9628,2.9743,2.9675,2.9206,2.9194,2.9013,2.8476,2.7122,2.5913,2.5913,2.5934,2.5934,2.5227,2.6748,2.6547,2.6528,2.6548,2.5755,2.5676,2.6096,2.6254,2.6405,2.6539,2.6654,2.6858,2.7132,2.7186,2.7557,2.8135,2.8182,2.8258,2.8314,2.8165,2.8079,2.8084,2.8027,2.794,2.785,2.7997,2.8119,2.8195,2.8208,2.8465,2.8929,2.893,2.8422,2.7466,2.7398,2.7729,2.8349,2.832,2.8299,2.829,2.8307,2.8042,2.7524,2.7258,2.6909,2.6391,2.6122,2.5984,2.5991,2.5991,2.5709,2.507,2.3961,2.2655,0.0,0.0,0.0,0.0,0.0,0.0,0.0,0.0,0.0,0.0,0.0,2.4219,2.4338,2.6233,2.7304,2.7021,2.7142,2.7075,2.6761,2.6835,2.7019,2.7298,2.8007,2.8315,2.7891,2.8426,2.8875,2.8974,2.8898,2.901,2.9537,2.8575,2.7816,2.7821,2.788,2.8048,2.833,2.8451,2.881,2.9761,3.0017,3.0246,3.0542,3.0615,3.0615,3.0615,3.0615,3.0615,3.0624,3.0607,3.0496,3.0157,3.02,3.0165,2.9726,2.8817,2.7876,2.7484,2.7427,2.7427,2.6082,2.7367,2.7191,2.7612,2.8258,2.6943,2.6517,2.6752,2.6671,2.7061,2.7757,2.7741,2.7838,2.8006,2.8068,2.8295,2.8602,2.872,2.8764,2.8764,2.857,2.8473,2.8452,2.8441,2.8411,2.8425,2.8655,2.8747,2.8774,2.9435,2.9811,2.9954,3.0543,3.0923,3.1121,3.0747,3.0406,3.0138,2.9644,2.9342,2.9232,2.9145,2.8571,2.7519,2.6889,2.6081,2.5074,2.4442,2.4112,2.4118,2.4169,2.4241,2.4293,2.3303,2.2499,0.0,2.0865,0.0,0.0,0.0,0.0,0.0,0.0,0.0,0.0,2.4748,2.5313,2.6247,2.7649,2.8212,2.7476,2.7646,2.799,2.8572,2.8755,2.9034,2.9524,2.9595,2.9595,2.9595,2.9595,2.9595,2.9581,2.9651,2.9713,2.9763,2.9794,2.9761,2.981,2.9707,2.9613,2.9728,3.0255,3.066,3.1287,3.1271,3.1128,3.1197,3.1294,3.1197,3.128,3.1275,3.1247,3.1247,3.1302,3.1147,3.0767,3.0952,3.1026,3.0719,3.0483,3.0123,2.9434,2.9192,2.9354,2.6597,2.685,2.6816,2.715,2.7667,2.7376,2.7191,2.712,2.7242,2.7612,2.8087,2.7994,2.8328,2.898,2.886,2.9329,3.0167,3.0176,3.0213,3.0184,3.0,2.9908,2.9929,3.0433,3.0667,3.0711,3.1368,3.1683,3.169,3.1303,3.1482,3.2157,3.173,3.2186,3.3457,0.0,0.0,0.0,3.0033,2.9566,2.897,2.829,2.7768,2.7416,2.6356,0.0,2.518,2.4582,2.4207,2.4124,2.4564,0.0,0.0,0.0,0.0,0.0,0.0,0.0,0.0,0.0,0.0,0.0,2.4045,2.4032,2.3716,2.4877,2.6334,2.7881,2.8329,2.8676,2.9092,2.9159,2.9261,2.9373,2.9418,2.949,2.9595,2.9595,2.9595,2.9595,2.9595,2.9609,2.9651,3.0016,3.0323,3.0359,3.0797,3.1114,3.1106,3.067,3.0558,3.1014,3.125,3.1555,3.2131,3.2162,3.2239,3.2693,3.2861,3.2802,3.2774,3.2774,3.2825,3.2774,3.2847,3.2674,3.2304,3.2314,3.2192,3.186,3.1568,3.1038,2.9958,2.971,2.9631,2.7037,0.0,2.7239,2.7539,0.0,2.7986,2.7929,2.7846,2.7945,2.8271,2.876,2.9022,2.9282,2.9546,2.9624,2.9908,3.0348,3.0529,3.0749,3.1054,3.0955,3.1082,3.14,3.1725,3.1892,3.1906,3.2312,3.2497,3.251,3.2485,3.2743,3.3235,3.3253,3.3746,3.4654,3.4797,3.4005,3.234,3.1842,3.14,3.1036,3.0587,3.0061,2.9443,0.0,0.0,0.0,0.0,0.0,0.0,0.0,0.0,0.0,0.0,0.0,2.5018,2.4428,2.4204,2.4456,2.4476,2.493,2.5989,2.6453,2.6329,2.5543,2.6845,2.8088,2.8938,2.9039,2.9188,2.9545,2.9595,2.9595,2.9595,2.9595,2.9595,2.9595,2.9595,2.9595,2.9637,2.9862,3.0028,3.005,3.0598,3.0971,3.0999,3.1274,3.1634,3.1814,3.1401,3.1246,3.1842,3.223,3.2488,3.2778,3.2853,3.2901,3.3224,3.3294,3.3294,3.3294,3.3294,3.3294,3.3294,3.3294,3.3171,3.2833,3.286,3.2878,3.253,3.2431,3.2186,3.1367,3.0949,3.0717,2.7302,2.7706,2.7714,2.7955,2.8384,2.8505,2.8682,2.886,0.0,0.0,0.0,3.0084,3.0167,2.9983,3.0305,3.0437,3.0382,3.0758,3.1206,3.1676,3.1662,3.1974,3.2482,3.2635,3.2664,3.2687,3.2787,3.283,3.2845,3.3392,3.3737,3.3922,3.4571,3.5009,3.5246,3.5408,3.5166,3.4512,3.3745,3.3267,3.3154,3.2995,3.2461,3.1506,3.0201,2.8993,2.7863,2.6678,2.5967,2.5822,2.59,2.6004,2.6088,2.6221,2.6112,2.5811,2.5751,2.5944,2.6391,2.6414,2.703,2.8415,2.8765,2.8613,2.7907,2.8867,2.9532,2.9595,2.9595,2.9595,2.9595,2.9595,2.9595,2.9595,2.9595,2.9637,2.9735,2.9749,2.9833,2.996,3.0409,3.0674,3.0696,3.1254,3.1662,3.1668,3.1808,3.1963,3.2362,3.2174,3.2025,3.2488,3.2887,3.3252,3.3294,3.3266,3.3294,3.3285,3.3294,3.3294,3.3294,3.3294,3.3294,3.3294,3.3294,3.3171,3.2904,3.306,3.318,3.2878,3.3095,3.3271,3.2988,3.2461,3.206,2.7302,2.7369,2.7356,2.7581,2.7936,2.8516,2.9343,3.0236,2.9692,2.9808,3.0403,3.0327,3.0372,3.0514,3.0977,3.1208,3.1331,3.1944,3.2279,3.2358,3.2351,3.2402,3.2526,3.3095,3.3364,3.34,3.3883,3.4136,3.415,3.4217,3.4367,3.4566,3.4797,3.5075,3.5416,3.548,3.5455,3.532,3.4366,3.3568,3.2943,3.2205,3.1689,3.138,3.026,2.9086,2.8,2.7337,2.6581,2.5876,2.6303,2.6778,2.7229,2.7775,2.8246,2.8651,2.8699,2.8739,2.8782,2.8808,2.9178,2.9982,3.0115,2.9788,2.8989,2.9058,2.9281,2.9562,2.9681,2.9595,2.9595,2.9659,2.971,2.9651,2.9623,2.9791,3.0327,3.0405,3.0626,3.1153,3.1288,3.1408,3.1508,3.1962,3.2357,3.2373,3.2635,3.3027,3.3055,3.3111,3.3069,3.3154,3.3238,3.3294,3.3294,3.3294,3.3294,3.3294,3.3294,3.3294,3.3294,3.3294,3.3294,3.3294,3.3329,3.3312,3.3218,3.325,3.3355,3.3297,3.3462,3.3589,3.3788,3.3719,3.3372,2.7108,2.7332,2.7613,2.7764,2.7939,2.9232,3.0236,3.0987,3.1143,3.1138,3.1082,3.0984,3.1163,3.1526,3.1835,3.1959,3.1959,3.2326,3.2708,3.3037,3.3051,3.3217,3.3541,3.384,3.3978,3.4001,3.426,3.4397,3.4397,3.4397,3.4498,3.4706,3.4933,3.522,3.548,3.5489,3.5489,3.5489,3.5045,3.4646,3.4322,3.3926,3.3694,3.3616,3.266,3.1942,3.1432,3.0774,3.022,2.9829,3.0076,3.0157,3.0009,3.0258,3.021,2.9772,2.9736,2.9601,2.9318,2.9667,3.0028,3.0398,3.1046,3.1144,3.0457,3.0393,3.0458,3.0642,3.0841,3.0913,3.0662,3.0857,3.092,3.066,3.0628,3.0854,3.1316,3.1421,3.1649,3.2232,3.2651,3.2853,3.2876,3.3378,3.3608,3.3405,3.3383,3.3312,3.3312,3.3303,3.3303,3.3294,3.3294,3.3294,3.3294,3.3294,3.3294,3.3294,3.3294,3.3294,3.3294,3.3308,3.3317,3.332,3.3521,3.3719,3.3759,3.3997,3.4125,3.4176,3.4212,3.4352,3.4493,3.4535,3.4232,2.7023,2.7567,2.7931,2.8155,2.8421,2.9739,3.0628,3.1188,3.1905,3.2057,3.178,3.1738,3.1963,3.2354,3.2601,3.2666,3.2616,3.2819,3.3216,3.3676,3.3698,3.3935,3.4385,3.4431,3.4439,3.4414,3.4448,3.4448,3.4391,3.4448,3.4572,3.475,3.4999,3.5221,3.5431,3.548,3.5489,3.5504,3.5654,3.5669,3.5496,3.5489,3.5489,3.5449,3.4905,3.4478,3.4287,3.3742,3.337,3.3218,3.321,3.2955,3.2412,3.2349,3.1803,3.0725,3.0713,3.0546,3.0042,3.0648,3.1055,3.0986,3.2062,3.2561,3.2154,3.221,3.2002,3.1643,3.1862,3.2,3.1754,3.2057,3.2182,3.1743,3.177,3.198,3.2345,3.2542,3.281,3.3357,3.387,3.4179,3.4284,3.4599,3.4674,3.427,3.3902,3.3667,3.3664,3.3649,3.3664,3.3612,3.3486,3.3303,3.3294,3.342,3.349,3.3495,3.3629,3.3664,3.3631,3.3589,3.3716,3.3851,3.4231,3.4629,3.476,3.5067,3.5331,3.5383,3.5507,3.5617,3.5801,3.5826,3.5416,2.7215,2.8108,2.8059,2.8606,2.9456,2.9548,2.9975,3.0649,3.1202,3.1846,3.2449,3.2432,3.246,3.2568,3.3137,3.34,3.3427,3.397,3.4231,3.4275,3.431,3.4347,3.4414,3.4589,3.458,3.4448,3.4597,3.4557,3.4439,3.458,3.4725,3.4868,3.4918,3.5055,3.5251,3.5445,3.5519,3.5519,3.6111,3.6103,3.5534,3.5489,3.5489,3.5489,3.5431,3.5044,3.4394,3.4236,3.3882,3.3288,3.3239,3.3178,3.3108,3.3104,3.2745,3.1983,3.2521,3.2591,3.1983,3.2708,3.3002,3.2782,3.3539,3.3996,3.384,3.4264,3.3657,3.2224,3.2011,3.2346,3.2174,3.2689,3.2834,3.242,3.265,3.2937,3.3191,3.3529,3.4066,3.4663,3.4817,3.4812,3.4891,3.4955,3.4909,3.4851,3.466,3.4558,3.4583,3.4583,3.4599,3.4499,3.3985,3.3434,3.3429,3.3722,3.4008,3.4088,3.4438,3.4525,3.4415,3.4591,3.4856,3.4983,3.5411,3.5945,3.6341,3.6708,3.6671,3.6699,3.6972,3.7448,3.7831,3.7789,3.7222,2.6547,2.777,2.8012,2.8728,2.9692,3.0243,3.0643,3.0994,3.1995,3.264,3.2987,3.3426,3.37,3.3799,3.397,3.4053,3.4059,3.4289,3.4397,3.4397,3.4397,3.4397,3.4414,3.4614,3.4647,3.4582,3.4664,3.4673,3.4597,3.4555,3.465,3.4921,3.5286,3.552,3.5665,3.6281,3.6574,3.6463,3.6828,3.6902,3.661,3.6276,3.6096,3.6043,3.5714,3.5375,3.5052,3.5003,3.4879,3.4581,3.4564,3.4339,3.3879,3.3854,3.3512,3.2853,3.3134,3.3253,3.295,3.3573,3.3905,3.3742,3.4589,3.4983,3.4627,3.5072,3.4812,3.3849,3.398,3.4144,3.387,3.4281,3.4392,3.3957,3.4007,3.4256,3.4658,3.4842,3.5232,3.5745,3.584,3.5839,3.58,3.5575,3.5398,3.5325,3.5131,3.4973,3.4932,3.4915,3.4915,3.4857,3.4491,3.4303,3.4258,3.4398,3.472,3.508,3.5341,3.5394,3.5766,3.5891,3.6131,3.6157,3.6657,3.7052,3.7246,3.7662,3.7831,3.7908,3.792,3.8228,3.8393,3.8409,3.8005,2.5745,2.7248,2.8095,2.8751,2.934,3.0295,3.0639,3.072,3.1988,3.2715,3.302,3.3586,3.417,3.4639,3.449,3.4397,3.4405,3.4465,3.4481,3.4481,3.4481,3.4481,3.4498,3.4614,3.4681,3.4631,3.4658,3.4714,3.4746,3.4719,3.4847,3.5213,3.5863,3.6147,3.6183,3.6996,3.7302,3.7141,3.7463,3.7674,3.7614,3.7248,3.6934,3.6725,3.6291,3.602,3.602,3.6011,3.602,3.6035,3.587,3.5522,3.4949,3.4723,3.4392,3.3899,3.3748,3.3731,3.3725,3.4377,3.4679,3.4564,3.5351,3.5681,3.5333,3.56,3.5655,3.5183,3.5592,3.565,3.5276,3.5592,3.5672,3.5211,3.5236,3.5471,3.5632,3.58,3.6054,3.6437,3.6406,3.6499,3.6445,3.6163,3.5926,3.5879,3.56,3.5341,3.5333,3.5374,3.5419,3.558,3.5633,3.55,3.5272,3.5358,3.5653,3.6176,3.6513,3.6821,3.7132,3.7176,3.7378,3.7428,3.7916,3.8353,3.8684,3.8942,3.898,3.9029,3.9021,3.902,3.9205,3.9083,3.9068,2.4978,2.6913,2.8408,2.8657,2.8243,2.9121,2.9282,2.9182,3.044,3.1499,3.2267,3.2551,3.3339,3.4631,3.4481,3.4391,3.4414,3.4597,3.4664,3.4673,3.4666,3.4681,3.4689,3.4698,3.4608,3.4507,3.4639,3.4779,3.4925,3.5206,3.553,3.5867,3.6501,3.6761,3.6682,3.7184,3.732,3.7326,3.7947,3.8347,3.8356,3.8311,3.7988,3.7486,3.7306,3.7208,3.7238,3.7291,3.7268,3.7291,3.6731,3.6422,3.632,3.5804,3.5457,3.5337,3.4704,3.4302,3.4465,3.5275,3.5583,3.5154,3.5824,3.6234,3.576,3.6101,3.6163,3.5712,3.6108,3.6195,3.58,3.6069,3.6195,3.5776,3.6093,3.6124,3.576,3.6148,3.6429,3.6492,3.6499,3.6499,3.6499,3.6492,3.6414,3.6406,3.6398,3.6343,3.6258,3.632,3.655,3.6986,3.7137,3.7028,3.6205,3.6324,3.689,3.7417,3.7851,3.8194,3.8076,3.8073,3.8368,3.8693,3.9099,3.9566,4.0149,4.0327,4.0204,4.016,4.0098,4.0105,3.9905,4.0243,4.019,2.4587,2.6203,2.7077,2.7523,2.7767,2.8189,2.8599,2.903,2.975,3.0653,3.1673,3.2653,3.3416,3.3948,3.4494,3.4593,3.4431,3.4605,3.4698,3.4706,3.4792,3.4783,3.47,3.4775,3.4785,3.4742,3.47,3.4928,3.5304,3.5409,3.5723,3.6368,3.7013,3.7246,3.7229,3.7885,3.8251,3.8236,3.8653,3.8901,3.9008,3.9026,3.8907,3.8644,3.7845,3.7387,3.7387,3.7387,3.7387,3.7387,3.718,3.7075,3.7045,3.6842,3.6716,3.6669,3.6179,3.5842,3.5856,3.6009,3.6029,3.5816,3.6187,3.6452,3.6281,3.6375,3.6398,3.6297,3.6367,3.639,3.6305,3.6391,3.6437,3.6297,3.6382,3.6414,3.6281,3.6383,3.6499,3.6499,3.6499,3.6499,3.6499,3.6499,3.6499,3.6499,3.6499,3.6499,3.6499,3.6499,3.6776,3.7315,3.7515,3.7679,3.8346,3.7918,3.8052,3.8581,3.9034,3.9303,3.9341,3.9387,3.9638,3.9573,4.0017,4.0113,4.0435,4.0435,4.0489,4.0489,4.0489,4.0489,4.0489,4.0489,4.0489,2.406,2.4946,2.5588,2.6204,2.6772,2.7049,2.7678,2.852,2.9103,2.9961,3.1085,3.2137,3.2813,3.3303,3.3997,3.4258,3.4204,3.4616,3.484,3.4783,3.4933,3.491,3.4792,3.4808,3.4804,3.4792,3.4953,3.5281,3.5685,3.5918,3.632,3.6894,3.7574,3.778,3.7758,3.8398,3.8788,3.8745,3.8907,3.9104,3.9265,3.9232,3.9274,3.9245,3.8441,3.7987,3.8045,3.8045,3.8054,3.8015,3.7853,3.762,3.7441,3.7387,3.7387,3.736,3.7108,3.6929,3.6909,3.6787,3.6716,3.6757,3.6733,3.6752,3.6792,3.6638,3.6515,3.6499,3.6499,3.6499,3.6499,3.6499,3.6499,3.6499,3.6499,3.6499,3.6499,3.6492,3.6499,3.6499,3.6499,3.6499,3.6499,3.6499,3.6499,3.6499,3.6499,3.6499,3.6499,3.6722,3.7061,3.7684,3.8099,3.8691,3.9263,3.9256,3.9129,3.9569,3.967,4.0066,4.0267,4.0413,4.0489,4.0489,4.0489,4.0489,4.0489,4.0489,4.0489,4.0489,4.0489,4.0489,4.0489,4.0489,4.0479,2.3313,2.3369,2.4113,2.4808,2.5306,2.5736,2.6381,2.7336,2.8325,2.9391,3.0513,3.0791,3.1644,3.257,3.3048,3.3273,3.3745,3.4604,3.4993,3.4902,3.5098,3.509,3.491,3.4792,3.4712,3.4639,3.5321,3.5775,3.6052,3.6732,3.7245,3.7562,3.8095,3.8259,3.8183,3.8527,3.8677,3.8608,3.8714,3.8898,3.905,3.8934,3.9007,3.9292,3.9091,3.9037,3.9265,3.9278,3.9227,3.9197,3.8721,3.8101,3.768,3.7575,3.7501,3.7575,3.7449,3.7419,3.7422,3.7532,3.7599,3.7702,3.7465,3.73,3.7367,3.6999,3.6684,3.6638,3.6599,3.6553,3.653,3.6499,3.6499,3.6499,3.6499,3.6499,3.6499,3.6499,3.6499,3.6499,3.6499,3.6499,3.6499,3.6499,3.6499,3.6499,3.6499,3.6561,3.6684,3.7054,3.7699,3.8407,3.883,3.9344,3.996,4.0459,4.0428,4.0428,4.0327,4.0428,4.0397,4.0489,4.0489,4.0489,4.0489,4.0489,4.0489,4.0489,4.0489,4.0489,4.0489,4.0489,4.0489,4.0487,4.0409,2.2284,2.3085,2.34,2.3811,2.4327,2.5052,2.5799,2.6492,2.7355,2.8559,2.9874,3.0447,3.1175,3.2051,3.2652,3.3011,3.3278,3.4147,3.4683,3.4887,3.5221,3.5302,3.5098,3.4925,3.4989,3.5346,3.5885,3.6499,3.6992,3.7241,3.7509,3.7957,3.8194,3.8249,3.8212,3.8333,3.8422,3.8563,3.8562,3.8653,3.8751,3.8795,3.8879,3.8971,3.9044,3.9062,3.8998,3.9247,3.9388,3.9391,3.9197,3.8981,3.8817,3.8778,3.8763,3.8727,3.8317,3.8093,3.8035,3.7859,3.7776,3.781,3.7848,3.7923,3.799,3.7896,3.7622,3.7277,3.7184,3.703,3.6623,3.6499,3.6515,3.6499,3.6499,3.6499,3.6499,3.6499,3.6499,3.6499,3.6499,3.6499,3.6499,3.6499,3.6499,3.6499,3.6499,3.6615,3.7108,3.7353,3.7992,3.8953,3.9375,3.976,4.0213,4.0489,4.0489,4.0489,4.0489,4.0489,4.0489,4.0489,4.0489,4.0489,4.0489,4.0489,4.0489,4.0489,4.0489,4.0489,4.0489,4.0489,4.0489,4.0453,4.0366,2.1507,2.2197,2.2569,2.3105,2.3725,2.4434,2.5189,2.6058,2.6936,2.8011,2.9138,3.0024,3.0641,3.1267,3.2169,3.2582,3.2704,3.3751,3.4251,3.4387,3.518,3.5367,3.5157,3.4861,3.5114,3.578,3.6351,3.6946,3.7526,3.7612,3.7839,3.8159,3.8212,3.8212,3.8212,3.8212,3.8306,3.8418,3.8404,3.8401,3.8454,3.8535,3.8644,3.8788,3.8867,3.8857,3.881,3.9123,3.9283,3.9301,3.937,3.9397,3.9397,3.9367,3.9397,3.9307,3.9041,3.8781,3.873,3.8525,3.8376,3.8441,3.8418,3.8461,3.8509,3.8551,3.8172,3.7953,3.7853,3.7615,3.7038,3.6884,3.6776,3.6515,3.6499,3.6499,3.6499,3.6499,3.6499,3.6499,3.6499,3.6499,3.6499,3.6499,3.6499,3.6499,3.6515,3.6753,3.7338,3.7715,3.853,3.9261,3.9729,4.0083,4.0382,4.0489,4.0489,4.0489,4.0489,4.0489,4.0489,4.0489,4.0489,4.0489,4.0489,4.0489,4.0489,4.0489,4.0489,4.0489,4.0489,4.047,4.0444,4.0383,4.0294,2.0926,2.0748,2.1624,2.2522,2.3345,2.3724,2.4542,2.5746,2.6833,2.7659,2.8415,2.9416,2.9976,3.0339,3.1447,3.1892,3.206,3.3266,3.3613,3.3581,3.4404,3.5123,3.511,3.4933,3.5293,3.6036,3.6772,3.7259,3.7695,3.7943,3.8212,3.8202,3.8212,3.8212,3.8212,3.8212,3.8212,3.823,3.8221,3.8224,3.8235,3.8234,3.8389,3.8699,3.8627,3.8608,3.8723,3.8943,3.909,3.9141,3.9319,3.9397,3.9397,3.9397,3.9397,3.9397,3.9391,3.9346,3.9367,3.9245,3.9286,3.9387,3.9044,3.8862,3.9094,3.8854,3.8579,3.8519,3.8521,3.8284,3.7738,3.7554,3.7261,3.6699,3.6561,3.6515,3.6499,3.6499,3.6499,3.6499,3.6499,3.6499,3.6499,3.6499,3.6499,3.653,3.6576,3.7015,3.7584,3.8192,3.8823,3.9461,4.0083,4.0252,4.0489,4.0489,4.0489,4.0489,4.0489,4.0489,4.0489,4.0489,4.0489,4.0489,4.0489,4.0489,4.0489,4.0489,4.0489,4.0489,4.0463,4.0427,4.0357,4.027,4.0113,1.9701,2.0867,2.0979,2.1559,2.252,2.3235,2.4059,2.4925,2.584,2.7008,2.8085,2.8843,2.9467,3.0059,3.0712,3.1114,3.15,3.2286,3.2617,3.2515,3.3306,3.4364,3.5173,3.569,3.6091,3.6665,3.736,3.8024,3.8221,3.8199,3.8212,3.8212,3.8212,3.8212,3.8212,3.8212,3.8212,3.8212,3.8212,3.8212,3.8211,3.8206,3.824,3.8333,3.845,3.845,3.8417,3.8681,3.905,3.9301,3.937,3.9397,3.9388,3.9397,3.9397,3.9397,3.9397,3.9397,3.9397,3.9397,3.9418,3.9481,3.9405,3.9493,3.9567,3.968,3.9467,3.9239,3.9107,3.8945,3.8391,3.8199,3.7876,3.7331,3.6853,3.6546,3.6499,3.6499,3.6499,3.6499,3.6499,3.6499,3.6499,3.6499,3.6499,3.6553,3.6907,3.7415,3.8007,3.8684,3.9307,3.9898,4.0397,4.0443,4.0489,4.0489,4.0489,4.0489,4.0489,4.0489,4.0489,4.0489,4.0489,4.0489,4.0489,4.0489,4.0489,4.0489,4.0489,4.0489,4.0418,4.034,4.0218,4.0113,3.9919,1.9191,1.9974,2.0613,2.1181,2.1789,2.2973,2.366,2.4135,2.5274,2.6277,2.7254,2.8173,2.8939,2.9629,3.0165,3.0634,3.1067,3.1786,3.1915,3.1764,3.2421,3.35,3.4733,3.58,3.6496,3.6904,3.7594,3.8068,3.8288,3.8249,3.8212,3.8212,3.8212,3.8212,3.8212,3.8212,3.8212,3.8212,3.8212,3.8212,3.8212,3.8212,3.8212,3.8221,3.8338,3.8338,3.8385,3.864,3.8925,3.9132,3.9283,3.937,3.9292,3.937,3.9397,3.9397,3.9397,3.9397,3.9397,3.9397,3.9397,3.9415,3.9541,3.9631,3.9708,3.993,3.9808,3.9612,3.9663,3.9346,3.8821,3.8519,3.8248,3.7922,3.7331,3.6823,3.6569,3.6499,3.6499,3.6499,3.6499,3.6499,3.6499,3.6499,3.6499,3.6623,3.7069,3.7677,3.8346,3.9076,3.9714,4.0237,4.0489,4.0489,4.0489,4.0489,4.0489,4.0489,4.0489,4.0489,4.0489,4.0489,4.0489,4.0489,4.0489,4.0489,4.0489,4.0489,4.0489,4.047,4.0357,4.025,4.0128,3.9936,3.9732,1.8922,1.8677,2.0308,2.1002,2.1235,2.2569,2.3117,2.3456,2.4691,2.5589,2.6183,2.7428,2.8353,2.9042,2.9758,3.0346,3.0898,3.1538,3.1496,3.1468,3.1887,3.2885,3.4057,3.5549,3.6468,3.7043,3.7483,3.7919,3.8213,3.824,3.8212,3.8212,3.8212,3.8212,3.8212,3.8212,3.8212,3.8212,3.8212,3.8212,3.8212,3.8212,3.8212,3.8212,3.8221,3.831,3.8441,3.8621,3.8754,3.8736,3.915,3.9301,3.9201,3.9319,3.9373,3.9397,3.9397,3.9397,3.9397,3.9397,3.9397,3.9406,3.9406,3.9478,3.9634,3.9717,3.98,3.983,3.9963,3.9666,3.9221,3.8662,3.8477,3.8417,3.7967,3.7353,3.6861,3.6584,3.6499,3.6499,3.6499,3.6499,3.6499,3.6499,3.6499,3.6584,3.7153,3.7946,3.863,3.9314,3.9883,4.0366,4.0489,4.0489,4.0489,4.0489,4.0489,4.0489,4.0489,4.0489,4.0489,4.0489,4.0489,4.0489,4.0489,4.0489,4.0489,4.0489,4.0489,4.0436,4.0331,4.0198,4.004,3.9794,3.9571,1.7835,1.9255,1.9094,1.9806,2.0943,2.1403,2.215,2.3117,2.351,2.4553,2.5735,2.6731,2.7588,2.8456,2.9387,3.0107,3.0298,3.0891,3.1095,3.1161,3.1745,3.2345,3.338,3.4994,3.6596,3.7481,3.8099,3.8341,3.8408,3.8277,3.8212,3.8212,3.8212,3.8212,3.8212,3.8212,3.8212,3.8212,3.8212,3.8212,3.8212,3.8212,3.8212,3.8212,3.8212,3.8221,3.8287,3.846,3.8497,3.8547,3.8953,3.9352,3.9292,3.9361,3.9397,3.9397,3.9397,3.9397,3.9397,3.9397,3.9397,3.9397,3.9397,3.9424,3.9469,3.9616,3.9705,3.9794,3.9892,3.986,3.9683,3.927,3.9076,3.8953,3.8602,3.823,3.7938,3.7123,3.6623,3.6546,3.653,3.6499,3.6499,3.6499,3.6546,3.6645,3.7284,3.8176,3.8845,3.9468,3.999,4.0421,4.0489,4.0489,4.0489,4.0489,4.0489,4.0489,4.0489,4.0489,4.0489,4.0489,4.0489,4.0489,4.0489,4.0489,4.0489,4.0489,4.0489,4.0401,4.0288,4.0119,3.9925,3.9661,3.9499,1.7283,1.8137,1.845,1.9335,2.0447,2.0954,2.1704,2.26,2.3127,2.3726,2.467,2.5745,2.6771,2.762,2.8629,2.926,2.9678,3.0228,3.0719,3.0992,3.1454,3.1975,3.2805,3.4168,3.5701,3.7206,3.8262,3.8546,3.8478,3.832,3.8212,3.8212,3.8212,3.8212,3.8212,3.8212,3.8212,3.8212,3.8212,3.8212,3.8212,3.8212,3.8212,3.8212,3.8212,3.8212,3.8221,3.8404,3.8432,3.8525,3.8912,3.9195,3.9192,3.9301,3.9388,3.9397,3.9397,3.9397,3.9397,3.9397,3.9397,3.9397,3.9397,3.9397,3.9415,3.9523,3.9544,3.9586,3.9658,3.9738,3.9824,3.9652,3.9501,3.958,3.9176,3.8885,3.8736,3.78,3.6977,3.6884,3.6715,3.6561,3.6499,3.6499,3.6515,3.6592,3.7123,3.7976,3.8614,3.9237,3.9922,4.0313,4.0452,4.0489,4.0489,4.0489,4.0489,4.0489,4.0489,4.0489,4.0489,4.0489,4.0489,4.0489,4.0489,4.0489,4.0489,4.0489,4.047,4.0349,4.0209,4.0016,3.9827,3.9598,3.9487,1.6864,1.6793,1.7975,1.8926,1.9761,2.0656,2.1369,2.2021,2.2895,2.3236,2.3422,2.4819,2.5724,2.672,2.7588,2.8351,2.9143,2.9767,3.0365,3.0725,3.1001,3.163,3.2503,3.3452,3.4562,3.6208,3.7653,3.8299,3.8441,3.832,3.8212,3.8212,3.8212,3.8212,3.8212,3.8212,3.8212,3.8212,3.8212,3.8212,3.8212,3.8212,3.8212,3.8212,3.8212,3.8212,3.823,3.8348,3.8422,3.8478,3.8821,3.8879,3.8922,3.9165,3.9379,3.937,3.9355,3.9397,3.9397,3.9397,3.9397,3.9397,3.9397,3.9499,3.958,3.9535,3.9544,3.9571,3.9625,3.9514,3.9628,3.965,3.984,3.9958,3.9603,3.9462,3.9312,3.848,3.7866,3.7369,3.7061,3.6846,3.6607,3.6499,3.6499,3.6607,3.7138,3.7723,3.8376,3.9045,3.9722,4.0283,4.0452,4.0489,4.0489,4.0489,4.0489,4.0489,4.0489,4.0489,4.0489,4.0489,4.0489,4.0489,4.0489,4.0489,4.0489,4.0489,4.0436,4.0296,4.0139,3.9978,3.9774,3.9559,3.9469,1.6121,1.7173,1.7021,1.761,1.8727,1.9712,2.0563,2.1255,2.2045,2.2764,2.3389,2.3564,2.4596,2.5777,2.671,2.7778,2.8895,2.961,3.0037,3.0346,3.0704,3.1378,3.184,3.2836,3.3834,3.4844,3.6365,3.7577,3.8244,3.8329,3.8212,3.8212,3.8212,3.8212,3.8212,3.8212,3.8212,3.8212,3.8212,3.8212,3.8212,3.8212,3.8212,3.8212,3.8212,3.8212,3.8212,3.823,3.824,3.8268,3.8488,3.8586,3.8664,3.9065,3.9256,3.9232,3.9328,3.9415,3.9499,3.9424,3.9406,3.9397,3.9478,3.977,3.9968,3.9815,3.9744,3.9859,3.9672,3.9424,3.9454,3.9589,3.9714,3.9793,3.9848,3.9823,3.9732,3.9263,3.8457,3.7858,3.7491,3.7061,3.6722,3.6499,3.6499,3.6592,3.6938,3.7538,3.8176,3.8861,3.9568,4.0067,4.0474,4.0489,4.0489,4.0489,4.0489,4.0489,4.0489,4.0489,4.0489,4.0489,4.0489,4.0489,4.0489,4.0489,4.0489,4.0489,4.0427,4.032,4.0137,3.9934,3.9732,3.9553,3.9451,1.5272,1.6499,1.6558,1.7377,1.8546,1.9094,2.0034,2.1114,2.1546,2.2091,2.2709,2.3159,2.365,2.4606,2.5787,2.7139,2.843,2.926,2.9678,3.0034,3.0657,3.1,3.118,3.2131,3.2852,3.3674,3.4881,3.6395,3.7734,3.8103,3.8136,3.8212,3.8212,3.8212,3.8212,3.8212,3.8212,3.8212,3.8212,3.8212,3.8212,3.8212,3.8212,3.8212,3.8212,3.8212,3.8212,3.8212,3.8212,3.824,3.8394,3.8413,3.8525,3.8765,3.9104,3.9123,3.9283,3.9583,3.9761,3.9699,3.9553,3.9941,3.995,4.0117,4.0305,4.0198,4.0012,3.9841,3.9753,3.9397,3.9415,3.949,3.958,3.9705,3.9785,3.9865,3.9893,3.9708,3.9108,3.8312,3.7789,3.726,3.6653,3.6499,3.6499,3.663,3.6815,3.7338,3.7969,3.8453,3.9045,3.9791,4.0221,4.0428,4.0443,4.0489,4.0489,4.0489,4.0489,4.0489,4.0489,4.0489,4.0489,4.0489,4.0489,4.0489,4.0489,4.0505,4.0409,4.032,4.0128,3.9934,3.9732,3.9571,3.9469,1.4609,1.5991,1.6298,1.7295,1.8542,1.8784,1.9533,2.0669,2.1172,2.157,2.2032,2.2775,2.317,2.3682,2.4988,2.6545,2.7804,2.847,2.9211,2.9793,3.0409,3.0726,3.0952,3.1287,3.1974,3.2669,3.3718,3.4863,3.6626,3.7505,3.7877,3.7933,3.8009,3.8212,3.8212,3.8212,3.8212,3.8212,3.8212,3.8212,3.8212,3.8212,3.8212,3.8212,3.8212,3.8212,3.8212,3.8212,3.8212,3.824,3.8329,3.8366,3.8296,3.8542,3.8815,3.8986,3.9201,3.9657,3.9835,3.9779,3.9583,3.9961,4.0357,4.0538,4.0744,4.0686,4.0443,3.9806,3.9442,3.9406,3.9397,3.9406,3.9472,3.9571,3.9634,3.9679,3.9777,3.9717,3.9551,3.8855,3.8159,3.7559,3.6999,3.6499,3.6499,3.6499,3.6676,3.7022,3.7576,3.7677,3.8284,3.9276,3.9898,4.0237,4.0382,4.0489,4.0489,4.0489,4.0489,4.0489,4.0489,4.0489,4.0489,4.0489,4.0489,4.0489,4.0489,4.0463,4.0375,4.0253,4.011,3.9907,3.9634,3.9508,3.9433,1.4489,1.6471,1.6057,1.6774,1.8141,1.86,1.8868,1.9304,2.0622,2.1306,2.1492,2.2011,2.2698,2.3617,2.4999,2.584,2.6545,2.7752,2.8702,2.925,2.9835,3.039,3.0873,3.1306,3.1481,3.198,3.3066,3.444,3.5628,3.654,3.7043,3.7159,3.773,3.8165,3.8009,3.8155,3.8212,3.8212,3.8212,3.8212,3.8212,3.8212,3.8212,3.8212,3.8212,3.8212,3.8212,3.8212,3.8212,3.8212,3.823,3.823,3.824,3.8413,3.8516,3.8673,3.8894,3.9201,3.9388,3.9394,3.9454,3.9817,4.0209,4.0754,4.1185,4.1269,4.1,4.0435,3.98,3.9424,3.9397,3.9397,3.9409,3.9451,3.9487,3.9478,3.9532,3.9679,3.951,3.9172,3.843,3.7976,3.7483,3.6938,3.6499,3.6499,3.6576,3.6907,3.7215,3.7353,3.7615,3.8623,3.9368,3.9729,4.0098,4.0228,4.0413,4.0428,4.0489,4.0489,4.0489,4.0489,4.0489,4.0489,4.0489,4.0489,4.0489,4.0444,4.0331,4.0209,4.0093,3.9809,3.9481,3.9424,3.9406,1.3818,1.5888,1.5842,1.6687,1.7998,1.7994,1.8288,1.8868,1.9544,2.0441,2.1181,2.138,2.2126,2.3346,2.4563,2.5347,2.6048,2.7418,2.8297,2.8673,2.9243,2.9832,3.0308,3.0625,3.083,3.1571,3.2064,3.2658,3.4001,3.5342,3.6181,3.63,3.699,3.7433,3.7615,3.7981,3.8155,3.8212,3.8212,3.8212,3.8212,3.8212,3.8212,3.8212,3.8212,3.8212,3.8212,3.8212,3.8212,3.8212,3.8212,3.8212,3.8212,3.8277,3.8338,3.8366,3.859,3.8998,3.9472,3.9325,3.9394,3.9855,4.0497,4.1368,4.1836,4.1722,4.1268,4.0547,3.9817,3.9454,3.9406,3.9397,3.9397,3.9397,3.9397,3.9397,3.9415,3.9454,3.9412,3.908,3.872,3.8234,3.7688,3.703,3.6569,3.6499,3.6499,3.6661,3.6984,3.7246,3.7554,3.8031,3.8653,3.9138,3.9529,3.9837,4.0151,4.0274,4.0498,4.0498,4.0489,4.0489,4.0489,4.0489,4.0489,4.0489,4.0489,4.0455,4.0385,4.0235,4.0075,3.9827,3.9577,3.9433,3.9415,1.3348,1.4978,1.5693,1.6746,1.7858,1.7602,1.7831,1.838,1.8753,1.9673,2.0802,2.128,2.1993,2.2821,2.3757,2.4595,2.5537,2.6958,2.7783,2.8237,2.8714,2.9309,2.9877,3.0132,3.0532,3.1364,3.149,3.1826,3.2593,3.3773,3.485,3.5312,3.6148,3.6698,3.7053,3.7472,3.7848,3.8212,3.8212,3.8212,3.8212,3.8212,3.8212,3.8212,3.8212,3.8202,3.8202,3.8142,3.8123,3.8212,3.8132,3.8123,3.8193,3.8221,3.823,3.8258,3.8404,3.8662,3.9042,3.9147,3.9268,3.9843,4.0816,4.1681,4.2538,4.215,4.1484,4.0898,4.0181,3.9726,3.9451,3.9397,3.9397,3.9397,3.9397,3.9397,3.9406,3.9445,3.946,3.9273,3.8892,3.8341,3.7751,3.7052,3.6661,3.6546,3.6499,3.6499,3.673,3.7038,3.7331,3.7661,3.7961,3.8515,3.8999,3.9384,3.9729,4.0067,4.0283,4.0467,4.0452,4.0474,4.0489,4.0489,4.0496,4.0489,4.0489,4.0481,4.0446,4.0279,4.011,3.9934,3.9729,3.955,3.9415,1.337,1.3807,1.5722,1.684,1.7454,1.7858,1.78,1.768,1.8415,1.9307,2.0455,2.1494,2.1934,2.2399,2.2942,2.3726,2.4701,2.5547,2.6825,2.7785,2.8327,2.8858,2.9435,2.9896,3.027,3.0936,3.1157,3.1293,3.1543,3.2357,3.3475,3.4417,3.5268,3.6084,3.6606,3.6932,3.7491,3.7905,3.8118,3.8212,3.8212,3.8212,3.8212,3.8212,3.8212,3.8202,3.8183,3.8057,3.801,3.8165,3.8038,3.8024,3.8132,3.8146,3.8146,3.8212,3.824,3.8427,3.8542,3.8773,3.891,3.9352,4.0313,4.1788,4.2989,4.2749,4.2142,4.1303,4.048,3.9908,3.9589,3.9397,3.9415,3.9562,3.9607,3.9568,3.9517,3.9418,3.9436,3.941,3.8949,3.8208,3.766,3.6918,3.6637,3.6499,3.6499,3.6499,3.6499,3.6746,3.6992,3.7254,3.7415,3.7877,3.8477,3.8838,3.9107,3.9544,3.9898,4.016,4.0344,4.0397,4.0489,4.0479,4.047,4.0487,4.0489,4.0472,4.042,4.0288,4.0145,3.9996,3.9774,3.955,3.9451,1.3401,1.3926,1.5627,1.692,1.7808,1.8021,1.7982,1.78,1.7885,1.8715,2.0056,2.0472,2.1188,2.1911,2.214,2.3055,2.4456,2.54,2.6474,2.7207,2.7706,2.8127,2.8752,2.9377,2.9745,3.0375,3.0804,3.1232,3.1457,3.1631,3.2176,3.3199,3.4293,3.4859,3.5457,3.6413,3.7111,3.7467,3.7933,3.8202,3.8212,3.8212,3.8212,3.8212,3.8212,3.8212,3.8193,3.8132,3.8076,3.8,3.7929,3.7967,3.8024,3.8019,3.8085,3.8174,3.8202,3.8212,3.823,3.8547,3.9029,4.0091,4.075,4.1608,4.3051,4.2499,4.1892,4.121,4.0581,3.9906,3.9526,3.9433,3.9499,3.977,3.9859,3.9779,3.9643,3.9508,3.9337,3.9279,3.8555,3.7753,3.7253,3.6753,3.6597,3.6476,3.6484,3.6499,3.6499,3.6499,3.6746,3.6884,3.7015,3.723,3.78,3.8146,3.8461,3.8938,3.9437,3.976,4.0037,4.0406,4.0474,4.0446,4.0436,4.0462,4.047,4.0463,4.0418,4.0322,4.02,4.0069,3.983,3.9568,3.9478,1.3294,1.3674,1.5597,1.6925,1.7723,1.7994,1.8102,1.804,1.773,1.8438,1.9934,1.9783,2.0628,2.1758,2.1608,2.241,2.3833,2.4734,2.5673,2.6341,2.6816,2.7349,2.8105,2.8838,2.9491,2.9989,3.0527,3.1014,3.1161,3.1105,3.1516,3.2258,3.3201,3.3859,3.4861,3.597,3.6985,3.741,3.7786,3.8202,3.8212,3.8212,3.8212,3.8212,3.8212,3.8212,3.8174,3.8104,3.8024,3.7929,3.7853,3.7844,3.7882,3.7929,3.8015,3.8132,3.8212,3.8212,3.824,3.8436,3.916,4.0302,4.0656,4.1633,4.2443,4.2373,4.2174,4.1269,4.048,3.9844,3.9592,3.9565,3.9637,3.9853,4.0065,4.0012,3.9735,3.9556,3.9316,3.9103,3.8312,3.76,3.724,3.6821,3.6571,3.649,3.6492,3.6499,3.6499,3.6499,3.653,3.6607,3.6638,3.6853,3.7115,3.7569,3.7992,3.8223,3.8722,3.9269,3.9614,3.999,4.0366,4.0463,4.0453,4.0444,4.0462,4.0472,4.0429,4.0368,4.027,4.0148,3.9857,3.9607,3.9514,1.3071,1.2739,1.565,1.692,1.7089,1.7793,1.8133,1.8149,1.8028,1.8723,1.9866,1.9792,2.0743,2.19,2.115,2.181,2.3291,2.3574,2.4339,2.5715,2.6143,2.6876,2.7842,2.868,2.9209,2.9999,3.0473,3.0724,3.082,3.1081,3.1227,3.1484,3.2391,3.3277,3.4428,3.602,3.7227,3.7962,3.799,3.808,3.8212,3.8212,3.8212,3.8212,3.8212,3.8212,3.8174,3.8085,3.7996,3.7901,3.7739,3.7749,3.7872,3.7863,3.7962,3.8174,3.8202,3.8212,3.8212,3.8212,3.9094,4.0295,4.069,4.1542,4.2625,4.286,4.2404,4.1252,4.0891,4.0341,4.0034,3.9731,3.9737,3.995,4.0146,4.0128,3.9844,3.9547,3.9304,3.8942,3.8281,3.7647,3.7298,3.6947,3.6627,3.6496,3.6499,3.6499,3.6468,3.6453,3.6429,3.6453,3.6453,3.6592,3.6869,3.7207,3.7523,3.7692,3.8015,3.8539,3.8992,3.9322,3.9736,4.0218,4.0317,4.0185,4.0325,4.0489,4.0446,4.0427,4.034,4.0207,3.9901,3.967,3.9553,1.345,1.2775,1.505,1.6268,1.6803,1.7847,1.8376,1.8423,1.7978,1.8226,1.8903,1.8434,1.9484,2.0676,2.0746,2.1074,2.304,2.3292,2.4072,2.5568,2.5704,2.6506,2.745,2.8225,2.8831,2.9416,3.0008,3.0583,3.0937,3.0989,3.119,3.1455,3.196,3.2804,3.3616,3.4731,3.5635,3.6429,3.6981,3.7558,3.8108,3.8174,3.8174,3.8183,3.8212,3.8212,3.8212,3.8089,3.8019,3.7891,3.7711,3.7711,3.7825,3.783,3.7868,3.8108,3.8212,3.8212,3.8365,3.8629,3.9358,4.0209,4.0951,4.1665,4.2743,4.246,4.1843,4.1152,4.0713,4.0063,3.9454,3.9337,3.9451,4.0014,4.0216,4.0143,3.9906,3.9583,3.926,3.8793,3.8203,3.7884,3.7546,3.73,3.6985,3.6774,3.6779,3.6431,3.6308,3.6303,3.6297,3.6344,3.6375,3.646,3.663,3.6836,3.6944,3.7037,3.7353,3.7784,3.8207,3.863,3.9072,3.9537,3.9731,3.991,4.0209,4.047,4.0481,4.047,4.0392,4.0277,4.0031,3.9801,3.9607,1.3878,1.3216,1.4974,1.6121,1.6821,1.7761,1.8373,1.8589,1.7963,1.8052,1.8461,1.7695,1.8519,2.0048,2.0184,2.0297,2.2569,2.2798,2.3248,2.4829,2.5242,2.5862,2.6692,2.7704,2.8397,2.891,2.9406,3.0008,3.0549,3.0505,3.0801,3.1323,3.1789,3.2202,3.2924,3.3877,3.4937,3.5702,3.6316,3.6854,3.74,3.772,3.7877,3.8099,3.8212,3.8212,3.8212,3.8165,3.8113,3.792,3.7768,3.7711,3.7777,3.7777,3.782,3.8071,3.8212,3.8212,3.8347,3.9233,3.9877,4.0363,4.1102,4.1868,4.246,4.2238,4.155,4.085,4.0239,3.96,3.9071,3.9017,3.9562,4.0146,4.0198,4.0111,4.0082,3.9755,3.9337,3.8841,3.8478,3.8143,3.7835,3.7633,3.7385,3.7211,3.7043,3.6694,3.6366,3.6418,3.6353,3.6271,3.6279,3.6303,3.6304,3.6326,3.6411,3.6421,3.6752,3.7151,3.76,3.8069,3.8463,3.8905,3.9332,3.9765,4.0205,4.0436,4.0472,4.0472,4.0429,4.0296,4.0143,3.9943,3.9756,1.4232,1.3824,1.5433,1.6459,1.6986,1.7498,1.8153,1.8762,1.8288,1.8326,1.8669,1.7761,1.8488,1.9835,1.9954,2.0495,2.1291,2.1922,2.2721,2.3475,2.4403,2.5168,2.6216,2.7357,2.8027,2.8397,2.8821,2.9377,2.9922,3.0136,3.0528,3.1005,3.1207,3.1587,3.2367,3.3275,3.4413,3.5136,3.5511,3.6072,3.6678,3.6864,3.7155,3.7486,3.781,3.79,3.7981,3.808,3.8061,3.7924,3.773,3.7758,3.7758,3.7701,3.7887,3.8071,3.8202,3.823,3.8564,3.962,4.0139,4.0476,4.1094,4.1827,4.2206,4.2094,4.1369,4.068,4.0032,3.9349,3.8769,3.9301,3.9847,4.0076,4.0165,4.0189,4.0233,3.9959,3.9502,3.9098,3.8781,3.8457,3.8098,3.7867,3.8021,3.7993,3.7846,3.7568,3.7245,3.6953,3.6792,3.627,3.6241,3.6143,3.6113,3.6123,3.614,3.6234,3.6257,3.6586,3.7042,3.7445,3.7773,3.8271,3.9043,3.9589,3.9955,4.0262,4.0481,4.0472,4.0455,4.0375,4.0224,4.0119,3.9943,1.4334,1.3974,1.5528,1.6194,1.6298,1.7267,1.8319,1.918,1.8496,1.8195,1.8292,1.8376,1.8661,1.925,2.0342,2.0892,2.1336,2.19,2.2742,2.3464,2.407,2.5073,2.605,2.697,2.7676,2.8089,2.8427,2.8759,2.9348,2.9687,3.0219,3.0759,3.0847,3.1115,3.1564,3.233,3.3517,3.4386,3.4668,3.5251,3.5752,3.5983,3.629,3.6557,3.7188,3.7314,3.7443,3.7962,3.8071,3.8094,3.7763,3.7711,3.7863,3.773,3.7773,3.8136,3.8258,3.8403,3.9003,3.9859,4.0408,4.0545,4.1094,4.1811,4.2158,4.1868,4.1146,4.0511,3.9742,3.9014,3.864,3.9017,3.9583,3.9887,3.9896,3.9805,3.9864,3.9782,3.9376,3.9322,3.8996,3.8922,3.8539,3.8607,3.8754,3.8787,3.867,3.8366,3.8039,3.7714,3.7215,3.6674,3.6367,3.6301,3.6101,3.6058,3.6059,3.606,3.6084,3.6116,3.6464,3.6842,3.7096,3.7689,3.8545,3.9168,3.9644,3.996,4.0283,4.0474,4.0472,4.0409,4.0322,4.0224,4.0093,1.4136,1.3962,1.5278,1.5962,1.6298,1.7361,1.8423,1.9103,1.8858,1.8519,1.8149,1.8361,1.8519,1.8781,2.0034,2.0869,2.1056,2.2,2.2739,2.3027,2.3876,2.4648,2.5547,2.6383,2.7032,2.7522,2.7898,2.8127,2.8759,2.9318,2.9841,2.9891,3.0309,3.0497,3.0819,3.1517,3.2418,3.322,3.3808,3.4363,3.4803,3.5159,3.5288,3.5658,3.6393,3.6751,3.6975,3.7701,3.8113,3.8146,3.782,3.7711,3.7853,3.7787,3.7839,3.8155,3.8221,3.8607,3.9184,3.9953,4.0295,4.0571,4.1044,4.1607,4.1492,4.1103,4.0716,4.0267,3.9421,3.873,3.8584,3.8562,3.9142,3.9686,3.9496,3.9319,3.9361,3.9424,3.9394,3.9406,3.9352,3.9352,3.9337,3.9397,3.9382,3.9233,3.9128,3.8999,3.8639,3.8257,3.77,3.7092,3.676,3.6538,3.6288,3.5997,3.5876,3.5862,3.5871,3.595,3.6093,3.6372,3.6765,3.7373,3.8091,3.8691,3.9283,3.9707,4.0045,4.0283,4.0489,4.0462,4.0392,4.0314,4.0174,1.3866,1.3745,1.4956,1.5878,1.6586,1.759,1.8315,1.8784,1.9317,1.9134,1.84,1.8265,1.8346,1.8662,1.9761,2.0498,2.0999,2.1878,2.2474,2.2498,2.3388,2.4167,2.4787,2.5526,2.6434,2.692,2.7332,2.7736,2.8237,2.8752,2.9015,2.8831,2.9131,2.9532,3.0109,3.0853,3.1688,3.2325,3.3062,3.3704,3.4094,3.4395,3.4651,3.5288,3.6006,3.6624,3.6927,3.7481,3.8146,3.8047,3.791,3.772,3.7768,3.7834,3.7962,3.8132,3.8202,3.878,3.932,3.9938,4.0224,4.0535,4.0951,4.1036,4.0699,4.0313,3.9991,4.005,3.9364,3.8648,3.8361,3.8422,3.8837,3.9163,3.9145,3.9268,3.9535,3.9478,3.9295,3.9334,3.9397,3.9397,3.9397,3.9397,3.9397,3.9397,3.9382,3.9331,3.9161,3.8754,3.8254,3.7595,3.7167,3.682,3.6361,3.6057,3.5719,3.5645,3.5679,3.5784,3.5951,3.6208,3.6488,3.7074,3.7653,3.8338,3.8922,3.9384,3.9891,4.0329,4.0489,4.0489,4.0462,4.0392,4.0296,1.4651,1.4514,1.5559,1.5938,1.5991,1.745,1.8036,1.8114,1.9523,1.9783,1.9306,1.9145,1.8938,1.8854,1.9647,2.0362,2.0966,2.1624,2.2179,2.2731,2.3366,2.3714,2.4253,2.52,2.5945,2.633,2.6786,2.7434,2.8008,2.8357,2.8643,2.8878,2.8774,2.8764,2.9408,3.0224,3.1005,3.1564,3.2714,3.3234,3.3486,3.3464,3.3622,3.4039,3.4579,3.5494,3.5993,3.6776,3.7548,3.7957,3.7754,3.7672,3.7672,3.7682,3.7858,3.8108,3.8221,3.8844,3.9475,3.9788,3.9874,4.0032,4.0174,3.9921,3.9689,3.9421,3.9376,3.9546,3.9356,3.8648,3.824,3.8352,3.8473,3.8648,3.8826,3.925,3.9654,3.946,3.9228,3.9274,3.937,3.9397,3.9397,3.9397,3.9397,3.9397,3.9397,3.9382,3.9367,3.9116,3.8835,3.8221,3.7593,3.7154,3.665,3.6149,3.5831,3.5591,3.5572,3.5679,3.5824,3.6138,3.6474,3.6721,3.72,3.7838,3.8491,3.9153,3.9652,4.0144,4.0489,4.0489,4.0489,4.0453,4.0383,1.4412,1.434,1.5511,1.582,1.5861,1.7368,1.7951,1.8044,1.9546,2.0155,1.9828,1.9443,1.9165,1.9107,1.9712,2.0201,2.0763,2.1526,2.1837,2.2402,2.3061,2.3507,2.4145,2.4691,2.5031,2.5453,2.6175,2.6878,2.7615,2.7788,2.7966,2.8225,2.7911,2.7973,2.8646,2.9517,3.0403,3.0883,3.2419,3.3066,3.3092,3.3113,3.3113,3.3358,3.3926,3.4741,3.5592,3.6429,3.7304,3.7844,3.7792,3.7543,3.7534,3.7572,3.7768,3.7991,3.8258,3.8703,3.9412,3.9629,3.9475,3.9626,3.9653,3.9484,3.9358,3.9157,3.9057,3.9166,3.8863,3.8221,3.8212,3.8287,3.8324,3.8449,3.8496,3.8708,3.9038,3.9126,3.9077,3.9183,3.9283,3.9397,3.9397,3.9397,3.9397,3.9397,3.9397,3.9397,3.9397,3.9397,3.9137,3.8847,3.8204,3.7599,3.709,3.6522,3.5985,3.5767,3.5534,3.5729,3.5953,3.6194,3.6452,3.6691,3.6938,3.7261,3.793,3.8638,3.9261,3.9744,4.016,4.0489,4.0489,4.0489,4.0453,1.401,1.4058,1.526,1.5713,1.5807,1.7356,1.7986,1.8064,1.9546,2.0292,2.0121,1.9245,1.9199,1.95,1.9378,1.982,2.032,2.0943,2.1304,2.1804,2.2312,2.2917,2.3366,2.3735,2.4306,2.4925,2.5631,2.6279,2.6941,2.7167,2.7342,2.721,2.7116,2.7103,2.771,2.8686,2.9784,3.0599,3.1757,3.2827,3.3049,3.3113,3.3113,3.339,3.3821,3.4631,3.5443,3.6271,3.713,3.7524,3.7634,3.7524,3.7447,3.7515,3.7711,3.792,3.8132,3.8629,3.9133,3.9211,3.9229,3.9284,3.9238,3.9112,3.8972,3.8899,3.8798,3.8638,3.8343,3.823,3.8212,3.8212,3.824,3.8258,3.8258,3.8277,3.8566,3.8824,3.894,3.905,3.921,3.9343,3.9388,3.9388,3.9388,3.9388,3.9397,3.9397,3.9397,3.9397,3.9287,3.9137,3.8793,3.8195,3.7501,3.6836,3.6193,3.5848,3.5687,3.5865,3.618,3.6692,3.69,3.6683,3.6921,3.7238,3.7492,3.8061,3.8684,3.9337,3.976,4.0175,4.0489,4.0489,4.0489,1.5011,1.5683,1.5803,1.5766,1.5979,1.7415,1.8067,1.8288,1.958,2.0292,1.9976,1.9379,1.9276,2.0079,1.8819,1.8981,2.0136,2.0526,2.1035,2.1617,2.1848,2.2378,2.2884,2.3268,2.3973,2.4574,2.5147,2.5799,2.6206,2.6757,2.7148,2.7097,2.6375,2.6542,2.7254,2.8159,2.8872,2.9872,3.1147,3.2307,3.2876,3.2984,3.3102,3.322,3.3261,3.3894,3.4589,3.5406,3.6162,3.6737,3.7178,3.724,3.738,3.7476,3.7682,3.7853,3.8066,3.8505,3.8844,3.8721,3.873,3.9063,3.8917,3.8523,3.844,3.8449,3.8384,3.8375,3.8183,3.8212,3.8212,3.8212,3.8221,3.8221,3.8221,3.832,3.8497,3.8627,3.8729,3.8903,3.9086,3.9219,3.9319,3.9328,3.9361,3.937,3.9397,3.9397,3.9397,3.9397,3.9397,3.9293,3.9197,3.8449,3.762,3.7015,3.6425,3.6051,3.5979,3.6427,3.6929,3.7492,3.7583,3.7254,3.7182,3.74,3.7646,3.7738,3.8253,3.8891,3.9353,3.976,4.0175,4.0413,4.0351]}]]